[[{"header":{"parameterUnit":"m.s-1","parameterCategory":1,"la1":30.6,"la2":28.766,"lo1":-90.7593,"lo2":-88.6598,"dy":0.0162,"dx":0.0183,"nx":116,"ny":114,"refTime":"2024-05-09T12:00:00:Z","depth":0,"parameterNumber":2,"parameterNumberName":"U-component_of_WINDS"},"data":[0.0,0.0,0.0,0.0,0.0,0.0,0.0,0.0,0.0,0.0,0.0,0.0,0.0,0.0,0.0,0.0,0.0,0.0,0.0,0.0,0.0,0.0,0.0,0.0,0.0,0.0,0.0,0.0,0.0,0.0,0.0,0.0,0.0,0.0,0.0,0.0,0.0,0.0,0.0,0.0,0.0,0.0,0.0,0.0,0.0,0.0,0.0,0.0,0.0,0.0,0.0,0.0,0.0,0.0,0.0,0.0,0.0,0.0,0.0,0.0,0.0,0.0,0.0,0.0,0.0,0.0,0.0,0.0,0.0,0.0,0.0,0.0,0.0,0.0,0.0,0.0,0.0,0.0,0.0,0.0,0.0,0.0,0.0,0.0,0.0,0.0,0.0,0.0,0.0,0.0,0.0,0.0,0.0,0.0,0.0,0.0,0.0,0.0,0.0,0.0,0.0,0.0,0.0,0.0,0.0,0.0,0.0,0.0,0.0,0.0,0.0,0.0,0.0,0.0,0.0,0.0,0.0,0.0,0.0,0.0,0.0,0.0,0.0,0.0,0.0,0.0,0.0,0.0,0.0,0.0,0.0,0.0,0.0,0.0,0.0,0.0,0.0,0.0,0.0,0.0,0.0,0.0,0.0,0.0,0.0,0.0,0.0,0.0,0.0,0.0,0.0,0.0,0.0,0.0,0.0,0.0,0.0,0.0,0.0,0.0,0.0,0.0,0.0,0.0,0.0,0.0,0.0,0.0,0.0,0.0,0.0,0.0,0.0,0.0,0.0,0.0,0.0,0.0,0.0,0.0,0.0,0.0,0.0,0.0,0.0,0.0,0.0,0.0,0.0,0.0,0.0,0.0,0.0,0.0,0.0,0.0,0.0,0.0,0.0,0.0,0.0,0.0,0.0,0.0,0.0,0.0,0.0,0.0,0.0,0.0,0.0,0.0,0.0,0.0,0.0,0.0,0.0,0.0,0.0,0.0,0.0,0.0,0.0,0.0,0.0,0.0,0.0,0.0,0.0,0.0,0.0,0.0,0.0,0.0,0.0,0.0,0.0,0.0,0.0,0.0,0.0,0.0,0.0,0.0,0.0,0.0,0.0,0.0,0.0,0.0,0.0,0.0,0.0,0.0,0.0,0.0,0.0,0.0,0.0,0.0,0.0,0.0,0.0,0.0,0.0,0.0,0.0,0.0,0.0,0.0,0.0,0.0,0.0,0.0,0.0,0.0,0.0,0.0,0.0,0.0,0.0,0.0,0.0,0.0,0.0,0.0,0.0,0.0,0.0,0.0,0.0,0.0,0.0,0.0,0.0,0.0,0.0,0.0,0.0,0.0,0.0,0.0,0.0,0.0,0.0,0.0,0.0,0.0,0.0,0.0,0.0,0.0,0.0,0.0,0.0,0.0,0.0,0.0,0.0,0.0,0.0,0.0,0.0,0.0,0.0,0.0,0.0,0.0,0.0,0.0,0.0,0.0,0.0,0.0,0.0,0.0,0.0,0.0,0.0,0.0,0.0,0.0,0.0,0.0,0.0,0.0,0.0,0.0,0.0,0.0,0.0,0.0,0.0,0.0,0.0,0.0,0.0,0.0,0.0,0.0,0.0,0.0,0.0,0.0,0.0,0.0,0.0,0.0,0.0,0.0,0.0,0.0,0.0,0.0,0.0,0.0,0.0,0.0,0.0,0.0,0.0,0.0,0.0,0.0,0.0,0.0,0.0,0.0,0.0,0.0,0.0,0.0,0.0,0.0,0.0,0.0,0.0,0.0,0.0,0.0,0.0,0.0,0.0,0.0,0.0,0.0,0.0,0.0,0.0,0.0,0.0,0.0,0.0,0.0,0.0,0.0,0.0,0.0,0.0,0.0,0.0,0.0,0.0,0.0,0.0,0.0,0.0,0.0,0.0,0.0,0.0,0.0,0.0,0.0,0.0,0.0,0.0,0.0,0.0,0.0,0.0,0.0,0.0,0.0,0.0,0.0,0.0,0.0,0.0,0.0,0.0,0.0,0.0,0.0,0.0,0.0,0.0,0.0,0.0,0.0,0.0,0.0,0.0,0.0,0.0,0.0,0.0,0.0,0.0,0.0,0.0,0.0,0.0,0.0,0.0,0.0,0.0,0.0,0.0,0.0,0.0,0.0,0.0,0.0,0.0,0.0,0.0,0.0,0.0,0.0,0.0,0.0,0.0,0.0,0.0,0.0,0.0,0.0,0.0,0.0,0.0,0.0,0.0,0.0,0.0,0.0,0.0,0.0,0.0,0.0,0.0,0.0,0.0,0.0,0.0,0.0,0.0,0.0,0.0,0.0,0.0,0.0,0.0,0.0,0.0,0.0,0.0,0.0,0.0,0.0,0.0,0.0,0.0,0.0,0.0,0.0,0.0,0.0,0.0,0.0,0.0,0.0,0.0,0.0,0.0,0.0,0.0,0.0,0.0,0.0,0.0,0.0,0.0,0.0,0.0,0.0,0.0,0.0,0.0,0.0,0.0,0.0,0.0,0.0,0.0,0.0,0.0,0.0,0.0,0.0,0.0,0.0,0.0,0.0,0.0,0.0,0.0,0.0,0.0,0.0,0.0,0.0,0.0,0.0,0.0,0.0,0.0,0.0,0.0,0.0,0.0,0.0,0.0,0.0,0.0,0.0,0.0,0.0,0.0,0.0,0.0,0.0,0.0,0.0,0.0,0.0,0.0,0.0,0.0,0.0,0.0,0.0,0.0,0.0,0.0,0.0,0.0,0.0,0.0,0.0,0.0,0.0,0.0,0.0,0.0,0.0,0.0,0.0,0.0,0.0,0.0,0.0,0.0,0.0,0.0,0.0,0.0,0.0,0.0,0.0,0.0,0.0,0.0,0.0,0.0,0.0,0.0,0.0,0.0,0.0,0.0,0.0,0.0,0.0,0.0,0.0,0.0,0.0,0.0,0.0,0.0,0.0,0.0,0.0,0.0,0.0,0.0,0.0,0.0,0.0,0.0,0.0,0.0,0.0,0.0,0.0,0.0,0.0,0.0,0.0,0.0,0.0,0.0,0.0,0.0,0.0,0.0,0.0,0.0,0.0,0.0,0.0,0.0,0.0,0.0,0.0,0.0,0.0,0.0,0.0,0.0,0.0,0.0,0.0,0.0,0.0,0.0,0.0,0.0,0.0,0.0,0.0,0.0,0.0,0.0,0.0,0.0,0.0,0.0,0.0,0.0,0.0,0.0,0.0,0.0,0.0,0.0,0.0,0.0,0.0,0.0,0.0,0.0,0.0,0.0,0.0,0.0,0.0,0.0,0.0,0.0,0.0,0.0,0.0,0.0,0.0,0.0,0.0,0.0,0.0,0.0,0.0,0.0,0.0,0.0,0.0,0.0,0.0,0.0,0.0,0.0,0.0,0.0,0.0,0.0,0.0,0.0,0.0,0.0,0.0,0.0,0.0,0.0,0.0,0.0,0.0,0.0,0.0,0.0,0.0,0.0,0.0,0.0,0.0,0.0,0.0,0.0,0.0,0.0,0.0,0.0,0.0,0.0,0.0,0.0,0.0,0.0,0.0,0.0,0.0,0.0,0.0,0.0,0.0,0.0,0.0,0.0,0.0,0.0,0.0,0.0,0.0,0.0,0.0,0.0,0.0,0.0,0.0,0.0,0.0,0.0,0.0,0.0,0.0,0.0,0.0,0.0,0.0,0.0,0.0,0.0,0.0,0.0,0.0,0.0,0.0,0.0,0.0,0.0,0.0,0.0,0.0,0.0,0.0,0.0,0.0,0.0,0.0,0.0,0.0,0.0,0.0,0.0,0.0,0.0,0.0,0.0,0.0,0.0,0.0,0.0,0.0,0.0,0.0,0.0,0.0,0.0,0.0,0.0,0.0,0.0,0.0,0.0,0.0,0.0,0.0,0.0,0.0,0.0,0.0,0.0,0.0,0.0,0.0,0.0,0.0,0.0,0.0,0.0,0.0,0.0,0.0,0.0,0.0,0.0,0.0,0.0,0.0,0.0,0.0,0.0,0.0,0.0,0.0,0.0,0.0,0.0,0.0,0.0,0.0,0.0,0.0,0.0,0.0,0.0,0.0,0.0,0.0,0.0,0.0,0.0,0.0,0.0,0.0,0.0,0.0,0.0,0.0,0.0,0.0,0.0,0.0,0.0,0.0,0.0,0.0,0.0,0.0,0.0,0.0,0.0,0.0,0.0,0.0,0.0,0.0,0.0,0.0,0.0,0.0,0.0,0.0,0.0,0.0,0.0,0.0,0.0,0.0,0.0,0.0,0.0,0.0,0.0,0.0,0.0,0.0,0.0,0.0,0.0,0.0,0.0,0.0,0.0,0.0,0.0,0.0,0.0,0.0,0.0,0.0,0.0,0.0,0.0,0.0,0.0,0.0,0.0,0.0,0.0,0.0,0.0,0.0,0.0,0.0,0.0,0.0,0.0,0.0,0.0,0.0,0.0,0.0,0.0,0.0,0.0,0.0,0.0,0.0,0.0,0.0,0.0,0.0,0.0,0.0,0.0,0.0,0.0,0.0,0.0,0.0,0.0,0.0,0.0,0.0,0.0,0.0,0.0,0.0,0.0,0.0,0.0,0.0,0.0,0.0,0.0,0.0,0.0,0.0,0.0,0.0,0.0,0.0,0.0,0.0,0.0,0.0,0.0,0.0,0.0,0.0,0.0,0.0,0.0,0.0,0.0,0.0,0.0,0.0,0.0,0.0,0.0,0.0,0.0,0.0,0.0,0.0,0.0,0.0,0.0,0.0,0.0,0.0,0.0,0.0,0.0,0.0,0.0,0.0,0.0,0.0,0.0,0.0,0.0,0.0,0.0,0.0,0.0,0.0,0.0,0.0,0.0,0.0,0.0,0.0,0.0,0.0,0.0,0.0,0.0,0.0,0.0,0.0,0.0,0.0,0.0,0.0,0.0,0.0,0.0,0.0,0.0,0.0,0.0,0.0,0.0,0.0,0.0,0.0,0.0,0.0,0.0,0.0,0.0,0.0,0.0,0.0,0.0,0.0,0.0,0.0,0.0,0.0,0.0,0.0,0.0,0.0,0.0,0.0,0.0,0.0,0.0,0.0,0.0,0.0,0.0,0.0,0.0,0.0,0.0,0.0,0.0,0.0,0.0,0.0,0.0,0.0,0.0,0.0,0.0,0.0,0.0,0.0,0.0,0.0,0.0,0.0,0.0,0.0,0.0,0.0,0.0,0.0,0.0,0.0,0.0,0.0,0.0,0.0,0.0,0.0,0.0,0.0,0.0,0.0,0.0,0.0,0.0,0.0,0.0,0.0,0.0,0.0,0.0,0.0,0.0,0.0,0.0,0.0,0.0,0.0,0.0,0.0,0.0,0.0,0.0,0.0,0.0,0.0,0.0,0.0,0.0,0.0,0.0,0.0,0.0,0.0,0.0,0.0,0.0,0.0,0.0,0.0,0.0,0.0,0.0,0.0,0.0,0.0,0.0,0.0,0.0,0.0,0.0,0.0,0.0,0.0,0.0,0.0,0.0,0.0,0.0,0.0,0.0,0.0,0.0,0.0,0.0,0.0,0.0,0.0,0.0,0.0,0.0,0.0,0.0,0.0,0.0,0.0,0.0,0.0,0.0,0.0,0.0,0.0,0.0,0.0,0.0,0.0,0.0,0.0,0.0,0.0,0.0,0.0,0.0,0.0,0.0,0.0,0.0,0.0,0.0,0.0,0.0,0.0,0.0,0.0,0.0,0.0,0.0,0.0,0.0,0.0,0.0,0.0,0.0,0.0,0.0,0.0,0.0,0.0,0.0,0.0,0.0,0.0,0.0,0.0,0.0,0.0,0.0,0.0,0.0,0.0,0.0,0.0,0.0,0.0,0.0,0.0,0.0,0.0,0.0,0.0,0.0,0.0,0.0,0.0,0.0,0.0,0.0,0.0,0.0,0.0,0.0,0.0,0.0,0.0,0.0,0.0,0.0,0.0,0.0,0.0,0.0,0.0,0.0,0.0,0.0,0.0,0.0,0.0,0.0,0.0,0.0,0.0,0.0,0.0,0.0,0.0,0.0,0.0,0.0,0.0,0.0,0.0,0.0,0.0,0.0,0.0,0.0,0.0,0.0,0.0,0.0,0.0,0.0,0.0,0.0,0.0,0.0,0.0,-4.8357,0.0,0.0,0.0,0.0,0.0,0.0,0.0,0.0,0.0,0.0,0.0,0.0,0.0,0.0,0.0,0.0,0.0,0.0,0.0,0.0,0.0,0.0,0.0,0.0,-4.1133,-4.2,-4.2838,-4.2604,-4.2922,-4.4187,0.0,0.0,0.0,0.0,0.0,-4.2343,-4.234,-4.2764,-4.3657,-4.2742,-4.2951,-4.4205,-4.2891,-4.254,-4.2955,0.0,0.0,0.0,0.0,0.0,0.0,0.0,0.0,0.0,0.0,0.0,0.0,0.0,0.0,0.0,0.0,0.0,0.0,0.0,0.0,0.0,0.0,0.0,0.0,0.0,0.0,0.0,0.0,0.0,0.0,0.0,0.0,0.0,0.0,0.0,0.0,0.0,0.0,0.0,0.0,0.0,0.0,0.0,0.0,0.0,0.0,0.0,0.0,0.0,0.0,0.0,0.0,0.0,0.0,0.0,0.0,0.0,0.0,0.0,0.0,0.0,0.0,0.0,0.0,0.0,0.0,0.0,0.0,0.0,0.0,0.0,-5.0963,0.0,0.0,0.0,0.0,0.0,0.0,0.0,0.0,0.0,0.0,0.0,0.0,0.0,0.0,0.0,0.0,0.0,0.0,0.0,0.0,0.0,-3.901,-4.0604,-4.1065,-4.1773,-4.3053,-4.2178,-4.237,-4.434,-4.3453,0.0,0.0,-4.4212,-4.3867,-4.3705,-4.3699,-4.4124,-4.4977,-4.4507,-4.4695,-4.5562,-4.483,-4.4468,-4.4444,-4.3876,0.0,0.0,0.0,0.0,0.0,0.0,0.0,0.0,0.0,0.0,0.0,0.0,0.0,0.0,0.0,0.0,0.0,0.0,0.0,0.0,0.0,0.0,0.0,0.0,0.0,0.0,0.0,0.0,0.0,0.0,0.0,0.0,0.0,0.0,0.0,0.0,0.0,0.0,0.0,0.0,0.0,0.0,0.0,0.0,0.0,0.0,0.0,0.0,0.0,0.0,0.0,0.0,0.0,0.0,0.0,0.0,0.0,0.0,0.0,0.0,0.0,0.0,0.0,-5.7258,-5.7852,-5.9045,-5.9676,-5.9894,-5.9536,-5.6709,-5.5641,-5.5679,0.0,0.0,0.0,0.0,0.0,0.0,0.0,0.0,0.0,0.0,0.0,0.0,0.0,0.0,0.0,0.0,0.0,0.0,0.0,0.0,-3.8871,-3.986,-4.1318,-4.1997,-4.1473,-4.2546,-4.3128,-4.2763,-4.389,-4.4367,-4.3881,-4.448,-4.4451,-4.3709,-4.3705,-4.4082,-4.4904,-4.6261,-4.7358,-4.8206,-4.801,-4.7927,-4.7717,-4.4859,-4.3483,-4.335,0.0,0.0,0.0,0.0,0.0,0.0,0.0,0.0,0.0,0.0,0.0,0.0,0.0,0.0,0.0,0.0,0.0,0.0,0.0,0.0,0.0,0.0,0.0,0.0,0.0,0.0,0.0,0.0,0.0,0.0,0.0,0.0,0.0,0.0,0.0,0.0,0.0,0.0,0.0,0.0,0.0,-4.347,-4.461,0.0,0.0,0.0,0.0,0.0,0.0,0.0,0.0,0.0,0.0,0.0,0.0,0.0,0.0,-5.6936,-5.9152,-6.0756,-6.1638,-6.2361,-6.2663,-6.2603,-6.2657,-6.2484,-6.2093,-6.1675,0.0,-5.838,-5.5715,0.0,0.0,0.0,0.0,0.0,0.0,0.0,0.0,0.0,0.0,0.0,0.0,0.0,0.0,0.0,0.0,0.0,0.0,0.0,0.0,0.0,-4.0764,-4.0968,-4.1097,-4.1788,-4.2059,-4.1685,-4.2346,-4.3248,-4.4387,-4.4323,-4.4568,-4.5156,-4.5584,-4.6233,-4.7109,-4.7827,-4.8339,-4.8633,-4.8667,-4.8616,-4.8444,-4.6996,-4.5823,-4.49,-4.4967,0.0,0.0,0.0,0.0,0.0,0.0,0.0,0.0,0.0,0.0,0.0,0.0,0.0,0.0,0.0,0.0,0.0,0.0,0.0,0.0,0.0,0.0,0.0,0.0,0.0,0.0,0.0,0.0,0.0,0.0,0.0,0.0,0.0,0.0,0.0,0.0,0.0,0.0,0.0,-4.3893,-4.6475,-4.8313,-4.6952,-4.6072,0.0,0.0,0.0,0.0,0.0,0.0,0.0,0.0,0.0,-5.6316,-5.833,-6.0005,-6.1226,-6.2206,-6.2865,-6.3236,-6.3487,-6.3477,-6.3308,-6.3668,-6.3628,-6.3318,-6.3318,-6.2693,-6.1482,-5.9422,-5.8753,-5.8688,0.0,0.0,0.0,0.0,0.0,-5.2753,0.0,0.0,0.0,0.0,0.0,0.0,0.0,0.0,0.0,0.0,0.0,0.0,-4.0202,-4.0052,-4.0057,-4.0727,-4.0991,-4.1026,-4.08,-4.1187,-4.228,-4.4237,-4.4362,-4.4879,-4.5937,-4.6946,-4.8014,-4.9127,-4.9113,-4.9153,-4.9274,-4.9338,-4.9293,-4.9175,-4.9174,-4.8221,-4.663,-4.6473,-4.5561,-4.4093,0.0,0.0,0.0,0.0,0.0,0.0,0.0,0.0,0.0,0.0,0.0,0.0,0.0,0.0,0.0,0.0,0.0,0.0,0.0,0.0,0.0,0.0,0.0,0.0,0.0,0.0,0.0,0.0,0.0,0.0,0.0,0.0,0.0,0.0,0.0,0.0,0.0,-4.6694,-4.9386,-5.1769,-5.0525,-4.9991,0.0,0.0,0.0,0.0,0.0,0.0,-5.6081,-5.7623,-5.9326,-6.1201,-6.2497,-6.354,-6.439,-6.421,-6.4244,-6.442,-6.4219,-6.4043,-6.3937,-6.4652,-6.4809,-6.4536,-6.4676,-6.4706,-6.4396,-6.2357,-6.1418,-6.108,-5.9139,-5.8146,-5.7715,-5.7038,-5.7002,-5.7516,0.0,0.0,0.0,0.0,0.0,0.0,0.0,0.0,0.0,0.0,0.0,-3.7558,-3.8542,-3.9331,-3.9842,-3.9961,-4.0658,-4.0768,-3.9915,-4.1427,-4.2403,-4.2532,-4.487,-4.5816,-4.5072,-4.6618,-4.8252,-5.002,-4.9967,-5.032,-5.105,-5.1156,-5.1118,-5.0959,-5.1025,-5.007,-4.8309,-4.7571,-4.6763,-4.5877,-4.5015,0.0,0.0,0.0,0.0,0.0,0.0,0.0,0.0,0.0,0.0,0.0,0.0,0.0,0.0,0.0,0.0,0.0,0.0,0.0,0.0,0.0,0.0,0.0,0.0,0.0,0.0,0.0,0.0,0.0,0.0,0.0,0.0,0.0,0.0,0.0,0.0,0.0,0.0,-5.3569,-5.445,0.0,0.0,0.0,0.0,-5.5933,-5.7677,-5.9758,-6.2313,-6.3244,-6.378,-6.3915,-6.3992,-6.4429,-6.5245,-6.5087,-6.5419,-6.6157,-6.5986,-6.5753,-6.5601,-6.6403,-6.6583,-6.6324,-6.6873,-6.7162,-6.6973,-6.3532,-6.2065,-6.1937,-6.1732,-6.1955,-6.2251,-6.1183,-6.11,-6.1469,0.0,0.0,0.0,0.0,0.0,-3.3285,-3.4155,-3.4285,-3.4681,-3.5814,-3.6699,-3.7533,-3.8394,-3.9297,-3.9803,-3.9843,-4.0625,-4.0741,-3.9921,-4.1477,-4.2915,-4.4003,-4.5483,-4.6906,-4.82,-4.8743,-4.9616,-5.086,-5.081,-5.0938,-5.1211,-5.122,-5.1175,-5.1121,-5.1101,-5.0784,-5.0132,-4.9308,-4.8483,-4.7644,-4.6795,-4.5796,0.0,0.0,0.0,0.0,0.0,0.0,0.0,0.0,0.0,0.0,0.0,0.0,0.0,0.0,0.0,0.0,0.0,0.0,0.0,0.0,0.0,0.0,0.0,0.0,0.0,0.0,0.0,0.0,0.0,0.0,0.0,0.0,0.0,0.0,0.0,0.0,0.0,-5.6289,-5.7187,0.0,-5.9326,-5.8352,-5.8461,-6.048,-6.1719,-6.3031,-6.448,-6.4793,-6.5177,-6.5748,-6.5744,-6.6121,-6.6951,-6.6739,-6.7039,-6.7831,-6.7034,-6.6832,-6.7247,-6.6925,-6.6949,-6.7237,-6.7273,-6.7278,-6.7108,-6.5726,-6.4839,-6.4274,-6.4036,-6.3759,-6.3387,-6.2627,-6.254,-6.2825,0.0,0.0,0.0,-3.2669,-3.2318,-3.2394,-3.3254,-3.3663,-3.4378,-3.5825,-3.6711,-3.7656,-3.8828,-3.9447,-3.9908,-4.0227,-4.078,-4.0859,-4.0351,-4.1637,-4.2917,-4.4084,-4.5536,-4.746,-4.9953,-4.9935,-5.0373,-5.1308,-5.1225,-5.1201,-5.1211,-5.1225,-5.1196,-5.1113,-5.1125,-5.1119,-5.1113,-5.0853,-5.0081,-4.901,-4.8477,-4.763,-4.6586,0.0,0.0,0.0,0.0,0.0,0.0,0.0,0.0,0.0,0.0,0.0,0.0,0.0,0.0,0.0,0.0,0.0,0.0,0.0,0.0,0.0,0.0,0.0,0.0,0.0,0.0,0.0,0.0,0.0,0.0,0.0,0.0,0.0,0.0,-5.4883,-5.7849,-5.898,-6.0153,-6.1321,-6.2478,-6.201,-6.2271,-6.3666,-6.4318,-6.5008,-6.584,-6.5844,-6.6229,-6.7073,-6.6795,-6.7125,-6.8232,-6.7733,-6.7849,-6.8602,-6.7744,-6.7616,-6.8012,-6.7645,-6.7659,-6.8025,-6.8091,-6.8016,-6.7836,-6.7631,-6.7,-6.6116,-6.5228,-6.4657,-6.4171,-6.3,-6.2738,-6.3063,0.0,-3.2747,-3.24,-3.3246,-3.2659,-3.2348,-3.3244,-3.4084,-3.4997,-3.5868,-3.6795,-3.7965,-3.9602,-3.9818,-4.0159,-4.0991,-4.1086,-4.1092,-4.1053,-4.1949,-4.249,-4.2615,-4.5037,-4.7564,-4.9971,-4.9956,-5.0403,-5.1291,-5.1278,-5.1224,-5.1249,-5.13,-5.1321,-5.1291,-5.1234,-5.1234,-5.1286,-5.2113,-5.1536,-4.9974,-5.0062,-4.9079,-4.7625,0.0,0.0,0.0,0.0,0.0,0.0,0.0,0.0,0.0,0.0,0.0,0.0,0.0,0.0,0.0,0.0,0.0,0.0,0.0,0.0,0.0,0.0,0.0,0.0,0.0,0.0,0.0,0.0,0.0,0.0,0.0,0.0,0.0,-5.6601,-5.8201,-5.9954,-6.1675,-6.3339,-6.4418,-6.4468,-6.4331,-6.4655,-6.5492,-6.5593,-6.5922,-6.6673,-6.6707,-6.7086,-6.7798,-6.7061,-6.7345,-6.8851,-6.7948,-6.7818,-6.8488,-6.8238,-6.805,-6.7996,-6.8641,-6.8835,-6.8698,-6.9398,-6.9579,-6.9353,-6.9116,-6.8383,-6.723,-6.5257,-6.4786,-6.4924,-6.2579,-6.2002,-6.2427,-3.435,-3.3655,-3.3119,-3.3354,-3.2173,-3.1469,-3.231,-3.3209,-3.4309,-3.5811,-3.7265,-3.858,-3.9675,-4.035,-4.0572,-4.0208,-4.0727,-4.0854,-4.0273,-4.2186,-4.4449,-4.6948,-4.828,-4.9594,-5.0896,-5.0871,-5.0972,-5.1291,-5.1862,-5.2158,-5.2144,-5.2217,-5.2553,-5.3075,-5.2402,-5.2139,-5.2251,-5.3724,-5.34,-5.1841,-5.1832,-5.1207,-5.0174,0.0,0.0,0.0,0.0,0.0,0.0,0.0,0.0,0.0,0.0,0.0,0.0,0.0,0.0,0.0,0.0,0.0,0.0,0.0,0.0,0.0,0.0,0.0,0.0,0.0,0.0,0.0,0.0,0.0,0.0,0.0,-5.6755,-5.9095,-5.9333,-6.1938,-6.4191,-6.5286,-6.5826,-6.6597,-6.7877,-6.6853,-6.6447,-6.7266,-6.7296,-6.7126,-6.6712,-6.7236,-6.7114,-6.6112,-6.6924,-6.7611,-6.8031,-6.8706,-6.945,-7.0194,-6.888,-6.8716,-6.9594,-6.8699,-6.8727,-6.955,-6.9644,-6.9539,-6.9246,-6.8968,-6.8651,-6.8189,-6.69,-6.6133,-6.5654,-6.4657,-6.4572,-6.4961,-3.4081,-3.3152,-3.242,-3.2775,-3.1709,-3.0966,-3.1493,-3.2625,-3.3883,-3.527,-3.7224,-3.8694,-3.9192,-4.0025,-4.0211,-3.9337,-4.0055,-4.0343,-3.9883,-4.2616,-4.5427,-4.8123,-4.941,-5.0284,-5.0756,-5.1044,-5.124,-5.1291,-5.1745,-5.1963,-5.195,-5.2416,-5.2835,-5.3247,-5.3122,-5.3059,-5.3132,-5.4523,-5.4553,-5.3701,-5.3666,-5.2916,-5.183,-5.1363,-5.0429,-4.9296,-4.8784,-4.8354,-4.7847,-4.6522,0.0,0.0,0.0,0.0,0.0,0.0,0.0,0.0,0.0,0.0,0.0,0.0,0.0,0.0,0.0,0.0,0.0,0.0,0.0,0.0,0.0,0.0,0.0,0.0,-5.995,-6.2132,-6.3921,-6.5275,-6.6397,-6.7255,-6.7328,-6.7865,-6.9217,-6.8429,-6.8024,-6.8505,-6.8218,-6.7935,-6.7803,-6.7854,-6.7453,-6.6496,-6.7588,-6.8174,-6.8157,-6.9173,-7.0052,-7.0801,-6.9696,-6.9534,-7.0234,-6.9256,-6.9198,0.0,-6.9697,-6.9457,-6.9116,-6.8937,-6.8707,0.0,0.0,0.0,0.0,0.0,-6.4856,-6.5524,-3.3226,-3.2062,-3.1209,-3.1989,-3.1395,-3.0806,-3.082,-3.2264,-3.3722,-3.4608,-3.6834,-3.8383,-3.8508,-3.9195,-3.9348,-3.8584,-3.9307,-3.9912,-4.0234,-4.3122,-4.5701,-4.7578,-4.9126,-5.0033,-5.0144,-5.0849,-5.1249,-5.1291,-5.1322,-5.1385,-5.1517,-5.2347,-5.2814,-5.2962,-5.3657,-5.3939,-5.4017,-5.4889,-5.5224,-5.519,-5.5305,-5.4351,-5.2852,-5.2734,-5.1678,-5.0233,-5.0261,-4.9751,-4.8975,-4.8278,0.0,0.0,0.0,0.0,0.0,0.0,0.0,0.0,0.0,0.0,0.0,0.0,0.0,0.0,0.0,0.0,0.0,0.0,0.0,0.0,0.0,0.0,0.0,0.0,-6.2638,-6.4859,-6.8571,-6.8018,-6.751,-6.8291,-6.8238,-6.8496,-6.9506,-6.941,-6.9358,-6.9431,-6.871,-6.8577,-6.9245,0.0,0.0,0.0,0.0,-6.8935,-6.879,-6.9412,-7.0071,-7.0708,-7.0359,-7.0175,-7.0185,-6.9999,-6.9797,-6.9597,-6.9597,-6.9353,-6.9005,-6.8907,-6.8626,-6.8099,-6.6727,-6.6232,-6.6073,-6.4328,-6.442,0.0,-3.3237,-3.2578,-3.1884,-3.2082,-3.1363,-3.0813,-3.0881,-3.2308,-3.3716,-3.4608,-3.6326,-3.772,-3.844,-3.8644,-3.868,-3.8525,-3.9284,-4.0701,-4.2811,-4.359,-4.5311,-4.8393,-4.8931,-4.977,-5.1099,-5.1225,-5.1277,-5.1291,-5.1983,-5.2655,-5.3314,-5.355,-5.4372,-5.5613,-5.5151,-5.4935,-5.4974,-5.587,-5.5818,-5.5269,-5.599,-5.5228,-5.3652,-5.2968,-5.2059,-5.1151,-5.1146,-5.1027,-5.0875,-5.0732,-5.0657,-5.0499,-4.9633,-4.9737,0.0,0.0,0.0,0.0,0.0,0.0,0.0,0.0,0.0,0.0,0.0,0.0,0.0,0.0,0.0,0.0,0.0,0.0,0.0,-5.9447,-6.3814,-6.7158,-6.7283,-6.8788,-6.9951,-7.0103,-6.8929,-6.896,-7.1165,-7.0142,-6.9587,-7.0307,-7.0158,-6.979,-6.9245,-6.972,0.0,-6.7864,-6.9097,-6.943,-6.8738,-6.9886,-7.0546,-7.0669,0.0,0.0,-7.0185,-6.9514,-6.9375,-6.9679,-6.9617,-6.9353,-6.8968,-6.88,-6.8457,-6.7941,-6.7531,-6.7657,-6.8037,-6.7552,-6.7867,-6.8429,-3.3803,-3.2989,-3.2094,-3.209,-3.1378,-3.0828,-3.0843,-3.192,-3.3054,-3.3944,-3.5547,-3.6755,-3.721,-3.7627,-3.7708,-3.7298,-3.8398,-4.0076,-4.2265,-4.3591,-4.5273,-4.7446,-4.8798,-4.9874,-5.0712,-5.1108,-5.1285,-5.1285,-5.1728,-5.2173,-5.2572,-5.3013,-5.3909,-5.5088,-5.4693,-5.4784,-5.5217,-5.5658,-5.5369,-5.4616,-5.5541,-5.4896,-5.3349,-5.3358,-5.2524,-5.1414,-5.138,-5.1418,-5.1418,-5.1398,-5.1674,-5.1983,-5.1543,-5.1689,-5.1869,0.0,0.0,0.0,0.0,0.0,0.0,0.0,0.0,0.0,0.0,0.0,0.0,0.0,0.0,-5.616,-5.7023,0.0,-6.0312,-6.2064,-6.4862,-6.7222,-6.8518,-6.9783,-7.0589,-7.0589,-6.9484,-6.9514,-7.1643,-7.0707,-7.0118,-7.0575,-7.0542,-7.0323,-6.9856,-7.0239,-6.9848,-6.8504,-6.9866,-7.0036,-6.8717,-7.0038,-7.0723,-7.0669,-7.0031,-6.9887,-7.0185,-6.9675,-6.9549,-6.9737,-7.0032,-6.9729,-6.8968,-6.8565,-6.8222,-6.8041,-6.8208,-6.8394,-6.8499,-6.8414,-6.8779,-6.9261,-3.3933,-3.3197,-3.23,-3.2133,-3.1387,-3.0799,-3.0799,-3.1528,-3.235,-3.3042,-3.4645,-3.5741,-3.574,-3.6442,-3.6756,-3.6288,-3.7792,-3.943,-4.1015,-4.3319,-4.5156,-4.6222,-4.8579,-4.9931,-5.0087,-5.0903,-5.1316,-5.1307,-5.1312,-5.1369,-5.1555,-5.2278,-5.3018,-5.3779,-5.3875,-5.4277,-5.4948,-5.4968,-5.456,-5.3997,-5.4732,-5.4086,-5.2767,-5.3476,-5.2763,-5.1384,-5.1389,-5.1385,-5.1384,-5.1402,-5.2105,-5.2918,-5.2752,-5.3057,-5.3398,-5.3156,-5.2643,0.0,0.0,0.0,0.0,0.0,0.0,0.0,0.0,-5.7013,-5.7487,-5.7354,-5.7988,-5.8972,-6.0383,-6.0936,-6.1952,-6.4445,-6.5366,-6.6706,-6.9479,-7.0121,-7.0459,-7.0795,-7.0079,-7.0141,-7.1655,-7.1227,-7.0831,-7.0826,-7.0758,-7.0733,-7.0726,-7.0664,-7.0301,-6.9539,-7.066,-7.0601,-6.9176,-7.0179,-7.0723,-7.0708,-7.0358,-7.0185,-7.0185,-6.9985,-6.9834,-6.9737,-7.0256,-6.9928,-6.896,-6.8371,-6.8121,-6.8206,-6.8676,-6.8733,-6.8536,-6.8807,-6.9252,-6.9672,-3.2488,-3.2849,-3.3007,-3.2257,-3.1387,-3.0794,-3.0794,-3.1558,-3.2138,-3.2242,-3.3692,-3.4755,-3.4765,-3.5547,-3.6327,-3.7015,-3.8666,-4.0077,-4.105,-4.2772,-4.449,-4.6132,-4.7989,-4.9307,-5.0087,-5.0888,-5.13,-5.1285,-5.132,-5.1685,-5.2383,-5.2528,-5.3044,-5.3813,-5.3822,-5.3883,-5.4036,-5.404,-5.4021,-5.4008,-5.4103,-5.3574,-5.2728,-5.2812,-5.2226,-5.1402,-5.1394,-5.1393,-5.1397,-5.1403,-5.2494,-5.3734,-5.2957,-5.4278,-5.5972,-5.5089,-5.4808,-5.4925,-5.5569,-5.7448,-5.929,-5.9508,-6.0882,-6.1972,0.0,-6.103,-6.0888,-6.0113,-6.066,-6.1325,-6.1521,-6.2812,-6.3474,-6.2302,-6.4675,-6.6798,-6.7177,-6.8496,-7.0,-7.1477,-7.0965,-7.0793,-7.1698,-7.1737,-7.1647,-7.1576,-7.158,-7.1544,-7.1466,-7.1456,-7.1329,-7.1074,-7.1142,-7.1038,-7.0761,-7.0724,-7.0723,-7.0708,-7.0358,-7.0185,-7.0185,-6.9985,-6.9834,-6.9699,-6.947,-6.9228,-6.8861,-6.8444,-6.8284,-6.8308,-6.8767,-6.8871,-6.8999,-7.0315,-7.1112,-7.1417,-3.2925,-3.2732,-3.2538,-3.2147,-3.14,-3.0847,-3.0844,-3.1134,-3.1709,-3.2709,-3.3438,-3.4257,-3.5296,-3.5723,-3.6066,-3.6401,-3.7588,-3.8662,-3.9526,-4.1171,-4.2926,-4.4677,-4.6376,-4.7694,-4.8554,-4.9861,-5.0555,-5.0594,-5.1051,-5.1464,-5.1797,-5.1849,-5.2286,-5.3077,-5.2571,-5.2629,-5.3156,-5.3208,-5.2947,-5.253,-5.3055,-5.2718,-5.1946,-5.1951,-5.1405,-5.0703,-5.1238,-5.139,0.0,-5.1349,-5.2516,-5.3918,-5.3526,-5.484,-5.6458,-5.6039,-5.5911,-5.6137,-5.6961,-5.9044,-6.1019,-6.1066,-6.2395,-6.3635,-6.3243,-6.3183,-6.296,-6.2103,-6.2181,-6.2142,-6.1122,-6.1952,-6.2538,-6.1835,-6.3736,-6.5655,-6.667,-6.7824,-6.8973,-7.0185,-7.0068,-7.0364,-7.1653,-7.0925,-7.053,-7.0979,-7.1449,-7.1451,-7.086,-7.1323,-7.1494,-7.1302,-7.1236,-7.1142,-7.1005,-7.0787,-7.0654,-7.0593,-7.0341,-7.0149,-7.0096,-6.9967,-7.008,-7.0317,-6.952,-6.9334,-6.957,-6.915,-6.8976,-6.9098,-7.0052,-7.0432,-7.0478,-7.0922,-7.1165,-7.1211,-3.281,-3.2381,-3.203,-3.1797,-3.1287,-3.0892,-3.0885,-3.0825,-3.1241,-3.2505,-3.3067,-3.3992,-3.5771,-3.5914,-3.5904,-3.5904,-3.6713,-3.7561,-3.8429,-4.0115,-4.1872,-4.3624,-4.5318,-4.6589,-4.7483,-4.8911,-4.9691,-4.9701,-5.0314,-5.0735,-5.093,-5.0922,-5.1406,-5.2207,-5.158,-5.1671,-5.2278,-5.2328,-5.1984,-5.1445,-5.2085,-5.1977,-5.1358,-5.1128,-5.0817,-5.0546,-5.1161,-5.1236,-5.1088,-5.1258,-5.2537,-5.3984,-5.3935,-5.5095,-5.6488,-5.6517,-5.6812,-5.7385,-5.8297,-6.0379,-6.2382,-6.262,-6.3865,-6.494,-6.4661,-6.4634,-6.4331,-6.3237,-6.3002,-6.2455,-6.0729,-6.1092,-6.1601,-6.1367,-6.276,-6.4481,-6.6202,-6.6927,-6.7729,-6.8793,-6.8763,-6.9255,-7.0913,-7.0179,-6.9967,-7.0742,-7.1327,-7.1365,-7.0654,-7.1183,-7.1435,-7.1247,-7.119,-7.1093,-7.0952,-7.0772,-7.0624,-7.0531,-7.0302,-7.0167,-7.0039,-6.9929,-7.0059,-7.0424,-6.9574,-6.9409,-6.9757,-6.9608,-6.957,-6.9668,-7.0981,-7.1388,-7.1241,-7.1411,-7.1392,-7.1281,-3.1284,-3.1599,-3.1834,-3.1053,-3.0935,-3.0891,-3.0796,-3.0785,-3.081,-3.0864,-3.2343,-3.4021,-3.5736,-3.5892,-3.5889,-3.5889,-3.6707,-3.7552,-3.8453,-4.0112,-4.1873,-4.3604,-4.5326,-4.6622,-4.7466,-4.8397,-4.8826,-4.8748,-4.8826,-4.9294,-5.0034,-5.0053,-5.0498,-5.1349,-5.1292,-5.1353,-5.1435,-5.1438,-5.1403,-5.1414,-5.1425,-5.1429,-5.1313,-5.0459,-5.0662,-5.1366,-5.14,-5.0856,-5.0273,-5.1114,-5.2576,-5.3969,-5.393,-5.5101,-5.65,-5.6507,-5.765,-5.9127,-6.0067,-6.2184,-6.4333,-6.5169,-6.6102,-6.659,-6.5731,-6.5544,-6.5078,-6.3359,-6.3008,-6.2461,-6.0701,-6.1094,-6.1404,-6.0583,-6.1902,-6.3635,-6.5305,-6.5549,-6.6209,-6.7842,-6.7368,-6.7512,0.0,-6.998,-7.0774,-7.1499,-7.1607,-7.1523,-7.1386,-7.1334,-7.1247,-7.1106,-7.1043,-7.0939,-7.0801,-7.0752,-7.0662,-7.0569,-7.0408,-7.0272,-7.0167,-6.9854,-6.9697,-6.9614,-6.931,-6.9109,-6.8973,-6.9458,-6.9694,-6.983,-7.1045,-7.1111,-7.0676,-7.1957,-7.2343,-7.2292,-3.1166,-3.152,-3.2028,-3.1756,-3.2183,-3.2565,-3.2511,-3.2026,-3.2093,-3.3226,-3.4343,0.0,0.0,0.0,0.0,0.0,-3.6177,-3.6944,-3.8406,-3.9045,-4.066,-4.3515,-4.4174,-4.5141,-4.6612,-4.7502,-4.7916,-4.7885,-4.85,-4.8954,-4.9216,-4.9184,-4.9351,-4.9673,-5.0235,-5.0525,-5.0579,-5.1141,-5.1382,-5.1385,-5.1393,-5.1398,-5.1363,-5.1054,-5.078,-5.0618,0.0,-5.1189,-5.0998,-5.1235,-5.2509,-5.3916,-5.3916,-5.512,-5.6627,-5.7201,-5.9006,-6.0854,-6.113,-6.3088,-6.5127,-6.5442,-6.6168,-6.677,-6.6455,-6.6431,-6.5972,-6.4217,-6.3397,-6.2303,-6.0037,-6.0273,-6.0543,-5.9681,-6.1504,-6.3388,-6.447,-6.5129,-6.5897,-6.7019,-6.7374,0.0,0.0,0.0,0.0,-7.0654,-7.074,-7.0667,-7.0534,-7.0472,-7.0656,-7.1106,-7.0542,-7.04,-7.0787,-7.0714,-7.0609,-7.0451,-7.0217,-7.0076,-7.0039,-6.9815,-6.964,-6.9577,-6.931,-6.9072,-6.8935,-6.9591,-7.0103,-7.0573,-7.1336,-7.1847,-7.2179,-7.2426,-7.2467,-7.2409,0.0,-3.171,-3.2219,-3.2494,-3.3036,0.0,0.0,0.0,0.0,0.0,0.0,0.0,0.0,0.0,0.0,0.0,0.0,-3.666,-3.8385,-3.8482,-3.9904,-4.3042,-4.3436,-4.4258,-4.5698,-4.6593,-4.7051,-4.7025,-4.7604,-4.8017,-4.8347,-4.8359,-4.8518,-4.883,-4.9396,-4.9803,-5.0127,-5.0686,-5.1122,-5.1399,-5.1402,-5.1405,-5.1367,-5.1053,-5.077,0.0,-5.0781,-5.1079,-5.1369,-5.1674,-5.2734,-5.3991,-5.4287,-5.5525,-5.712,-5.7977,-5.9872,-6.1726,-6.1989,-6.3744,-6.5581,-6.59,-6.6391,-6.6717,-6.6405,-6.6379,-6.592,-6.4167,-6.3116,-6.1829,-5.9563,-5.9609,-5.9759,-5.9206,-6.1258,-6.3257,-6.4068,-6.4965,-6.5693,-6.6185,-6.6964,-6.7798,0.0,0.0,0.0,-7.0628,-7.0425,-7.0302,-7.0472,-7.0397,-7.0575,-7.1068,-7.017,-7.0025,-7.0758,-7.0401,-7.0256,-7.0402,-7.0182,-7.0058,-7.0039,-6.9815,-6.9828,-6.9992,-6.9423,-6.9259,-6.9346,-6.9751,-7.0127,-7.0499,-7.1057,-7.18,-7.2512,-7.2206,-7.2275,-7.2467,0.0,0.0,-3.248,0.0,0.0,0.0,0.0,0.0,0.0,0.0,0.0,0.0,0.0,0.0,0.0,0.0,0.0,0.0,-3.8383,-3.85,-3.9658,-4.2289,-4.3157,-4.4022,-4.4881,-4.5819,-4.6246,-4.6196,-4.6235,-4.6655,-4.7416,-4.7455,-4.7882,-4.866,-4.8701,-4.9189,-4.9952,-5.0031,-5.0544,-5.1328,-5.1328,-5.1367,-5.1326,-5.0461,-5.0627,-5.12,-5.0421,-5.0615,-5.1346,-5.237,-5.3298,-5.4195,-5.5077,-5.6441,-5.7942,-5.8831,-6.0329,-6.1904,-6.2723,-6.4228,-6.5736,-6.6576,-6.6805,-6.6556,-6.5697,-6.5507,-6.5002,-6.3243,-6.216,-6.1037,-5.9395,-5.9023,-5.9011,-5.9158,-6.1244,-6.3166,-6.4103,-6.5008,-6.555,-6.5465,-6.6254,-6.713,-6.7891,-6.8663,0.0,-7.13,0.0,-7.0318,-7.0981,-7.0888,-7.0851,-7.0889,-6.991,-6.9745,-7.0569,-6.9712,-6.9658,-7.0342,-7.0234,-7.0185,-7.0185,-6.9835,-7.0093,-7.0726,-6.9686,-6.9522,-7.0079,-6.99,-6.9793,-6.9756,-7.0243,-7.0951,-7.1672,-7.1369,-7.1835,-7.2467,0.0,0.0,0.0,0.0,0.0,0.0,0.0,0.0,0.0,0.0,0.0,0.0,0.0,0.0,0.0,0.0,0.0,0.0,-3.8323,-3.8429,-3.9585,-4.2217,-4.312,-4.4002,-4.4893,-4.6394,-4.6834,-4.621,-4.6905,-4.7008,-4.6518,-4.6566,-4.6718,-4.6896,-4.7584,-4.7984,-4.8221,-4.8903,-4.9726,-5.0507,-5.0465,-5.0812,-5.1358,-5.1118,-5.1115,-5.1253,-5.1069,-5.1125,-5.1412,-5.2386,-5.3688,-5.5159,-5.6597,-5.7857,-5.8897,-5.979,-6.1697,-6.3557,-6.3735,-6.5036,-6.6379,-6.6596,-6.6663,-6.6454,-6.5597,-6.5461,-6.4997,-6.3243,-6.1748,-6.039,-5.9375,-5.8122,-5.7833,-5.9706,-6.1095,-6.2664,-6.4727,-6.5767,-6.6307,-6.6303,-6.756,-6.8497,-6.8707,-6.9451,0.0,0.0,-6.9613,-6.8945,-6.8485,-6.8251,-6.8462,-6.9129,-6.8179,-6.8032,-6.8843,-6.9115,-6.9327,-6.9502,-6.9967,-7.0185,-7.0167,-6.9815,-7.005,-7.0726,-6.9665,-6.9559,-7.0042,-6.9398,-6.9368,-6.9682,-6.9651,-7.0471,-7.1672,-7.1369,-7.1835,-7.2467,0.0,0.0,0.0,0.0,0.0,0.0,0.0,0.0,0.0,0.0,0.0,0.0,0.0,0.0,0.0,0.0,0.0,0.0,0.0,-3.8389,-3.9388,-4.1629,-4.2918,-4.3828,-4.4322,-4.6045,-4.6887,-4.6779,-4.6953,-4.6755,-4.6244,-4.5888,-4.5728,-4.5683,-4.6238,-4.6867,-4.7572,-4.8125,-4.8828,0.0,0.0,-4.9825,-5.0287,-5.0621,-5.0731,-5.0785,-5.1156,-5.1554,-5.1982,-5.2898,-5.4585,-5.6535,-5.7836,-5.8897,-5.9814,-6.0672,-6.2469,-6.4189,-6.4138,-6.5372,-6.6683,-6.6707,-6.641,-6.5883,-6.5065,-6.4609,-6.3865,-6.2108,-6.1007,-6.0117,-5.9297,-5.8662,-5.8785,-6.0581,-6.1907,-6.3302,-6.5037,-6.6037,-6.6601,-6.6546,-6.7689,-6.8466,-6.8398,-6.9147,-6.945,0.0,-6.9146,-6.89,-6.7972,-6.8191,-6.8334,-6.8424,-6.7459,-6.7156,-6.7538,-6.8632,-6.9196,-6.9196,-6.9891,-7.0185,-7.0167,-6.9834,-7.0259,-7.1254,0.0,-7.0128,-7.0565,-6.9743,-6.9317,-6.9125,-6.8874,-6.9769,-7.1119,-7.0882,-7.1505,-7.2467,0.0,0.0,0.0,0.0,0.0,0.0,0.0,0.0,0.0,0.0,-3.5713,-3.5699,-3.5699,-3.5704,0.0,0.0,0.0,0.0,0.0,0.0,-3.9303,-4.0924,-4.2677,-4.3572,-4.3615,-4.5423,-4.6688,-4.734,-4.6656,-4.6243,-4.6126,-4.5234,-4.4843,-4.4844,-4.496,-4.5859,-4.7264,-4.738,-4.7925,-4.8701,-4.8654,-4.8718,-4.8891,0.0,-4.9983,-5.0091,-5.0992,-5.1877,-5.271,-5.3541,-5.5419,-5.7555,-5.868,-5.9503,-6.0326,-6.13,-6.2812,-6.4201,-6.4201,-6.5371,-6.6615,-6.6607,-6.596,-6.5039,-6.406,-6.3263,-6.2228,-6.0508,-6.0146,-5.9882,-5.9062,-5.9587,-6.0421,-6.1307,-6.2723,-6.4136,-6.5129,-6.5946,-6.6425,-6.6462,-6.7262,-6.7734,-6.7617,-6.8267,-6.8394,-6.7629,-6.8812,-6.9135,-6.8205,-6.8809,-6.8806,-6.7969,-6.7132,-6.6634,-6.6522,-6.8088,-6.8929,-6.9043,-6.9718,-7.0088,-7.0185,-6.9854,-7.0546,-7.1954,0.0,0.0,-7.1237,-7.0415,-6.949,-6.8481,-6.8345,-6.9204,-7.0454,-7.0358,-7.1239,-7.2496,0.0,0.0,0.0,0.0,0.0,0.0,0.0,0.0,0.0,0.0,-3.5653,-3.5669,0.0,0.0,0.0,0.0,0.0,0.0,0.0,0.0,0.0,-4.0941,-4.2637,-4.3549,-4.3594,-4.6005,-4.7,-4.6433,-4.635,-4.5932,-4.5193,-4.4336,-4.3945,-4.3945,-4.4687,-4.5155,-4.5506,-4.6203,-4.7019,-4.7836,-4.7732,-4.8145,-4.8878,-4.9703,0.0,0.0,-5.0979,-5.1877,-5.2727,-5.3584,-5.4663,-5.6031,-5.8272,-5.9113,-5.9533,-6.1127,-6.2812,-6.4181,-6.412,-6.4851,-6.5616,-6.5504,-6.4905,-6.392,-6.2274,-6.1849,-6.1336,-5.9573,-5.9258,-5.904,-5.8181,-5.8748,-5.9573,-6.0378,-6.1364,-6.2764,-6.4913,-6.5358,-6.5685,-6.6342,-6.7143,-6.761,-6.76,-6.7745,0.0,0.0,0.0,-6.7398,-6.6394,-6.6423,-6.6329,-6.6011,-6.5829,-6.5709,-6.5643,-6.6636,-6.7477,-6.8126,-6.8869,-6.9569,-7.0185,-6.9854,-7.0546,-7.1933,0.0,0.0,-7.1237,-7.0415,-6.949,-6.8556,-6.9038,-6.9762,-7.0555,-7.1057,-7.1801,-7.2496,0.0,0.0,0.0,0.0,0.0,0.0,-3.4168,-3.4643,-3.5089,-3.5501,-3.5564,-3.5581,-3.5581,-3.567,-3.5687,0.0,0.0,0.0,0.0,0.0,0.0,-4.09,-4.2149,-4.3061,-4.3557,-4.5276,-4.6352,-4.6826,0.0,-4.5418,-4.4987,-4.363,-4.3006,-4.3044,-4.3939,-4.4562,-4.5066,-4.5926,-4.6509,-4.6892,-4.7344,-4.776,-4.8248,-4.9508,0.0,0.0,-5.1117,-5.1546,-5.2061,-5.2925,-5.3779,-5.4956,-5.7507,-5.8957,-5.9832,-6.0664,-6.2149,-6.3518,-6.353,-6.415,-6.4757,-6.4695,-6.4072,-6.315,-6.1833,-6.1242,-6.0498,-5.8746,-5.8743,-5.8829,-5.7965,-5.8841,-5.9981,-6.0832,-6.17,-6.293,-6.4923,-6.518,-6.5312,-6.5683,-6.6075,-6.6281,-6.6264,-6.6235,-6.636,-6.6607,0.0,-6.6414,-6.5859,-6.5728,-6.5618,-6.5494,-6.5465,-6.542,-6.5413,-6.6254,-6.6904,-6.7286,-6.845,-6.9167,-6.9538,-6.9702,-7.038,-7.1329,0.0,0.0,-7.1274,-7.0792,-7.0275,-6.9781,-7.0027,-7.058,-7.1252,-7.1443,-7.1968,-7.2582,0.0,0.0,0.0,0.0,0.0,0.0,-3.3904,-3.4186,-3.4539,-3.5341,-3.5463,-3.5522,-3.5554,-3.5653,-3.5714,0.0,0.0,0.0,0.0,0.0,0.0,0.0,0.0,0.0,0.0,0.0,0.0,-4.7124,-4.5494,0.0,0.0,0.0,0.0,0.0,-4.3031,-4.3925,-4.4777,-4.5651,-4.6078,0.0,0.0,-4.7374,0.0,0.0,0.0,0.0,0.0,-5.1265,-5.1427,-5.2302,-5.3163,-5.427,-5.6472,-5.8334,-5.9819,-6.0187,-6.1404,-6.2668,-6.2893,-6.3439,-6.39,-6.3907,-6.312,-6.2187,-6.1522,-6.0728,-5.9686,-5.8121,-5.8495,-5.8783,-5.7716,-5.8897,-6.027,-6.094,-6.1718,-6.2905,-6.4683,-6.476,-6.4808,-6.5252,-6.517,-6.5153,-6.5199,-6.5073,0.0,0.0,0.0,0.0,-6.5742,-6.559,-6.5479,-6.5479,-6.5444,-6.549,-6.5681,-6.6178,-6.6598,-6.698,-6.8177,-6.8803,-6.8929,-6.9568,-7.023,-7.0763,0.0,0.0,0.0,-7.1168,-7.1045,-7.0895,-7.1005,-7.1372,-7.1886,-7.183,-7.2199,-7.2695,0.0,0.0,0.0,0.0,0.0,0.0,-3.3743,-3.4036,-3.4335,-3.5208,-3.5427,-3.5507,-3.5514,-3.5579,-3.5893,0.0,0.0,0.0,0.0,0.0,0.0,0.0,0.0,0.0,0.0,0.0,0.0,-4.6228,-4.4565,0.0,0.0,0.0,0.0,0.0,0.0,-4.2989,-4.3881,-4.4748,0.0,0.0,0.0,0.0,0.0,0.0,0.0,0.0,0.0,-5.1292,-5.1427,-5.2302,-5.3163,-5.4075,-5.5104,-5.658,-5.826,-5.9858,-6.0967,-6.1881,-6.2703,-6.2949,-6.2992,-6.2951,-6.1708,-6.052,-6.0467,-5.9812,-5.8941,-5.8007,-5.8494,-5.8574,-5.6917,-5.7992,-5.9135,-5.9241,-5.9965,-6.1361,-6.3674,-6.3401,-6.3658,-6.5666,-6.5497,-6.5377,-6.5759,-6.5306,-6.4967,0.0,0.0,0.0,0.0,-6.5465,-6.5429,-6.5429,-6.5413,-6.5796,-6.656,-6.5872,-6.6292,-6.7782,-6.7935,-6.8335,-6.8929,-6.953,-7.0154,-7.0801,0.0,0.0,0.0,-7.1168,-7.1045,-7.097,-7.1775,-7.1969,-7.1987,-7.263,-7.2798,-7.2695,0.0,0.0,0.0,0.0,0.0,0.0,-3.4503,-3.471,-3.484,-3.5192,-3.5753,-3.5906,-3.5429,-3.5888,-3.636,-3.6768,-3.6862,0.0,0.0,0.0,0.0,0.0,0.0,0.0,0.0,0.0,-4.4422,-4.5312,-4.4166,0.0,0.0,0.0,0.0,0.0,0.0,-4.2864,-4.3764,-4.4634,0.0,0.0,0.0,0.0,0.0,0.0,0.0,0.0,0.0,0.0,-5.0683,-5.1522,-5.2387,-5.3256,-5.413,-5.5241,-5.6556,-5.8272,-5.9385,-6.0118,-6.0513,-6.0577,-6.0543,-6.0538,-6.0027,-5.9389,-5.8914,-5.8543,-5.8085,-5.7203,-5.7292,-5.7307,-5.6627,-5.7428,-5.8373,-5.886,-5.9655,-6.0851,-6.2843,-6.2859,-6.3114,-6.4356,-6.4414,-6.453,0.0,0.0,0.0,0.0,0.0,0.0,0.0,-6.5435,-6.5413,-6.5413,-6.5413,-6.5834,-6.6713,-6.5834,-6.5987,-6.7171,-6.7171,-6.7496,-6.815,-6.8825,-6.9493,-7.0105,0.0,0.0,0.0,-7.1389,-7.1566,-7.1268,-7.2483,-7.2864,-7.2822,-7.2953,-7.2955,-7.2872,0.0,0.0,0.0,0.0,0.0,-3.3815,-3.4928,-3.4907,-3.4857,-3.5149,-3.5717,-3.5873,-3.5362,-3.5829,-3.645,-3.7053,-3.673,0.0,0.0,0.0,0.0,0.0,0.0,0.0,0.0,0.0,-4.3525,-4.4399,-4.358,-4.3626,0.0,0.0,-4.1807,-4.2401,0.0,0.0,0.0,0.0,0.0,0.0,0.0,0.0,0.0,0.0,0.0,0.0,0.0,0.0,0.0,0.0,0.0,-5.2703,-5.3311,-5.4284,-5.5533,-5.7253,-5.8178,-5.8757,-5.9304,-5.9407,-5.9453,-5.9697,-5.9381,-5.8928,-5.8628,-5.8164,-5.7614,-5.7016,-5.6875,-5.6822,-5.6535,-5.694,-5.7644,-5.8715,-5.9329,-6.0363,-6.2315,-6.2555,-6.2775,-6.3487,0.0,-6.4097,0.0,-6.4293,0.0,0.0,0.0,0.0,0.0,-6.5365,-6.5444,-6.5413,-6.5413,-6.5834,-6.6713,-6.6101,-6.6101,-6.6713,-6.6942,-6.7267,-6.7618,-6.8367,-6.8887,0.0,0.0,0.0,0.0,-7.1115,-7.1751,-7.1451,-7.2843,-7.3398,-7.3346,-7.3091,-7.2982,-7.2955,0.0,0.0,0.0,0.0,0.0,-3.2993,-3.4745,-3.4262,-3.4035,-3.4969,-3.5092,-3.5145,-3.5277,-3.5331,-3.6013,-3.7755,-3.6447,0.0,0.0,0.0,0.0,0.0,0.0,0.0,-4.2072,-4.2117,-4.2538,-4.343,-4.2617,-4.268,-4.3502,-4.2735,-4.2371,-4.2457,0.0,0.0,0.0,0.0,0.0,0.0,0.0,0.0,0.0,0.0,0.0,0.0,0.0,0.0,0.0,0.0,0.0,0.0,0.0,-5.3816,-5.5536,-5.7224,-5.7757,-5.816,-5.9841,-6.0309,-6.0503,-6.1358,-6.0267,-5.9256,-6.0155,-5.9053,-5.7787,-5.7804,-5.7772,-5.751,-5.6648,-5.6459,-5.6957,-5.8641,-5.8803,-5.9592,-6.215,-6.2373,-6.2636,0.0,-6.4299,-6.4381,-6.357,0.0,0.0,0.0,0.0,0.0,0.0,-6.5161,-6.5465,-6.5413,-6.5413,-6.5834,-6.6713,-6.6713,-6.6713,-6.6713,-6.7515,-6.7801,-6.7618,-6.8367,0.0,0.0,0.0,0.0,0.0,-7.0219,-7.1192,-7.1451,-7.2843,-7.3398,-7.3346,-7.3091,-7.2982,-7.2955,0.0,0.0,0.0,0.0,0.0,0.0,-3.4793,-3.4632,-3.4576,-3.4908,-3.5486,-3.5685,-3.5221,-3.6218,-3.6948,-3.693,-3.655,0.0,0.0,0.0,0.0,0.0,0.0,0.0,-4.1186,-4.1806,-4.2243,-4.2499,-4.2291,-4.2965,-4.4374,-4.2967,-4.2964,-4.4083,-4.3812,-4.4018,0.0,0.0,0.0,0.0,0.0,0.0,0.0,0.0,0.0,0.0,0.0,0.0,0.0,0.0,0.0,0.0,0.0,0.0,0.0,-5.5664,-5.6445,-5.703,-5.7577,-5.7695,-5.7773,-5.8046,-5.7693,-5.7383,-5.7683,-5.7324,-5.6922,-5.6904,-5.6917,-5.6827,-5.6554,-5.6437,-5.6942,-5.8626,-5.8843,-5.9413,-6.122,-6.194,0.0,-6.3252,-6.4547,-6.5063,0.0,0.0,0.0,0.0,0.0,0.0,0.0,0.0,-6.5494,-6.5465,-6.5405,-6.5834,-6.6713,-6.6101,-6.6101,-6.6713,-6.633,-6.6726,-6.774,-6.7922,0.0,0.0,0.0,0.0,0.0,-7.0134,-7.0303,-6.9139,-7.1603,-7.2221,-7.1798,-7.2684,-7.2613,-7.2152,0.0,0.0,0.0,0.0,0.0,0.0,-3.4737,-3.4737,-3.4768,-3.4811,-3.5322,-3.5475,-3.5068,-3.631,-3.7089,-3.6978,-3.737,0.0,0.0,0.0,0.0,0.0,0.0,0.0,-4.0726,-4.128,-4.157,-4.1555,-4.1651,-4.2558,-4.4234,-4.3225,-4.3502,-4.4865,-4.4727,-4.4792,0.0,0.0,0.0,0.0,0.0,0.0,-4.7573,0.0,0.0,0.0,0.0,0.0,0.0,0.0,0.0,0.0,0.0,0.0,0.0,0.0,-5.5106,-5.5653,-5.6302,-5.6735,-5.7055,-5.7409,-5.7217,-5.6978,-5.699,-5.6745,-5.65,-5.6488,-5.6511,-5.6503,-5.6455,-5.6352,-5.6846,-5.8563,-5.875,-5.9281,-6.0915,-6.1998,0.0,-6.3857,0.0,0.0,0.0,0.0,0.0,0.0,0.0,0.0,0.0,0.0,-6.5939,-6.6035,-6.5626,-6.5643,-6.6216,-6.5987,-6.5987,-6.6216,-6.6292,-6.6857,-6.7828,0.0,0.0,0.0,0.0,0.0,0.0,-6.9791,-6.9827,-6.8474,-7.076,-7.129,-7.0905,-7.1716,-7.1645,-7.1212,0.0,0.0,0.0,0.0,0.0,0.0,0.0,-3.4583,-3.4604,-3.4695,-3.4706,-3.473,-3.4889,-3.579,-3.6711,-3.7618,-3.8559,0.0,0.0,0.0,0.0,0.0,0.0,-3.9778,-4.0595,-4.0584,-4.0636,-4.072,-4.0822,-4.1761,-4.3391,-4.3515,-4.4029,-4.4911,-4.579,-4.5802,-4.5134,-4.5966,-4.6284,-4.6364,-4.7128,-4.7396,0.0,0.0,0.0,0.0,0.0,0.0,0.0,0.0,0.0,0.0,0.0,0.0,0.0,0.0,0.0,0.0,0.0,-5.6964,-5.7825,-5.8702,-5.8304,-5.7712,-5.7726,-5.7081,0.0,-5.6488,-5.6476,-5.6498,-5.6471,-5.6329,-5.6788,-5.8583,-5.8737,-5.9241,-6.1089,-6.2302,0.0,0.0,-6.428,0.0,0.0,0.0,0.0,0.0,0.0,0.0,0.0,0.0,0.0,-6.6782,-6.5886,-6.5413,-6.5413,-6.6216,-6.6178,-6.5337,-6.7018,-6.7735,-6.7654,0.0,0.0,0.0,0.0,0.0,0.0,-6.914,-6.9528,-6.9035,-7.0177,-7.0594,-7.0506,-7.0364,-7.0256,-7.0192,0.0,0.0,0.0,0.0,0.0,0.0,0.0,0.0,0.0,0.0,-3.4685,-3.4758,-3.4878,-3.6225,-3.7252,0.0,0.0,0.0,0.0,0.0,0.0,0.0,-3.9427,-3.9711,-4.0595,-4.0023,-4.0036,-4.072,-4.1377,-4.2285,-4.343,-4.409,-4.4924,-4.5806,-4.6063,-4.6123,-4.6005,-4.6153,-4.6233,-4.6238,-4.6415,-4.6528,0.0,0.0,0.0,0.0,-4.8577,-4.8926,0.0,0.0,0.0,0.0,0.0,0.0,0.0,0.0,-5.3862,-5.4855,-5.4566,0.0,-5.6004,-5.6909,-5.6956,-5.6804,0.0,-5.664,-5.648,-5.6411,-5.6402,-5.6626,-5.7214,-5.7139,-5.762,-5.9574,-5.9699,-5.9886,-6.076,-6.1643,0.0,-6.3475,-6.4049,0.0,0.0,0.0,0.0,0.0,0.0,0.0,0.0,0.0,0.0,-6.5829,-6.555,-6.5413,-6.5413,-6.5605,-6.5299,-6.4496,-6.6178,-6.6621,-6.6017,0.0,0.0,0.0,0.0,0.0,-6.6938,-6.78,-6.8099,-6.8062,-6.9298,-6.942,-6.8962,-6.9958,-6.9925,-6.9456,0.0,0.0,0.0,0.0,0.0,0.0,0.0,0.0,0.0,0.0,-3.5227,-3.5275,-3.5385,-3.6952,-3.7867,0.0,0.0,0.0,0.0,0.0,0.0,-3.9284,-3.9261,-3.9706,-4.0537,-4.0559,-4.0581,-4.0654,-4.1931,-4.2821,-4.3382,-4.4294,-4.517,-4.6047,-4.6151,-4.6253,-4.6282,-4.6279,-4.6243,-4.6247,-4.6241,0.0,0.0,0.0,0.0,0.0,-4.7889,-4.8474,0.0,-4.9803,-5.0351,-5.0819,0.0,0.0,0.0,0.0,-5.3291,-5.3553,-5.4281,-5.4823,-5.5411,-5.6273,-5.6515,-5.6519,-5.6507,-5.6515,-5.6476,-5.645,-5.6437,-5.6539,-5.6975,-5.721,-5.7823,-5.9216,-5.9645,0.0,0.0,0.0,-6.2068,-6.2804,0.0,0.0,0.0,0.0,0.0,0.0,0.0,0.0,0.0,0.0,0.0,0.0,-6.5635,-6.5413,-6.5413,-6.5413,-6.5184,-6.4764,-6.6063,-6.6445,-6.6063,0.0,0.0,0.0,0.0,0.0,-6.7464,-6.7538,-6.7838,-6.824,-6.8668,-6.8604,-6.8294,-6.8857,-6.885,-6.8492,0.0,0.0,0.0,0.0,0.0,0.0,0.0,0.0,0.0,0.0,0.0,0.0,0.0,0.0,0.0,0.0,0.0,0.0,0.0,0.0,0.0,-3.9215,-3.9254,-3.9662,-4.0485,-4.1278,-4.14,-4.0795,-4.2553,-4.3438,-4.3518,-4.4465,-4.5309,-4.6027,-4.6287,-4.642,-4.6517,-4.6482,-4.6484,-4.6483,-4.6367,0.0,0.0,0.0,0.0,0.0,0.0,0.0,0.0,-4.9606,-5.0457,-5.1146,-5.1321,0.0,0.0,0.0,0.0,0.0,-5.4511,-5.5095,-5.5212,-5.607,-5.6377,-5.6455,-5.6455,-5.6455,-5.6459,-5.6459,-5.6441,-5.6456,-5.6542,-5.7112,-5.7807,-5.8698,-5.936,0.0,-6.122,-6.1425,-6.1729,-6.2391,0.0,0.0,0.0,0.0,0.0,0.0,0.0,0.0,0.0,0.0,0.0,0.0,-6.578,-6.5398,-6.5398,-6.5413,-6.5337,-6.5222,-6.6216,-6.656,-6.6369,-6.7147,0.0,0.0,0.0,0.0,-6.7977,-6.771,-6.8114,-6.8814,-6.8272,-6.807,-6.8018,-6.7794,-6.7687,-6.7687,0.0,0.0,0.0,0.0,0.0,0.0,0.0,0.0,0.0,0.0,0.0,0.0,0.0,0.0,0.0,0.0,0.0,0.0,0.0,0.0,0.0,-3.9158,-3.9161,-3.9638,-4.0561,-4.0654,-4.1077,-4.1794,-4.3455,-4.4327,-4.4407,-4.5305,-4.5847,-4.6138,-4.6935,-4.7325,-4.7415,-4.7382,-4.7383,-4.7344,-4.6601,0.0,0.0,0.0,0.0,0.0,0.0,0.0,0.0,-4.8712,-4.9562,-5.0408,-5.1093,0.0,0.0,0.0,0.0,0.0,-5.4706,-5.4667,-5.4308,-5.5127,-5.5818,-5.6324,-5.6324,-5.6324,-5.6329,-5.6393,-5.6417,-5.662,-5.7286,-5.7807,-5.8528,-5.9692,-6.0181,-6.0535,0.0,0.0,-6.0756,0.0,0.0,0.0,0.0,0.0,0.0,0.0,0.0,0.0,0.0,0.0,0.0,0.0,0.0,-6.5305,-6.5305,-6.5383,-6.507,-6.4397,-6.5948,-6.5948,-6.4611,-6.5966,-6.6104,0.0,0.0,-6.6402,-6.7046,-6.7463,-6.8031,-6.8697,-6.8247,-6.8018,-6.7926,-6.7767,-6.7687,-6.766,0.0,0.0,0.0,0.0,0.0,0.0,0.0,0.0,0.0,0.0,0.0,0.0,0.0,0.0,0.0,0.0,0.0,0.0,0.0,-4.007,-4.0198,-3.9832,-3.9882,-4.0138,-4.0607,-4.1463,-4.1932,-4.1983,-4.4165,-4.4998,-4.4628,-4.5538,-4.5991,-4.6154,-4.7081,-4.7553,-4.7611,-4.7614,-4.7616,-4.7539,0.0,0.0,0.0,0.0,0.0,0.0,0.0,0.0,0.0,0.0,-5.0043,-5.08,-5.1193,0.0,0.0,0.0,0.0,0.0,-5.3463,-5.3502,-5.3373,-5.4217,-5.5385,-5.6368,-5.6352,-5.6675,-5.6801,-5.6335,-5.655,-5.6791,-5.6715,-5.7284,-5.819,-5.9541,0.0,-6.0297,-6.0213,0.0,0.0,0.0,0.0,0.0,0.0,0.0,0.0,0.0,0.0,0.0,0.0,0.0,0.0,0.0,0.0,-6.4949,-6.454,-6.5045,-6.5146,-6.484,-6.5643,-6.5605,-6.4879,-6.5471,-6.5441,0.0,0.0,-6.5497,-6.6078,-6.6244,-6.6679,-6.7202,-6.6926,-6.6997,-6.731,-6.7594,-6.766,-6.7552,0.0,0.0,0.0,0.0,0.0,0.0,0.0,0.0,0.0,0.0,0.0,0.0,0.0,0.0,0.0,0.0,0.0,0.0,0.0,-4.0281,-4.0381,-4.0407,-4.0441,-4.0592,-4.0892,-4.2356,-4.295,-4.2602,-4.4735,-4.5483,-4.4925,-4.5658,-4.6056,-4.6146,-4.707,-4.7545,-4.7611,-4.7612,-4.7615,-4.7539,0.0,0.0,0.0,0.0,0.0,0.0,0.0,0.0,0.0,0.0,0.0,0.0,0.0,0.0,0.0,-5.2606,-5.2138,-5.1593,-5.2879,-5.3065,-5.3087,-5.3911,-5.5122,-5.6184,-5.6586,-5.7106,-5.7281,-5.6562,-5.6877,-5.6975,-5.6084,-5.667,-5.7746,-5.9092,-5.9649,-5.987,0.0,0.0,0.0,0.0,0.0,0.0,0.0,0.0,0.0,0.0,0.0,0.0,0.0,0.0,0.0,0.0,0.0,0.0,-6.3889,-6.4726,-6.5226,-6.5383,-6.5383,-6.5383,-6.5383,-6.5242,-6.5061,-6.4835,-6.486,-6.5063,-6.5394,-6.5475,-6.5665,-6.597,-6.6013,-6.6432,-6.7053,-6.7573,-6.7633,-6.747,0.0,0.0,0.0,0.0,0.0,0.0,0.0,0.0,0.0,0.0,0.0,0.0,0.0,0.0,0.0,0.0,0.0,0.0,0.0,-4.0177,-4.0271,-4.0407,-4.0407,-4.0844,-4.1784,-4.268,-4.3543,-4.4415,-4.5349,-4.5782,-4.5822,-4.5929,-4.6046,-4.6122,-4.7075,-4.7553,-4.7611,-4.7614,-4.7615,-4.7538,-4.664,0.0,0.0,0.0,0.0,0.0,0.0,0.0,0.0,0.0,0.0,0.0,0.0,0.0,-5.1632,-5.3307,-5.2606,-5.1826,-5.4355,-5.4363,-5.3901,-5.4787,-5.5083,-5.5613,-5.717,-5.7444,-5.7409,-5.7411,-5.7444,-5.7155,-5.6102,-5.6607,-5.7559,-5.8687,-5.9095,0.0,0.0,0.0,0.0,0.0,0.0,0.0,0.0,0.0,0.0,0.0,0.0,0.0,0.0,0.0,0.0,0.0,0.0,0.0,-6.3828,-6.4626,-6.5128,-6.529,-6.529,-6.529,-6.529,-6.5248,-6.5027,-6.4763,-6.5427,-6.559,-6.5432,-6.6051,-6.6141,-6.5888,-6.6692,-6.7319,-6.7826,-6.7863,-6.7714,-6.7534,0.0,0.0,0.0,0.0,0.0,0.0,0.0,0.0,0.0,0.0,0.0,0.0,0.0,0.0,0.0,0.0,0.0,0.0,-4.0027,-4.0148,-4.0252,-4.0325,-4.0419,-4.09,-4.1861,-4.2703,-4.3342,-4.384,-4.5183,-4.5834,-4.5827,-4.5912,-4.6008,-4.616,-4.7057,-4.7498,-4.7606,-4.7611,-4.7613,-4.7535,-4.6637,-4.6289,0.0,0.0,0.0,0.0,0.0,0.0,0.0,0.0,-4.9457,-5.1203,-5.0657,-5.0852,-5.1437,-5.2099,-5.1826,-5.1515,-5.2528,-5.2901,-5.3238,-5.409,-5.4694,-5.553,-5.7209,-5.785,-5.7929,-5.7357,-5.7628,-5.7516,-5.6097,-5.6357,-5.7085,-5.8075,0.0,0.0,0.0,0.0,0.0,0.0,0.0,0.0,0.0,0.0,0.0,0.0,0.0,0.0,0.0,0.0,0.0,0.0,0.0,0.0,0.0,-6.3462,-6.3947,-6.3568,-6.4747,-6.529,-6.529,-6.5248,-6.5078,-6.4868,-6.4992,-6.4914,-6.4711,-6.4802,-6.4674,-6.455,-6.5681,-6.6208,-6.6537,-6.7453,-6.7606,-6.7294,0.0,0.0,0.0,0.0,0.0,0.0,0.0,0.0,0.0,0.0,0.0,0.0,0.0,0.0,0.0,0.0,0.0,0.0,-3.9996,-4.0128,-4.0234,-4.0307,-4.0444,-4.0816,-4.1499,-4.2309,-4.296,-4.3394,-4.4828,-4.5622,-4.5821,-4.59,-4.5953,-4.6108,-4.6722,-4.7053,-4.7207,-4.7174,-4.7176,-4.7139,-4.6558,-4.6289,0.0,0.0,0.0,0.0,0.0,0.0,0.0,0.0,-4.8974,-5.0801,-5.0174,-5.0404,-5.0992,-5.1542,-5.1486,-5.1273,-5.162,-5.226,-5.3044,-5.3643,-5.4829,-5.6242,-5.7698,-5.8265,-5.8365,-5.8007,-5.786,-5.7434,-5.6295,-5.6113,-5.6406,0.0,0.0,0.0,0.0,0.0,0.0,0.0,0.0,0.0,0.0,0.0,0.0,0.0,0.0,0.0,0.0,0.0,0.0,0.0,0.0,0.0,0.0,-6.2534,-6.2968,-6.2487,-6.3791,-6.4578,-6.4829,-6.503,-6.5061,-6.4886,-6.4708,-6.4462,-6.4224,-6.3979,-6.3891,-6.3993,-6.4783,-6.5248,-6.5591,-6.6617,-6.6929,-6.6809,0.0,0.0,0.0,0.0,0.0,0.0,0.0,0.0,-3.895,-3.9069,-3.9205,0.0,0.0,0.0,0.0,0.0,0.0,0.0,-3.9986,-4.0099,-4.0206,-4.0307,-4.0406,-4.0531,-4.0607,-4.1489,-4.2434,-4.3391,-4.4277,-4.5111,-4.59,-4.5893,-4.5919,-4.6003,-4.6072,-4.6176,-4.63,-4.63,-4.6305,-4.6315,-4.6327,-4.6328,-4.6286,0.0,0.0,0.0,0.0,0.0,0.0,0.0,-4.8565,-5.0002,-4.9979,-4.997,-5.0325,-5.2061,-5.1841,-5.1229,-5.2299,-5.3041,-5.3546,-5.3752,-5.5674,-5.7735,-5.8668,-5.8653,-5.8674,-5.9505,-5.8224,-5.6883,-5.6736,-5.595,-5.5489,-5.6103,0.0,0.0,0.0,0.0,0.0,0.0,0.0,0.0,0.0,0.0,0.0,0.0,0.0,0.0,0.0,0.0,0.0,0.0,0.0,0.0,0.0,-6.2015,-6.2433,-6.2387,-6.2515,-6.3019,-6.3812,-6.4609,-6.4886,-6.4707,-6.4652,-6.4423,-6.41,-6.3958,-6.4182,-6.4544,-6.4316,-6.4733,-6.5506,-6.5506,-6.57,-6.5925,0.0,0.0,0.0,0.0,0.0,0.0,0.0,0.0,-3.8979,-3.9021,-3.9161,0.0,0.0,0.0,0.0,0.0,0.0,0.0,-3.9986,-3.9595,-3.9632,-4.0269,-3.9892,-3.9952,-4.0574,-4.0965,-4.1871,-4.3317,-4.4201,-4.4737,-4.5002,-4.5596,-4.5941,-4.6003,-4.6072,-4.617,-4.629,-4.6305,-4.6308,-4.6345,-4.6951,-4.6835,-4.6282,0.0,0.0,0.0,0.0,0.0,0.0,0.0,0.0,0.0,-4.9097,-4.9473,-5.016,-5.1298,-5.138,-5.1192,-5.1546,-5.2608,-5.3643,-5.3585,-5.5105,-5.6922,-5.8261,-5.8925,-5.9269,-5.9469,-5.8522,-5.7493,-5.6815,-5.641,0.0,0.0,0.0,0.0,0.0,0.0,0.0,0.0,0.0,0.0,0.0,0.0,0.0,0.0,0.0,0.0,0.0,0.0,0.0,0.0,0.0,0.0,0.0,0.0,-6.1207,-6.0643,-6.2437,-6.3508,-6.3872,-6.4073,-6.4423,-6.4903,-6.4708,-6.4462,-6.4224,-6.3953,-6.3781,-6.3766,-6.4192,-6.4439,-6.4634,-6.5158,-6.5254,-6.5132,0.0,0.0,0.0,0.0,0.0,0.0,0.0,0.0,-3.8914,-3.895,-3.9106,-3.9232,0.0,0.0,0.0,0.0,0.0,0.0,-3.9986,-3.9671,-3.9737,-4.0269,-3.9945,-4.0022,-4.0647,-4.0757,-4.1308,-4.2309,-4.3212,-4.3987,-4.4634,-4.5189,-4.5642,-4.6042,-4.6064,-4.6157,-4.6279,-4.6296,-4.6497,-4.685,-4.7379,-4.7265,-4.6788,0.0,0.0,0.0,0.0,0.0,0.0,0.0,0.0,0.0,-4.8167,-4.8535,-4.9134,-5.0359,-5.0653,-5.0667,-5.1081,-5.2391,-5.3625,-5.355,-5.5101,-5.7001,-5.8438,-5.9468,-5.9958,-5.942,-5.8872,-5.8132,-5.683,-5.6494,0.0,0.0,0.0,0.0,0.0,0.0,0.0,0.0,0.0,0.0,0.0,0.0,0.0,0.0,0.0,0.0,0.0,0.0,0.0,0.0,0.0,0.0,0.0,0.0,0.0,-5.9934,-6.1451,-6.2596,-6.3448,-6.3964,-6.4465,-6.4868,-6.4615,-6.4364,-6.4142,-6.3888,-6.3647,-6.3456,-6.3796,-6.3836,-6.3788,-6.4177,-6.4312,-6.4293,0.0,0.0,-3.8575,-3.8839,0.0,0.0,0.0,0.0,-3.8765,-3.8862,-3.9092,-3.9219,0.0,0.0,0.0,0.0,0.0,0.0,0.0,-4.007,-4.0177,-4.0307,-4.0372,-4.0492,-4.0674,-4.0745,-4.0792,-4.0782,-4.1745,-4.3025,-4.4593,-4.4661,-4.5214,-4.6085,-4.6095,-4.6148,-4.6189,-4.6282,-4.6761,-4.7473,-4.7572,-4.7578,-4.7492,-4.7586,0.0,0.0,0.0,0.0,0.0,0.0,0.0,0.0,-4.7388,-4.7392,-4.7714,-4.9391,-4.9747,-4.9836,-5.0814,-5.2272,-5.3526,-5.3578,-5.5482,-5.7723,-5.8915,-6.0023,-6.0476,-5.9511,-5.9217,-5.8617,-5.6844,-5.6387,0.0,0.0,0.0,0.0,0.0,0.0,0.0,0.0,0.0,0.0,0.0,0.0,0.0,0.0,0.0,0.0,0.0,0.0,0.0,0.0,0.0,0.0,0.0,0.0,0.0,0.0,-6.0089,-6.101,-6.2725,-6.4065,-6.4684,-6.4689,-6.4423,-6.4162,-6.3894,-6.3823,-6.3647,-6.3382,-6.3242,-6.3123,-6.2978,-6.2855,-6.3105,-6.3408,0.0,0.0,-3.8631,-3.9321,0.0,0.0,0.0,0.0,0.0,-3.8892,-3.911,0.0,0.0,0.0,0.0,0.0,0.0,0.0,0.0,-3.9548,-3.9573,-4.0351,-4.0477,-4.0566,-4.0602,-4.0732,-4.0769,-4.0718,-4.1729,-4.2726,-4.3685,-4.4422,-4.524,-4.6113,-4.6169,-4.6215,-4.6282,-4.6292,-4.6415,-4.6655,-4.7338,-4.7578,-4.7574,-4.825,-4.7981,0.0,0.0,0.0,0.0,0.0,0.0,0.0,-4.7406,-4.734,-4.7548,-4.8593,-4.9314,-4.9808,-5.004,-5.18,-5.3567,-5.3475,-5.5777,-5.8161,-5.8451,-5.9092,-5.9728,-6.0012,-5.9071,-5.8012,-5.7391,0.0,0.0,0.0,0.0,0.0,0.0,0.0,0.0,0.0,0.0,0.0,0.0,0.0,0.0,0.0,0.0,0.0,0.0,0.0,0.0,0.0,0.0,0.0,-5.8851,-5.9642,-5.9991,0.0,-6.0595,-6.1446,-6.2553,-6.2817,-6.3532,-6.4615,-6.4403,-6.4162,-6.3878,-6.3823,-6.3647,-6.3382,-6.3242,-6.3123,-6.2978,-6.2855,-6.2815,-6.2881,0.0,0.0,0.0,0.0,0.0,0.0,0.0,0.0,0.0,0.0,0.0,0.0,0.0,0.0,0.0,0.0,-3.9834,-3.9954,-4.0096,-3.9767,-3.9803,-4.0402,-4.0515,-4.0609,-4.0642,-4.0745,-4.0787,-4.0798,-4.1297,-4.2387,-4.4093,-4.455,-4.5724,-4.7373,-4.6973,-4.6844,-4.683,-4.6446,-4.6765,-4.7551,-4.8038,-4.8437,-4.8788,-4.9239,-4.8899,-4.8125,-4.8107,0.0,0.0,0.0,0.0,0.0,0.0,0.0,-4.6907,-4.7787,-4.8289,-4.8786,-4.9601,-5.1367,-5.3265,-5.4315,-5.6184,-5.7685,-5.7604,-5.781,-5.8233,-5.8911,-5.832,-5.7654,-5.7536,0.0,0.0,0.0,0.0,0.0,0.0,0.0,0.0,0.0,0.0,0.0,0.0,0.0,0.0,0.0,0.0,0.0,0.0,0.0,0.0,0.0,0.0,0.0,-5.8272,-5.9414,-6.0029,-6.0076,-6.0747,-6.1793,-6.3128,-6.3445,-6.3949,-6.4596,-6.4423,-6.4166,-6.3915,-6.3851,-6.3654,-6.3382,-6.3242,-6.3123,-6.2978,-6.2855,-6.2705,-6.2676,0.0,0.0,0.0,0.0,0.0,0.0,0.0,0.0,0.0,0.0,0.0,0.0,0.0,0.0,-3.9731,0.0,0.0,0.0,-4.0096,0.0,0.0,-4.0397,-4.053,-4.0629,-4.0694,-4.0763,-4.0843,-4.0897,-4.0848,-4.2242,-4.5035,-4.4863,-4.6232,-4.8737,-4.8035,-4.7738,-4.7684,-4.7025,-4.7461,-4.8603,-4.8816,-4.9294,-4.9922,-5.0069,-4.9657,-4.9003,-4.9019,-4.8571,-4.8054,-4.8596,0.0,0.0,0.0,0.0,-4.6463,-4.7193,-4.7455,-4.786,-4.9413,-5.1192,-5.3124,-5.535,-5.6483,-5.6999,-5.6848,-5.6665,-5.6788,-5.7739,-5.7572,-5.7317,0.0,0.0,0.0,0.0,0.0,0.0,0.0,0.0,0.0,0.0,0.0,0.0,0.0,0.0,0.0,0.0,0.0,0.0,0.0,0.0,-5.5869,0.0,0.0,-5.7695,-5.8087,-5.9353,-6.0038,-6.0099,-6.0947,-6.2129,-6.3605,-6.4541,-6.4817,-6.4615,-6.4463,-6.4227,-6.3894,-6.3915,-6.372,-6.3382,-6.3242,-6.3123,-6.2978,-6.2855,-6.273,-6.2665,0.0,0.0,0.0,0.0,0.0,0.0,0.0,0.0,0.0,0.0,-3.9192,-3.9401,0.0,-3.9658,-3.9811,-3.9811,-3.9878,-3.9943,-4.0007,0.0,0.0,-4.0397,-4.053,-4.0629,-4.0694,-4.0763,-4.0798,-4.0793,-4.0878,-4.2631,-4.5896,-4.5157,-4.6208,-4.8716,-4.8652,-4.8629,-4.8608,-4.8501,-4.8157,-4.7732,-4.8578,-4.894,-4.914,-4.9836,-5.0016,-4.9924,-4.9923,-4.9864,-4.9666,-4.9028,-4.8631,0.0,0.0,0.0,-4.7232,-4.7369,-4.7883,-4.8633,-4.9604,-5.1619,-5.3855,-5.5498,-5.6372,-5.6856,-5.6871,-5.6587,-5.6797,0.0,-5.7549,0.0,0.0,0.0,0.0,0.0,0.0,0.0,0.0,0.0,0.0,0.0,0.0,0.0,0.0,0.0,0.0,0.0,0.0,0.0,0.0,-5.4925,-5.5708,-5.7338,-5.7519,0.0,-5.9998,-6.0082,-6.0084,-6.0137,-6.172,-6.2515,-6.2669,-6.4377,-6.4993,-6.4689,-6.4615,-6.4307,-6.3894,-6.3915,-6.372,-6.3382,-6.3242,-6.3123,-6.2978,-6.2855,-6.278,-6.2865,0.0,0.0,0.0,0.0,0.0,0.0,0.0,0.0,0.0,0.0,0.0,-3.9349,-3.9426,-3.9637,-3.9717,-3.9682,-3.9834,-3.9943,-4.0027,-4.0215,-4.036,-4.0438,-4.0545,-4.0636,-4.0757,-4.031,-4.0339,-4.0848,-4.0392,-4.1947,-4.5381,-4.5449,-4.7406,-5.0832,-4.9942,-4.9799,-5.0204,-4.9196,-4.8852,-4.8979,-4.9394,-5.0148,-5.1012,-5.0896,-5.1122,-5.1577,-5.1547,-5.0943,-5.0192,-5.0722,-4.9974,-4.8798,-4.8833,0.0,0.0,0.0,-4.8338,-4.8905,-5.0207,-5.1703,-5.3127,-5.4241,-5.4947,-5.5401,-5.5443,-5.5543,-5.5846,-5.664,0.0,0.0,0.0,0.0,0.0,0.0,0.0,0.0,0.0,0.0,0.0,0.0,0.0,0.0,0.0,0.0,0.0,0.0,0.0,0.0,-5.4736,-5.4783,-5.5458,-5.6829,-5.73,0.0,-5.9588,-5.9885,-6.0235,-6.0681,-6.1489,-6.2347,-6.323,-6.3968,-6.4434,-6.4633,-6.4615,-6.4326,-6.3894,-6.3915,-6.3698,-6.3382,-6.3312,-6.3171,-6.3002,-6.2929,-6.2855,-6.2853,0.0,0.0,0.0,0.0,0.0,0.0,0.0,0.0,0.0,0.0,0.0,-3.9276,-3.9621,0.0,0.0,0.0,-3.9751,-3.9933,-4.0117,-4.0215,-4.036,-4.0523,-4.0559,-4.0649,-4.0787,-4.0173,-4.0162,-4.0912,-4.0281,-4.1631,-4.4793,-4.541,-4.8024,-5.2185,-5.1175,-5.0952,-5.1317,-5.0472,-5.0093,-5.0145,-5.1071,-5.1787,-5.2417,-5.2617,-5.2845,-5.3071,-5.3242,-5.2364,-5.1219,-5.2253,-5.119,-4.9503,-4.9889,-4.9556,0.0,0.0,0.0,-4.952,-5.0759,-5.1668,-5.2454,-5.3207,-5.3686,-5.4057,-5.4258,0.0,-5.496,0.0,0.0,0.0,0.0,0.0,0.0,0.0,0.0,0.0,0.0,0.0,0.0,0.0,0.0,0.0,0.0,0.0,0.0,0.0,0.0,0.0,-5.4783,-5.4829,-5.5413,-5.6586,-5.7262,-5.8134,-5.9345,-5.9794,-6.0301,-6.0828,-6.1159,-6.1934,-6.3099,-6.3427,-6.3855,-6.4257,-6.4445,-6.4287,-6.3894,-6.3894,-6.3698,-6.3382,-6.3382,-6.3242,-6.3002,-6.3002,-6.2929,-6.278,0.0,0.0,0.0,0.0,0.0,0.0,0.0,0.0,0.0,0.0,0.0,-3.9389,-4.0327,-3.9784,-3.9427,-3.967,-3.9705,-3.9829,-4.0176,-4.0196,-4.0334,-4.0592,-4.0605,0.0,-4.0782,-4.0749,-4.0775,-4.0907,-4.093,-4.2265,-4.4793,-4.4854,-4.7163,-5.1293,-5.21,-5.2035,-5.1416,-5.2955,-5.2236,-5.0291,-5.3655,-5.3589,-5.1835,-5.5075,-5.5343,-5.4013,-5.4806,-5.4471,-5.3598,-5.2838,-5.1962,-5.1047,-5.0264,-4.9979,-4.9919,0.0,0.0,0.0,-5.1004,-5.1654,-5.2446,-5.3133,-5.3243,-5.3366,-5.4154,0.0,0.0,0.0,0.0,0.0,0.0,0.0,0.0,0.0,0.0,0.0,0.0,0.0,0.0,0.0,0.0,0.0,0.0,0.0,0.0,0.0,0.0,0.0,-5.4799,-5.4897,-5.5788,-5.7458,-5.7696,-5.8606,-6.0293,-6.0173,-6.0091,-6.0089,-6.0887,-6.1261,-6.1207,-6.2828,-6.3479,-6.3332,-6.4066,-6.4206,-6.3894,-6.3894,-6.3698,-6.3382,-6.3382,-6.3242,-6.3002,-6.3002,-6.2929,-6.278,0.0,0.0,0.0,0.0,0.0,0.0,0.0,0.0,0.0,0.0,0.0,0.0,0.0,-4.0468,-4.0122,-4.0278,-3.9995,-3.9933,-4.0186,-4.0196,-4.0334,-4.06,-4.0612,-4.0649,-4.0792,-4.0272,-4.0338,-4.0917,-4.0421,-4.1177,-4.316,-4.4296,-4.5905,-4.8024,-5.0616,-5.2187,-5.297,-5.3618,-5.3373,-5.2603,-5.3955,-5.456,-5.4803,-5.5508,-5.6053,-5.6553,-5.6774,-5.6326,-5.5522,-5.5198,-5.4904,-5.4294,-5.2265,-5.1999,-5.2202,-5.1041,-5.092,-5.1127,-5.1069,-5.1245,-5.1447,-5.1691,-5.203,-5.2318,-5.2571,-5.3658,0.0,0.0,0.0,0.0,0.0,0.0,0.0,0.0,0.0,0.0,0.0,0.0,0.0,0.0,0.0,0.0,0.0,0.0,0.0,0.0,0.0,0.0,-5.4875,-5.4897,-5.5517,-5.6787,-5.7387,-5.8549,-6.0337,-6.0182,-6.0053,-6.0013,-6.0317,-6.0638,-6.1039,-6.164,-6.2102,-6.2448,-6.2635,-6.3171,-6.3894,-6.3894,-6.3742,-6.3534,-6.3405,-6.3336,-6.3242,-6.3075,-6.2978,-6.2929,0.0,0.0,0.0,0.0,0.0,-3.8799,-3.9102,-3.9108,-3.9491,-4.0651,0.0,0.0,0.0,0.0,-4.0859,-4.1063,-4.0587,-4.042,-4.0625,-4.0358,-4.0304,-4.0583,-4.0619,-4.0649,-4.0792,-4.0272,-4.0299,-4.0917,-4.0373,-4.0822,-4.2274,-4.3709,-4.4962,-4.623,-4.9127,-5.1195,-5.2553,-5.3483,-5.3748,-5.3571,-5.4808,-5.5807,-5.6678,-5.7577,-5.8046,-5.8428,-5.9241,-5.8799,-5.7763,-5.7476,-5.7187,-5.6461,-5.3831,-5.2918,-5.2663,-5.1464,-5.1114,-5.1094,-5.1087,-5.099,-5.089,-5.0872,-5.1365,-5.191,-5.2083,0.0,0.0,0.0,0.0,0.0,0.0,0.0,0.0,0.0,0.0,0.0,0.0,0.0,0.0,0.0,0.0,0.0,0.0,0.0,0.0,0.0,0.0,0.0,-5.492,-5.4912,-5.5379,-5.6411,-5.7516,-5.8649,-5.9874,-6.0015,-6.0053,-6.0013,-5.9982,-6.0151,-6.0533,-6.0835,-6.1182,-6.1526,-6.1732,-6.2438,-6.3483,-6.3483,-6.3541,-6.3579,-6.3511,-6.3465,-6.3359,-6.3147,-6.3051,-6.2978,0.0,0.0,-3.8433,-3.8476,-3.859,-3.8936,-3.9662,-3.9836,-4.0455,-4.2001,0.0,0.0,0.0,0.0,0.0,-4.1954,-4.148,-4.126,-4.1532,-4.0759,-4.0398,-4.0619,-4.0633,-4.0701,-4.0787,-4.0787,-4.0814,-4.0907,-4.0907,-4.1362,-4.226,-4.3095,-4.4379,-4.6108,-4.7864,-4.9061,-5.0008,-5.2702,-5.3401,-5.2958,-5.6374,-5.7373,-5.7225,-6.1367,-6.1402,-5.96,-6.2132,-6.1967,-6.0395,-5.9483,-5.8649,-5.7499,-5.4804,-5.2655,-5.1119,-5.1119,-5.1108,-5.1087,0.0,0.0,0.0,-5.0799,-5.1393,-5.2127,-5.2768,0.0,0.0,0.0,0.0,0.0,0.0,0.0,0.0,0.0,0.0,0.0,0.0,0.0,0.0,0.0,0.0,0.0,0.0,0.0,0.0,0.0,0.0,-5.4882,-5.492,-5.4956,-5.5451,-5.648,-5.8096,-5.8973,-5.8997,-5.971,-6.0053,-6.0013,-5.9934,-5.9786,-5.9653,-6.0483,-6.0753,-6.0604,-6.1393,-6.2063,-6.2645,-6.2683,-6.3019,-6.3565,-6.3579,-6.3511,-6.3382,-6.3279,-6.3099,-6.3002,0.0,-3.8218,-3.8417,-3.8396,-3.8401,-3.8676,-3.9528,-3.967,-4.0271,0.0,0.0,0.0,-4.3091,-4.276,-4.2307,-4.1962,-4.1946,-4.2071,-4.2283,-4.2115,-4.1884,-4.1538,-4.1545,-4.1306,-4.0826,-4.0787,-4.0868,-4.0978,-4.0952,-4.1128,-4.1388,-4.2233,-4.3245,-4.4378,-4.6078,-4.7271,-4.8322,-5.1554,-5.3543,-5.4616,-5.6289,-5.8267,-6.0428,-6.1601,-6.2382,-6.2959,-6.3661,-6.3607,-6.2915,-6.147,-6.1215,-6.0785,-5.6884,-5.35,-5.1016,-5.1016,-5.0974,-5.0929,-5.0921,0.0,0.0,0.0,0.0,0.0,-5.1308,-5.2845,0.0,0.0,0.0,0.0,0.0,0.0,0.0,0.0,0.0,0.0,0.0,0.0,0.0,0.0,0.0,0.0,0.0,0.0,0.0,0.0,0.0,-5.4276,-5.4882,-5.5014,-5.5479,-5.6397,-5.7576,-5.8443,-5.8997,-5.971,-6.0053,-6.0013,-5.9934,-5.9786,-5.9616,-5.9842,-5.9849,-5.9666,-5.9891,-6.0339,-6.1002,-6.2197,-6.2726,-6.2836,-6.3274,-6.3511,-6.3511,-6.3171,-6.3099,-6.3099,-3.795,-3.8138,-3.8267,-3.8352,-3.8594,-3.9087,-3.9938,-4.0304,-4.0994,0.0,0.0,0.0,-4.3475,-4.3733,-4.3603,-4.2946,-4.2786,-4.2858,-4.317,-4.2888,-4.2612,-4.2402,-4.2078,-4.1717,-4.1329,-4.097,-4.0863,-4.0969,-4.0991,-4.1019,-4.1009,-4.1902,-4.2755,-4.365,-4.5009,-4.6056,-4.7025,-4.9822,-5.2422,-5.4811,-5.6448,-5.8702,-6.1289,-6.2773,-6.3475,-6.3849,-6.4987,-6.5137,-6.4575,-6.3238,-6.2116,-6.0698,-5.7375,-5.4639,-5.2531,-5.1746,-5.1516,-5.1409,-5.103,-5.0898,-5.0882,-5.0799,0.0,0.0,-5.1693,-5.2794,-5.3974,0.0,0.0,0.0,0.0,0.0,0.0,0.0,0.0,0.0,0.0,0.0,0.0,0.0,0.0,0.0,0.0,0.0,0.0,0.0,-5.392,-5.3897,-5.4389,-5.481,-5.5313,-5.5836,-5.7167,-5.8033,-5.8406,-5.9543,-6.0038,-5.9966,-5.9918,-5.9786,-5.9616,-5.9616,-5.951,-5.929,-5.929,-5.9458,-5.9866,-6.1134,-6.1981,-6.2479,-6.2851,-6.3237,-6.3557,-6.3194,-6.3123,-6.3147,0.0,-3.8002,-3.8191,-3.8383,-3.9,-3.9746,-4.0652,-4.127,-4.2031,0.0,-4.3287,-4.3486,-4.3858,-4.4753,-4.5068,-4.4504,-4.3895,-4.3718,-4.4096,-4.3385,-4.3053,-4.3203,-4.2564,-4.216,-4.2125,-4.1457,-4.1091,-4.1029,-4.1095,-4.1089,-4.1009,-4.1788,-4.2684,-4.3615,-4.4419,-4.5315,-4.6353,-4.8086,-5.079,-5.4138,-5.6768,-5.8903,-6.0975,-6.4336,-6.4644,-6.3642,-6.5923,-6.6279,-6.5456,-6.446,-6.1849,-5.8714,-5.6967,-5.583,-5.4774,-5.2841,-5.2387,-5.225,-5.1316,-5.0975,-5.0882,-5.0846,-5.1477,0.0,-5.281,-5.3059,-5.3413,0.0,0.0,0.0,0.0,0.0,0.0,0.0,0.0,0.0,0.0,0.0,0.0,0.0,0.0,0.0,0.0,0.0,0.0,-5.3566,-5.3701,-5.3745,-5.3556,-5.4477,-5.508,-5.5227,-5.691,-5.7787,-5.7762,-5.9322,-6.0007,-5.9902,-5.9902,-5.9786,-5.9616,-5.9616,-5.951,-5.929,-5.9234,-5.9177,-5.9233,-5.9789,-6.0932,-6.2286,-6.2398,-6.2896,-6.3557,-6.3326,-6.3194,-6.3147,-3.7739,-3.7967,-3.8408,-3.9077,-3.9156,-3.9698,-4.1197,-4.1429,-4.1808,-4.2811,-4.3816,-4.4744,-4.5599,-4.5921,-4.5881,-4.5312,-4.5236,-4.5084,-4.4735,-4.4761,-4.4556,-4.4025,-4.3951,-4.3627,-4.3053,-4.2968,-4.2571,-4.1945,-4.201,-4.1692,-4.1065,-4.126,-4.2156,-4.3598,-4.3776,-4.5108,-4.7288,-4.8348,-5.0783,-5.4181,-5.6776,-5.968,-6.2695,-6.4804,-6.582,-6.6088,-6.5933,-6.5733,-6.5368,-6.3784,-6.1374,-5.8683,-5.6952,-5.6225,-5.5566,-5.3035,-5.2813,-5.3155,-5.2214,-5.1447,-5.089,-5.088,-5.1481,0.0,-5.1327,-5.2262,-5.3261,0.0,0.0,0.0,0.0,0.0,0.0,0.0,0.0,0.0,0.0,0.0,0.0,0.0,0.0,0.0,0.0,0.0,-5.2953,-5.3437,-5.4231,-5.4086,-5.2707,-5.4178,-5.5403,-5.6102,-5.727,-5.8148,-5.8652,-5.9604,-6.0007,-5.9902,-5.9902,-5.9786,-5.9616,-5.9616,-5.951,-5.929,-5.9234,-5.9139,-5.9061,-5.9129,-6.0091,-6.1576,-6.2225,-6.2925,-6.3579,-6.3442,-6.3289,-6.3171,-3.7667,-3.788,-3.8182,-3.8579,-3.9175,-3.9874,-4.0721,-4.1398,-4.2227,-4.3329,-4.4893,-4.5938,-4.6027,-4.6607,-4.6752,-4.6156,-4.6697,-4.6636,-4.567,-4.6233,-4.6059,-4.489,-4.4581,-4.4238,-4.3842,-4.3531,-4.3197,-4.2864,-4.2464,-4.2074,-4.1692,-4.1692,-4.2594,-4.428,-4.4688,-4.6337,-4.8842,-4.9733,-5.1854,-5.4828,-5.6985,-5.9375,-6.1872,-6.4099,-6.5189,-6.5533,-6.5533,-6.5297,-6.4827,-6.388,-6.183,-5.9489,-5.8577,-5.7697,-5.6529,-5.4276,-5.3617,-5.3359,-5.1973,-5.1285,-5.1037,-5.1399,-5.1498,0.0,0.0,-5.2011,-5.2204,0.0,0.0,0.0,0.0,0.0,0.0,0.0,0.0,0.0,0.0,0.0,0.0,0.0,0.0,0.0,0.0,0.0,-5.2832,-5.2908,-5.3324,-5.3202,-5.2442,-5.3708,-5.4857,-5.5722,-5.7128,-5.7967,-5.8234,-5.949,-6.0007,-5.9902,-5.9902,-5.9786,-5.9616,-5.9616,-5.951,-5.929,-5.9177,-5.9043,-5.8984,-5.894,-5.9566,-6.0619,-6.1029,-6.1698,-6.242,-6.2264,-6.2151,-6.2156,-3.7649,-3.7775,-3.7971,-3.8115,-3.9102,-3.9959,-4.0281,-4.1332,-4.2629,-4.4065,-4.6022,-4.7223,-4.693,-4.7937,-4.8397,-4.7772,-4.8566,-4.8483,-4.7073,-4.7552,-4.7371,-4.6254,-4.5192,-4.4729,-4.4901,-4.4172,-4.3775,-4.3743,-4.3025,-4.2641,-4.2549,-4.2546,-4.3377,-4.4958,-4.5791,-4.7638,-5.015,-5.1032,-5.2996,-5.5696,-5.7265,-5.9059,-6.108,-6.3584,-6.4634,-6.4784,-6.5331,-6.4909,-6.4058,-6.3977,-6.2438,-6.045,-5.988,-5.8963,-5.7692,-5.5532,-5.4569,-5.3831,-5.2211,-5.1632,-5.1648,0.0,0.0,-5.1915,0.0,0.0,0.0,0.0,0.0,0.0,0.0,0.0,0.0,0.0,0.0,0.0,0.0,0.0,0.0,0.0,0.0,0.0,0.0,0.0,-5.2364,-5.1578,-5.1813,-5.2031,-5.2125,-5.321,-5.4268,-5.5289,-5.6934,-5.7811,-5.7838,-5.9322,-6.0007,-5.9902,-5.9902,-5.9786,-5.9616,-5.9616,-5.951,-5.9272,-5.9082,-5.9004,-5.8984,-5.8882,-5.919,-5.9722,-5.9871,-6.0508,-6.1257,-6.1122,-6.1033,-6.1063,-3.7429,-3.7667,-3.8115,-3.8834,-3.9013,-3.9512,-4.0965,-4.1303,-4.2318,-4.4815,-4.6878,-4.8712,-5.0398,-5.1472,-5.1857,-5.1335,-5.1525,-5.1034,-4.9508,-4.84,-4.8062,-4.8662,-4.6637,-4.5868,-4.6676,-4.5911,-4.5215,-4.4559,-4.4443,-4.4106,-4.3445,-4.3467,-4.3987,-4.4958,-4.5791,-4.7638,-5.015,-5.1039,-5.3351,-5.6557,-5.75,-5.9843,-6.289,-6.4762,-6.5934,-6.6523,-6.582,-6.4529,-6.3161,0.0,-6.2408,-6.1061,0.0,-5.8851,-5.9254,-5.5877,-5.5411,-5.578,0.0,0.0,0.0,0.0,-5.3902,0.0,0.0,0.0,-5.2906,-5.2174,0.0,0.0,0.0,0.0,0.0,0.0,0.0,0.0,0.0,0.0,0.0,0.0,0.0,0.0,0.0,0.0,0.0,-4.8813,-5.0302,-5.122,-5.1249,-5.2878,-5.452,-5.6116,-5.7211,-5.8087,-5.8661,-5.9597,-6.0007,-5.9902,-5.9902,-5.9786,-5.9616,-5.9616,-5.951,-5.9272,-5.9082,-5.9004,-5.8984,-5.8801,-5.8834,-5.9102,-5.981,-6.0529,-6.1209,-6.1165,-6.11,-6.0989,-3.7485,-3.7613,-3.7811,-3.8169,-3.8975,-3.978,-4.0402,-4.2622,-4.4838,-4.6504,-4.8409,-5.0365,-5.2436,-5.3107,-5.3401,-5.3357,-5.451,-5.4109,-5.1467,-5.0951,-5.0707,-5.061,-4.8298,-4.7219,-4.7756,-4.6932,-4.6144,-4.547,-4.4942,-4.4564,-4.4366,-4.4359,-4.4812,-4.571,-4.7084,-4.9167,-5.1683,-5.3072,-5.5344,-5.8157,-5.9531,-6.1562,0.0,-6.3435,-6.3862,-6.4646,-6.4803,-6.4367,-6.3741,0.0,-6.2772,0.0,0.0,0.0,0.0,-5.827,0.0,0.0,0.0,0.0,0.0,0.0,0.0,0.0,-5.3121,0.0,-5.2527,0.0,0.0,0.0,0.0,0.0,0.0,0.0,0.0,0.0,0.0,0.0,0.0,0.0,0.0,0.0,0.0,0.0,0.0,0.0,0.0,-5.0005,-5.1045,-5.185,-5.3286,-5.5493,-5.6896,-5.7771,-5.8038,-5.9361,-6.0013,-5.9902,-5.9902,-5.9786,-5.9616,-5.9616,-5.951,-5.9272,-5.9082,-5.9004,-5.8984,-5.8781,-5.8719,-5.8834,-5.9169,-5.9504,-5.9859,-5.9674,-5.9653,-5.9706,-3.8237,-3.7917,-3.7703,-3.7917,-3.8992,-4.0016,-4.0604,-4.4124,-4.7078,-4.8088,-5.009,-5.231,-5.4633,-5.5267,-5.5728,-5.6233,-5.7703,-5.7323,-5.4387,-5.3824,-5.3436,-5.3096,-5.0263,-4.8981,-4.9658,-4.8367,-4.747,-4.7028,-4.5931,-4.5488,-4.5562,-4.5325,-4.5592,-4.6267,-4.8025,-5.0108,-5.247,-5.4443,-5.6907,-5.9602,-6.1093,-6.2617,-6.3865,-6.3312,-6.3389,-6.3824,-6.4682,-6.4676,-6.4328,-6.4562,-6.3593,0.0,-6.3458,0.0,-6.0153,0.0,0.0,0.0,-5.7551,0.0,0.0,0.0,0.0,0.0,0.0,0.0,0.0,0.0,0.0,0.0,0.0,0.0,-5.0913,-5.0602,0.0,0.0,0.0,0.0,0.0,0.0,0.0,0.0,0.0,0.0,0.0,0.0,0.0,0.0,-5.0284,-5.0885,-5.2229,-5.4591,-5.6504,-5.7491,-5.7476,-5.9162,-5.9982,-5.9902,-5.9902,-5.9786,-5.9616,-5.9616,-5.951,-5.9272,-5.9082,-5.9004,-5.8984,-5.8781,-5.8698,-5.8677,-5.8656,-5.8719,-5.8818,-5.8635,-5.8614,-5.8768,-3.9957,-3.876,-3.7936,-3.8724,-3.9013,-3.9949,-4.2349,-4.542,-4.7964,-4.9353,-5.1797,-5.4574,-5.7618,-5.8829,-5.9815,-6.0892,-6.1225,-6.0608,-5.8819,-5.6584,-5.5721,-5.6623,-5.2647,-5.1275,-5.3119,-5.0752,-4.9552,-4.9582,-4.7991,-4.7256,-4.731,-4.6476,-4.6123,-4.6267,-4.8035,-4.9764,-5.1611,-5.4212,-5.7262,-6.0422,-6.1327,-6.2223,-6.3305,0.0,-6.6241,-6.5614,-6.6416,0.0,0.0,-6.5265,-6.4922,0.0,0.0,0.0,0.0,0.0,0.0,0.0,0.0,0.0,0.0,-5.7671,0.0,0.0,0.0,0.0,-5.5623,0.0,0.0,0.0,0.0,-5.2473,-5.1597,-5.0818,-4.9884,0.0,0.0,0.0,0.0,0.0,0.0,0.0,0.0,0.0,0.0,0.0,0.0,0.0,-4.8513,-5.0171,-5.1907,-5.3707,-5.6171,-5.7476,-5.7384,-5.9147,-5.9982,-5.9902,-5.9902,-5.9786,-5.9616,-5.9616,-5.951,-5.9272,-5.9082,-5.9004,-5.8984,-5.8781,-5.8698,-5.8677,-5.8572,-5.8593,-5.8698,-5.8677,-5.8677,-5.8677,-4.0989,-4.0106,-3.935,-3.9656,-4.0647,-4.251,-4.5675,-4.817,-5.0464,-5.2702,-5.4283,-5.6605,-6.0303,-6.1032,-6.1437,-6.1932,-6.2214,-6.1599,-5.9824,-5.8033,-5.7494,-5.8425,-5.5485,-5.4183,-5.4929,-5.3095,-5.1857,-5.1355,-4.9776,-4.9043,-4.9012,-4.7621,-4.7015,-4.7123,-4.8269,-4.9774,-5.1628,-5.4801,-5.7811,-6.0624,0.0,-6.4804,-6.5506,0.0,0.0,-6.3906,-6.4208,-6.4672,0.0,-6.549,-6.5387,-6.5194,-6.5468,-6.4756,-6.387,-6.4145,-6.3581,0.0,0.0,0.0,-6.133,-6.0378,0.0,0.0,0.0,0.0,0.0,0.0,0.0,0.0,0.0,-5.267,-5.2005,-5.1672,-4.9921,-4.8499,0.0,0.0,0.0,0.0,0.0,0.0,0.0,0.0,0.0,0.0,0.0,0.0,0.0,-4.8809,-5.0492,-5.2745,-5.476,-5.605,-5.6588,-5.7718,-5.8553,-5.9105,-5.9105,-5.9257,-5.9616,-5.9616,-5.9474,-5.9234,-5.9063,-5.8982,-5.8902,-5.876,-5.8698,-5.8677,-5.8656,-5.8656,-5.8677,-5.8614,-5.8572,-5.8551,-4.2737,-4.2167,-4.155,-4.1075,-4.3218,-4.5791,-4.8081,-5.0862,-5.3469,-5.5616,-5.6962,-5.8951,-6.2201,-6.2682,-6.3031,-6.374,-6.4067,-6.3451,-6.1652,-6.039,0.0,-6.0227,-5.8054,-5.709,-5.7555,-5.5991,-5.4636,-5.3533,-5.1675,-5.0602,-5.0287,-4.8657,-4.7907,-4.8011,-4.8852,-5.0246,-5.2064,-5.5232,-5.8241,-6.1172,0.0,-6.6211,0.0,0.0,-6.3906,-6.3945,0.0,-6.4906,-6.565,-6.5913,-6.6044,-6.6171,-6.6678,-6.6093,-6.5343,-6.5888,-6.5409,-6.4687,-6.4677,-6.4024,0.0,-6.2216,-6.1523,0.0,-5.8137,0.0,0.0,0.0,0.0,0.0,0.0,-5.3468,-5.2546,-5.2202,-4.9924,-4.7966,0.0,-4.6167,0.0,0.0,0.0,0.0,0.0,0.0,0.0,0.0,0.0,0.0,0.0,0.0,-4.9896,-5.1883,-5.4147,-5.564,-5.6171,-5.7005,-5.7687,-5.8218,-5.8559,-5.8895,-5.9183,-5.9447,-5.9474,-5.9234,-5.9063,-5.8982,-5.8902,-5.876,-5.8698,-5.8698,-5.8698,-5.8698,-5.8677,-5.8572,-5.8486,-5.8443,-4.5033,-4.4864,-4.4335,-4.3057,-4.6491,-4.9441,-4.9531,-5.3304,-5.663,-5.7959,-5.9627,-6.1428,-6.3451,-6.3828,-6.459,-6.6188,-6.6466,-6.5834,-6.4229,-6.3274,0.0,0.0,-6.0278,-5.988,-6.0973,0.0,-5.7651,-5.6077,-5.3584,-5.1974,-5.1184,-4.9542,-4.8794,-4.8893,-4.9784,-5.1103,-5.2883,-5.5505,-5.8593,-6.207,-6.5506,-6.6445,-6.5735,-6.5664,0.0,-6.5898,-6.6541,-6.635,-6.5894,-6.6653,-6.6935,-6.695,-6.6872,-6.6874,-6.6914,-6.6907,-6.6318,-6.5651,-6.5594,-6.4941,-6.4041,-6.3161,0.0,0.0,0.0,0.0,-6.0995,0.0,0.0,0.0,0.0,0.0,-5.3336,-5.2407,-4.9967,-4.7593,-4.5801,-4.5467,0.0,0.0,0.0,0.0,0.0,0.0,0.0,0.0,0.0,0.0,0.0,0.0,0.0,-5.097,-5.4208,-5.5981,-5.6019,-5.6815,-5.7232,-5.727,-5.818,-5.8538,-5.8429,-5.9221,-5.951,-5.9272,-5.9082,-5.9004,-5.8965,-5.8781,-5.8698,-5.8698,-5.8698,-5.8677,-5.8656,-5.8551,-5.8443,-5.8393,-4.586,-4.6306,-4.6571,-4.6241,-4.8065,-5.0041,0.0,0.0,0.0,-5.9609,-6.0171,-6.1354,-6.4267,-6.462,-6.4858,-6.5465,-6.4473,0.0,0.0,0.0,0.0,-6.2732,-6.116,-6.1301,-6.3589,-6.0233,-5.8548,-5.8631,-5.5064,-5.3222,-5.2898,-5.0692,-4.9681,-4.9733,-5.0678,-5.1652,-5.2884,-5.5505,-5.8944,-6.289,-6.5742,-6.7148,0.0,0.0,-6.7343,-6.8281,-6.7183,-6.7488,-6.846,-6.8655,-6.835,-6.7849,-6.7849,-6.7422,-6.6912,-6.691,-6.6708,-6.6502,-6.6457,-6.5814,-6.5127,-6.4879,-6.4318,-6.3366,0.0,0.0,0.0,0.0,0.0,0.0,0.0,0.0,0.0,-5.3511,-5.0394,-4.7776,-4.6551,0.0,0.0,-4.6171,0.0,0.0,0.0,0.0,0.0,0.0,0.0,0.0,0.0,0.0,0.0,-4.9215,-5.1367,-5.276,-5.3366,-5.4238,-5.4958,-5.5564,-5.7043,-5.797,-5.8429,-5.9221,-5.9474,-5.9215,-5.9177,-5.9061,-5.894,-5.8879,-5.8797,-5.8698,-5.8698,-5.8635,-5.8551,-5.8443,-5.8443,-5.8443,-4.7138,-4.7953,-4.8657,-4.838,0.0,0.0,-5.3689,-5.5896,0.0,-6.1523,-6.1957,0.0,-6.5176,-6.5796,-6.6076,-6.6146,-6.5732,0.0,-6.4442,0.0,0.0,-6.4092,-6.3239,-6.3321,-6.4539,-6.229,0.0,-5.9633,-5.667,-5.4684,-5.3536,-5.1503,-5.0529,-5.0607,-5.1564,-5.2466,-5.3506,-5.7263,-6.0429,-6.3242,-6.5859,0.0,0.0,-6.7655,-6.8514,-6.9843,-6.8865,-6.8665,-6.8812,-6.8816,-6.8313,-6.7614,-6.7614,-6.7304,-6.6913,-6.6913,-6.687,-6.6823,-6.6859,-6.6453,-6.6082,-6.6073,-6.5712,-6.4886,-6.313,-6.313,-6.2889,0.0,0.0,0.0,0.0,0.0,0.0,-5.2845,-5.0022,-4.7826,-4.6839,0.0,0.0,0.0,0.0,0.0,0.0,0.0,0.0,0.0,0.0,0.0,0.0,0.0,0.0,0.0,-5.0998,-5.2466,-5.2891,-5.3754,-5.4436,-5.4814,-5.6185,-5.7127,-5.7812,-5.8603,-5.9062,-5.9253,-5.9196,-5.91,-5.8922,-5.892,-5.8818,-5.8698,-5.8698,-5.8656,-5.8593,-5.8465,-5.84,-5.8356,-4.8967,-4.9913,-5.0737,-4.9996,-5.3661,0.0,0.0,-5.9101,0.0,-6.3421,0.0,-6.4992,-6.6141,-6.6989,-6.7443,-6.7408,0.0,-6.7905,-6.6429,-6.7038,-6.6978,-6.5811,-6.558,-6.5336,-6.5012,-6.4564,-6.2923,0.0,-5.8143,-5.6029,-5.3722,-5.2119,-5.1415,-5.1481,-5.2441,-5.3545,-5.4984,-5.9686,-6.2344,-6.3555,-6.6055,-6.7656,-6.8515,-6.8397,-6.9334,-7.0701,-7.0584,-6.9643,-6.8427,-6.8429,-6.7847,-6.7068,-6.7068,-6.6991,-6.6914,-6.6914,-6.6913,-6.6911,-6.6906,-6.6854,-6.6795,-6.6781,-6.6739,-6.6229,-6.459,-6.4172,-6.367,-6.203,-6.1072,0.0,0.0,0.0,0.0,-5.1794,-4.9564,0.0,0.0,0.0,0.0,0.0,0.0,0.0,0.0,0.0,0.0,0.0,0.0,0.0,0.0,0.0,0.0,0.0,-5.1372,0.0,-5.3142,0.0,-5.4564,-5.4554,-5.5508,-5.629,-5.6894,-5.7685,-5.8367,-5.899,-5.8897,-5.8802,-5.8686,-5.8624,-5.8578,-5.8549,-5.8661,-5.8698,-5.8677,-5.8572,-5.8422,-5.8223,-5.1742,-5.2658,-5.3126,-5.1992,0.0,-6.0735,-6.0455,-6.1028,-6.2278,-6.4401,-6.503,-6.5782,-6.705,-6.7221,-6.7315,-6.746,-6.7072,0.0,0.0,0.0,0.0,-6.7584,-6.6245,-6.6165,-6.7585,-6.4949,-6.2923,0.0,-5.8732,-5.6347,-5.4481,-5.2964,-5.228,-5.2349,-5.326,-5.535,-5.8367,-6.0697,0.0,-6.531,-6.7226,-6.8906,-7.0195,-6.9531,-6.9883,-7.0625,-6.9883,-6.988,-7.0225,-7.0233,-6.9218,-6.7967,-6.7968,-6.7461,-6.6914,-6.6914,-6.6913,-6.6911,-6.6911,-6.6862,-6.6809,-6.6807,-6.6292,-6.5543,-6.4528,-6.3742,-6.2954,-6.1897,-6.1534,-6.0932,-5.9372,0.0,0.0,0.0,0.0,0.0,0.0,0.0,0.0,0.0,0.0,0.0,0.0,0.0,0.0,0.0,0.0,0.0,0.0,0.0,0.0,0.0,0.0,0.0,0.0,0.0,0.0,-5.3747,-5.5211,-5.5993,-5.6111,-5.6873,-5.7238,-5.73,-5.732,-5.721,-5.7005,-5.7023,-5.728,-5.7769,-5.8438,-5.8698,-5.8677,-5.8656,-5.8572,-5.8443,-5.417,-5.4591,-5.4963,-5.4942,0.0,0.0,0.0,-6.4253,0.0,-6.6103,-6.6258,-6.6766,-6.7902,-6.8376,-6.8452,-6.8089,-6.818,-6.8098,-6.7732,-6.7866,-6.8117,-6.8547,-6.7814,-6.7661,-6.8124,-6.62,-6.4347,-6.2731,0.0,-5.7871,-5.5418,-5.4276,-5.3557,-5.3239,-5.5108,-5.7356,0.0,0.0,0.0,-6.574,-6.75,-6.9219,-7.0664,-7.0273,-7.0351,-7.0664,-7.0234,-6.9804,-6.9412,-6.9414,-6.8554,-6.7539,-6.7539,-6.7226,-6.6914,-6.6914,-6.6914,-6.6913,-6.6912,-6.6867,-6.6857,-6.6813,-6.6219,-6.5351,-6.4494,-6.363,-6.2764,-6.1866,-6.166,-6.1137,-5.9361,-5.6901,0.0,0.0,0.0,0.0,0.0,0.0,0.0,0.0,0.0,0.0,0.0,0.0,0.0,0.0,0.0,0.0,0.0,0.0,0.0,0.0,0.0,0.0,0.0,0.0,0.0,-5.3349,-5.4608,-5.5367,-5.5768,-5.611,-5.6509,-5.6887,-5.6887,-5.6815,-5.6631,-5.6556,-5.6888,-5.7533,-5.7492,-5.7732,-5.8029,-5.7621,-5.7691,-5.8016,-5.7048,-5.7449,-5.791,0.0,-6.1447,0.0,-6.476,-6.7316,-6.8849,-6.8034,-6.7922,-6.8319,-6.9304,-7.0005,-7.0081,-6.9209,-6.9834,-6.9945,-6.9165,-6.9857,-6.998,-6.9327,-6.9393,-6.9075,-6.8273,-6.7712,-6.6238,0.0,0.0,-5.9795,-5.6588,-5.5845,-5.5249,0.0,0.0,0.0,0.0,0.0,-6.5108,-6.6518,-6.7734,-6.9218,-7.0703,-7.0703,-7.0703,-7.0664,-7.0508,-6.9453,-6.8164,-6.8008,-6.7461,-6.6914,-6.6914,-6.6914,-6.6914,-6.6914,-6.6914,-6.6914,-6.6913,-6.6909,-6.6824,-6.6582,-6.5948,-6.5116,-6.4219,-6.336,-6.254,-6.1835,-6.1398,-6.072,-5.9283,-5.703,0.0,0.0,0.0,0.0,0.0,0.0,0.0,0.0,0.0,0.0,0.0,0.0,0.0,0.0,0.0,0.0,-4.4482,-4.5204,0.0,0.0,0.0,0.0,-5.0748,0.0,-5.3144,0.0,-5.4079,-5.4794,-5.5365,-5.5348,-5.5723,-5.6361,-5.6361,-5.6308,-5.62,-5.6182,-5.6534,-5.7054,-5.6529,-5.6712,-5.7175,-5.6543,-5.6692,-5.7283,0.0,0.0,0.0,0.0,0.0,0.0,0.0,-6.9152,-7.0725,-6.9797,-7.027,-7.1047,-7.1938,-7.2109,-7.1806,-7.0915,-7.1048,-7.0837,-7.0129,-7.0196,-7.0281,-7.0288,-7.0288,-6.9954,-6.9207,-6.9168,-6.7951,0.0,0.0,-6.1592,-5.8247,-5.7652,-5.7747,0.0,0.0,0.0,0.0,-6.4501,-6.6151,-6.9003,-6.8432,-6.9217,-7.0701,-7.0703,-7.0703,-7.0586,-6.9805,-6.8945,-6.8086,-6.7305,-6.6953,-6.6914,-6.6914,-6.6914,-6.6914,-6.6914,-6.6914,-6.6914,-6.6914,-6.6911,-6.6708,-6.5927,-6.5056,-6.4179,-6.3321,-6.2462,-6.1796,-6.1718,-6.0429,-5.9293,-5.912,-5.7593,-5.5773,0.0,0.0,0.0,0.0,0.0,-4.7835,-4.6929,0.0,0.0,0.0,0.0,0.0,0.0,0.0,-4.4632,-4.4496,-4.464,0.0,-4.6951,0.0,-4.843,-5.067,-5.1651,0.0,-5.3285,-5.4046,-5.446,-5.4602,-5.4555,-5.4559,-5.4634,-5.4634,-5.4583,-5.4553,-5.5173,-5.5398,-5.5509,-5.6123,-5.64,-5.6395,-5.632,-5.6357,-5.6392,0.0,0.0,0.0,0.0,0.0,0.0,0.0,-6.9739,-7.1105,-7.0513,-7.1312,-7.2054,-7.2375,-7.2413,-7.1844,-7.0498,-7.0934,-7.0533,-6.8815,-6.9701,-7.009,-6.9693,-7.0238,-7.0385,-7.0087,-6.9716,-6.8548,0.0,0.0,0.0,0.0,0.0,0.0,0.0,0.0,-6.4014,-6.5523,-6.5702,-6.6885,-6.8611,-6.8314,-6.8903,-6.992,-6.9922,-6.9609,-6.914,-6.8789,-6.8125,-6.7383,-6.7031,-6.6914,-6.6914,-6.6914,-6.6914,-6.6914,-6.6914,-6.6914,-6.6914,-6.6914,-6.6522,-6.6049,-6.5698,-6.4559,-6.3419,-6.3068,-6.232,-6.1692,-6.1692,-6.0319,-5.91,-5.9087,-5.7679,-5.6062,0.0,0.0,0.0,0.0,0.0,0.0,0.0,0.0,-4.687,0.0,0.0,0.0,0.0,0.0,0.0,-4.4496,-4.4551,0.0,-4.6936,0.0,-4.8206,-5.067,-5.2038,-5.2881,-5.3273,-5.4538,-5.4877,-5.4422,-5.4426,-5.4409,-5.4409,-5.4409,-5.4392,-5.4378,-5.4627,-5.4967,-5.5324,-5.5063,-5.5229,-5.5544,-5.5002,-5.5131,-5.552,-6.8476,0.0,-6.7083,0.0,-6.8054,-6.8387,-6.8529,-7.0455,-7.1787,-7.1343,-7.2411,-7.3192,-7.3133,-7.3151,-7.2355,-7.0384,-7.0858,-7.0345,-6.8171,-6.9209,-6.9807,-6.9578,-7.0232,0.0,-7.0272,-7.0057,-6.9167,-6.75,-6.6201,0.0,0.0,0.0,0.0,0.0,-6.4553,-6.5449,-6.6304,-6.6667,-6.7305,-6.8097,-6.7881,-6.8316,-6.9019,-6.9023,-6.8867,-6.8555,-6.8281,-6.7812,-6.7226,-6.6992,-6.6914,-6.6914,-6.6914,-6.6914,-6.6914,-6.6914,-6.6914,-6.6836,-6.6601,-6.6054,-6.5466,-6.4958,-6.3901,-6.292,-6.2686,-6.2134,-6.1697,-6.1694,-6.0319,-5.91,-5.9092,-5.7685,-5.6233,0.0,0.0,0.0,0.0,0.0,0.0,0.0,-4.7719,-4.7225,-4.7098,0.0,0.0,0.0,0.0,0.0,0.0,0.0,0.0,0.0,0.0,0.0,0.0,0.0,-5.301,-5.3224,-5.4597,-5.4972,-5.4409,-5.4409,-5.4409,-5.4409,-5.4409,-5.4409,-5.4409,-5.434,-5.4663,-5.5077,-5.4316,-5.4354,-5.4745,-5.4055,-5.4166,-5.4629,-6.9679,-6.9595,-6.9622,-6.9175,-6.9075,-6.9155,-6.9357,-7.1694,-7.3219,-7.2469,-7.3833,-7.4857,-7.4857,-7.4857,-7.3831,-7.1194,-7.1065,-7.0441,-6.8901,-6.8876,-6.9358,0.0,0.0,-7.0233,-6.9413,-7.0392,-7.0079,-6.8488,0.0,0.0,-6.4947,0.0,0.0,-6.5428,-6.6259,-6.7204,-6.8021,-6.7162,-6.7289,-6.8047,-6.7248,-6.7411,-6.8116,-6.8202,-6.875,-6.9375,-6.8515,-6.8203,-6.8047,-6.7187,-6.6914,-6.6914,-6.6914,-6.6914,-6.6914,-6.6914,-6.6914,-6.6719,-6.5859,-6.5624,-6.5193,-6.3475,-6.3002,-6.2764,-6.1904,-6.1704,-6.1696,-6.1683,-6.0312,-5.9102,-5.9102,-5.7736,-5.6289,-5.534,0.0,0.0,0.0,0.0,0.0,0.0,-4.8284,-4.8221,-4.8284,0.0,0.0,0.0,0.0,0.0,0.0,0.0,0.0,-4.7076,-4.7938,0.0,-5.067,-5.1729,-5.2558,-5.3224,-5.4033,-5.4409,-5.4409,-5.4409,-5.4409,-5.4409,-5.4409,-5.4409,-5.4409,-5.4409,-5.4357,-5.429,-5.4164,-5.4074,-5.4019,-5.3869,-5.3831,-5.3812,-7.2061,-7.2285,-7.2296,-7.1556,-7.1636,-7.1454,-7.0304,-7.2008,-7.312,-7.2305,-7.379,-7.4895,-7.4895,-7.4895,-7.3869,0.0,-7.1576,-7.0821,0.0,-6.9105,-6.9756,-6.9658,-7.0287,-7.0554,-7.0359,-7.0206,-6.9592,-6.85,0.0,0.0,0.0,-6.5025,-6.5393,-6.6285,-6.659,-6.6906,-6.7181,-6.6911,-6.6967,-6.7188,-6.6974,-6.706,-6.7296,-6.7304,-6.75,-6.7695,-6.7422,-6.7305,-6.7265,-6.6992,-6.6914,-6.6914,-6.6914,-6.6914,-6.6914,-6.6914,-6.6914,-6.6719,-6.5859,-6.5156,-6.4453,-6.3281,-6.2539,-6.2031,-6.1758,-6.1247,-6.0804,-6.0827,-5.9417,-5.8207,-5.8207,-5.7348,-5.6487,-5.6211,0.0,0.0,0.0,0.0,0.0,0.0,-4.9047,-4.8477,0.0,-4.8523,0.0,0.0,0.0,0.0,0.0,0.0,0.0,0.0,-4.798,0.0,-5.1691,-5.2567,-5.3381,-5.4096,-5.4961,-5.5023,-5.4409,-5.4409,-5.4409,-5.4409,-5.4409,-5.4409,-5.4409,-5.4409,-5.4392,-5.434,-5.4163,-5.4073,-5.4036,-5.3851,-5.3794,-5.3775,-7.3091,-7.2785,-7.2371,-7.2,-7.2131,-7.1981,-7.1103,-7.2607,-7.3531,-7.2779,-7.3979,-7.4781,-7.444,-7.4402,0.0,-7.1194,-7.1312,-7.0517,-6.8142,-6.9102,-6.9768,-6.9804,-7.0356,-7.0575,-7.0368,0.0,0.0,-6.8538,-6.7343,-6.6388,-6.5685,-6.5743,-6.6063,-6.6657,-6.6686,-6.6732,-6.6783,-6.6783,-6.6805,-6.6798,-6.6854,-6.6859,-6.686,-6.6871,-6.6913,-6.6914,-6.6914,-6.6914,-6.6914,-6.6914,-6.6914,-6.6914,-6.6914,-6.6914,-6.6914,-6.6914,-6.6445,-6.5781,-6.5273,-6.4492,-6.3594,-6.2733,-6.2107,-6.1717,-6.1718,-6.1015,-6.0381,-6.0399,-5.9026,-5.7816,-5.7816,-5.7153,-5.6606,-5.6606,0.0,-5.59,-5.4144,0.0,0.0,0.0,0.0,0.0,0.0,-4.9324,0.0,0.0,0.0,0.0,0.0,0.0,0.0,-4.7751,-4.8503,0.0,-5.1692,-5.2251,-5.3013,-5.4102,-5.4936,-5.4982,-5.4409,-5.4409,-5.4409,-5.4409,-5.4409,-5.4409,-5.4409,-5.4409,-5.4409,-5.4392,-5.4253,-5.4127,-5.4073,-5.3907,-5.3832,-5.3794,-7.2955,-7.1672,0.0,0.0,-7.1144,0.0,-7.1809,-7.3333,-7.4245,-7.3735,-7.4344,-7.4533,-7.3775,-7.3586,-7.2846,-7.1252,0.0,0.0,0.0,-6.9095,-6.9606,-7.0569,-7.0662,0.0,-6.9692,-6.9682,-6.9296,-6.8444,-6.7746,-6.7009,-6.6308,-6.6431,-6.6514,-6.6581,-6.6657,-6.6717,-6.6779,-6.6779,-6.6805,-6.6795,-6.6807,-6.6811,-6.6813,-6.686,-6.6907,-6.6911,-6.6911,-6.6913,-6.6914,-6.6914,-6.6914,-6.6875,-6.6836,-6.6758,-6.6719,-6.6797,-6.5664,-6.4375,-6.4258,-6.3633,-6.2773,-6.1912,-6.1716,-6.1678,-6.1601,-6.0936,-6.0307,-6.0245,-5.8872,-5.7701,-5.7738,-5.7113,-5.6606,-5.6606,-5.6506,-5.5783,-5.4066,0.0,0.0,0.0,0.0,0.0,0.0,-5.0418,-5.0859,0.0,0.0,0.0,0.0,0.0,0.0,-4.8693,-4.9408,-5.0156,-5.09,-5.0988,-5.1819,-5.3443,-5.4102,-5.4418,-5.4409,-5.4409,-5.4409,-5.4409,-5.4409,-5.4409,-5.4409,-5.4409,-5.4409,-5.4392,-5.4343,-5.4218,-5.4091,-5.4019,-5.3926,-5.3794,0.0,0.0,-7.2892,-7.3094,-7.3217,-7.3386,-7.371,-7.3552,-7.364,-7.4185,-7.4027,-7.3976,-7.4392,-7.3376,-7.2507,-7.2108,-7.1428,-7.0685,-6.9921,-6.995,-7.0179,-7.0569,-7.0662,-7.0652,-7.0508,-6.9346,-6.8077,-6.6698,-6.6527,-6.6399,-6.6385,-6.6469,-6.6492,-6.6542,-6.6645,-6.6707,-6.672,-6.672,-6.6744,-6.682,-6.6795,-6.6805,-6.6813,-6.686,-6.6907,-6.6911,-6.6911,-6.6913,-6.6914,-6.6914,-6.6914,-6.6797,-6.6133,-6.5469,-6.5039,-6.5703,-6.5624,-6.4999,-6.3672,-6.3164,-6.2771,-6.1908,-6.1708,-6.1511,-6.0855,-6.0038,-5.9218,-5.8544,-5.7599,-5.6889,-5.6881,-5.6723,-5.6606,-5.6606,-5.6006,-5.4898,-5.316,0.0,0.0,0.0,-4.9497,-4.9636,-5.0496,-5.0782,-5.0604,0.0,0.0,0.0,0.0,0.0,-4.875,-4.8871,-4.9607,-5.0364,-5.1112,-5.1126,-5.193,-5.3467,-5.3553,-5.3887,-5.4472,-5.4405,-5.4409,-5.4409,-5.4409,-5.4409,-5.4409,-5.4409,-5.4409,-5.4392,-5.4343,-5.4218,-5.4091,-5.4019,-5.3926,-5.3794,-7.2955,-7.3172,-7.3435,-7.374,-7.3864,-7.4033,-7.4335,-7.3709,-7.3489,-7.4385,-7.393,-7.3694,-7.4086,-7.3091,-7.2261,-7.1844,-7.12,-7.0626,-7.0223,-7.0268,-7.0402,-7.0569,-7.0662,-7.0714,-7.0787,-6.9627,-6.818,-6.6557,-6.6206,-6.614,-6.6284,-6.6376,-6.6431,-6.6507,-6.662,-6.668,-6.6693,-6.6707,-6.6736,-6.6811,-6.6781,-6.6795,-6.6805,-6.6852,-6.6859,-6.6866,-6.6907,-6.6638,-6.6328,-6.6328,-6.6055,-6.5625,-6.5156,-6.4687,-6.4297,-6.4375,-6.414,-6.3709,-6.3164,-6.2694,-6.2298,-6.1824,-6.1385,-6.0993,-6.0501,-5.9413,-5.8359,-5.7881,-5.7168,-5.6612,-5.6606,-5.6606,-5.6489,-5.6059,-5.5173,-5.3969,-5.2196,-5.1058,0.0,-4.9828,-4.9644,-4.993,-5.0821,-5.0898,-5.0673,-5.0126,0.0,0.0,-4.9932,-4.9872,-4.9745,-4.9503,-4.9873,-5.024,-5.0599,-5.1016,-5.1807,-5.2983,-5.327,-5.3779,-5.4505,-5.4455,-5.4443,-5.4409,-5.4409,-5.4409,-5.4409,-5.4409,-5.4409,-5.4409,-5.4357,-5.4271,-5.42,-5.4146,-5.4019,-5.3907,-7.3112,-7.312,-7.3199,-7.3715,-7.3815,-7.3937,-7.4312,-7.364,-7.3441,-7.4341,-7.3745,-7.328,-7.346,-7.2712,-7.19,-7.1142,-7.0533,-7.0185,-7.0185,-7.0319,-7.0451,-7.0554,-7.0662,-7.0752,-7.0772,-6.9934,-6.8667,-6.6923,-6.6319,-6.6029,-6.6112,-6.6225,-6.6385,-6.6508,-6.6549,-6.6657,-6.6707,-6.6693,-6.6728,-6.6805,-6.6808,-6.67,-6.6597,-6.6639,-6.6529,-6.6422,-6.6509,-6.6047,-6.5389,-6.539,-6.4922,-6.4297,-6.414,-6.4101,-6.3945,-6.3045,-6.2262,-6.1872,-6.2616,-6.2184,-6.151,-6.1504,-6.0831,-6.0167,-6.0033,-5.8866,-5.7773,-5.7645,-5.7084,-5.6608,-5.6606,-5.6606,-5.6294,-5.5435,-5.445,-5.3225,-5.1464,0.0,-4.9804,-4.9741,-4.9745,-5.0093,-5.0821,-5.0898,-5.0866,-5.0838,-5.0829,0.0,0.0,-5.0731,-5.0573,-5.0259,-5.0175,-5.0076,-4.992,-5.0751,-5.158,-5.2317,-5.3135,-5.389,-5.4538,-5.4522,-5.4472,-5.4426,-5.4409,-5.4409,-5.4409,-5.4409,-5.4409,-5.4409,-5.4409,-5.4357,-5.4308,-5.4308,-5.4202,-5.4019,-7.396,-7.3545,-7.3305,-7.374,-7.3815,-7.3912,-7.4174,-7.3085,-7.2698,-7.4079,-7.2621,-7.1973,-7.3204,-7.2122,-7.1256,-7.1104,-7.0533,-7.0185,-7.0185,-7.0319,-7.0419,-7.0435,-7.0593,-7.0684,-7.0737,-6.933,-6.7808,-6.6177,-6.6073,-6.6052,-6.6175,-6.6274,-6.6385,-6.6508,-6.6549,-6.6645,-6.6719,-6.6707,-6.6693,-6.6724,-6.6779,-6.6369,-6.5722,-6.5775,-6.5319,-6.4704,-6.4706,-6.4638,-6.449,-6.4491,-6.4413,-6.4179,-6.3437,-6.3202,-6.304,-6.2145,-6.1829,-6.1743,-6.1867,-6.1277,-6.0606,-6.0604,-5.9933,-5.9109,-5.838,-5.8001,-5.7617,-5.6912,-5.6706,-5.6616,-5.6606,-5.6606,-5.6294,-5.5435,-5.4513,-5.3267,0.0,0.0,-5.061,-4.986,-5.0325,-5.0735,-5.0898,-5.0898,-5.0882,-5.0872,-5.0872,-5.0829,-5.0692,-5.0729,-5.0682,-5.0455,-5.044,-5.0333,-5.005,-5.0806,-5.1609,-5.239,-5.315,-5.3936,-5.4752,-5.4571,-5.4505,-5.4489,-5.4405,-5.4409,-5.4409,-5.4409,-5.4409,-5.4409,-5.4409,-5.4357,-5.4308,-5.4308,-5.42,-5.4073,-7.4256,-7.4016,-7.3851,-7.3815,-7.3815,-7.3763,-7.3642,-7.2714,-7.223,-7.2883,-7.1848,-7.1329,-7.1899,-7.1441,-7.0915,-7.0498,-7.0305,-7.0185,-7.0185,-7.0319,-7.0228,-6.9769,-7.0364,-7.0522,-7.0186,-6.855,-6.7334,-6.6602,-6.6213,-6.6074,-6.6144,-6.6254,-6.6355,-6.6439,-6.656,-6.6614,-6.6651,-6.668,-6.6712,-6.6672,-6.6256,-6.5847,-6.5445,-6.5025,-6.4606,-6.4306,-6.4312,-6.4006,-6.3584,-6.3587,-6.3277,-6.285,-6.2419,-6.2301,-6.2143,-6.1242,-6.1004,-6.1002,-6.1001,-6.0373,-5.9706,-5.9706,-5.9035,-5.8289,-5.7953,-5.7491,-5.7068,-5.6677,-5.6595,-5.6589,-5.661,-5.661,-5.6144,-5.4812,-5.379,0.0,0.0,-5.0431,-5.0195,-4.9773,-5.0426,-5.0898,-5.0898,-5.0898,-5.0882,-5.088,-5.088,-5.0863,-5.0821,-5.0838,-5.0821,-5.071,-5.0525,-5.034,-5.0151,-5.0456,-5.1226,-5.2437,-5.2314,-5.3164,-5.4783,-5.3729,-5.3726,-5.4468,-5.4004,-5.4046,-5.4409,-5.4422,-5.4422,-5.4409,-5.4409,-5.4375,-5.434,-5.434,-5.4253,-5.4091,-7.4588,-7.4395,-7.4243,-7.3865,-7.3815,-7.3637,-7.3124,-7.2429,-7.1944,-7.1852,-7.1206,-7.0779,-7.0805,-7.0835,-7.0574,-6.9929,-7.0059,-7.0091,-6.9918,-6.9997,-6.9813,-6.9234,-6.9789,-6.9784,-6.9102,-6.7782,-6.7013,-6.6821,-6.6278,-6.6036,-6.6123,-6.6225,-6.6325,-6.6422,-6.6538,-6.6588,-6.6614,-6.6657,-6.6579,-6.6342,-6.5732,-6.5254,-6.4815,-6.4157,-6.3818,-6.3713,-6.3683,-6.3258,-6.2713,-6.2682,-6.2257,-6.1713,-6.171,-6.171,-6.1515,-6.0646,-6.0101,-5.9832,-6.0056,-5.947,-5.8808,-5.8804,-5.8135,-5.7549,-5.7603,-5.706,-5.6597,-5.6599,-5.6598,-5.6557,-5.6341,-5.6304,-5.5796,-5.4218,0.0,0.0,0.0,-5.0383,-5.0255,-5.0054,-5.0581,-5.0914,-5.0898,-5.0898,-5.089,-5.0897,-5.0897,-5.0888,-5.088,-5.0897,-5.0905,-5.0897,-5.0586,-5.0374,-5.0259,-5.0392,-5.104,-5.2281,-5.1972,-5.2684,-5.4239,-5.3067,-5.3179,-5.4215,-5.358,-5.3703,-5.4443,-5.4455,-5.4439,-5.4409,-5.4409,-5.4409,-5.4409,-5.4409,-5.4285,-5.4163,-7.5437,-7.4718,-7.4135,-7.3865,-7.3815,-7.3589,-7.301,-7.2357,-7.1852,-7.1741,-7.0592,-7.0057,-7.0709,-7.0306,-6.9967,-6.9891,-6.9948,-6.9715,-6.9043,-6.9053,-6.9115,-6.9196,-6.8678,-6.799,-6.7228,-6.7141,-6.6744,-6.5974,-6.601,-6.6063,-6.6185,-6.6284,-6.6385,-6.6508,-6.6592,-6.6606,-6.6613,-6.6684,-6.6246,-6.5506,-6.5484,-6.454,-6.3081,-6.3101,-6.2605,-6.1874,-6.1876,-6.1844,-6.1815,-6.1816,-6.1738,-6.1701,-6.1707,-6.1699,-6.1529,-6.0679,-5.9276,-5.8183,-5.8992,-5.8566,-5.7908,-5.7899,-5.7309,-5.6686,-5.6698,-5.6666,-5.6596,-5.6601,-5.6601,-5.6363,-5.5531,-5.5411,-5.505,-5.4075,0.0,0.0,-5.2461,-5.2257,-5.1903,-5.1094,-5.0981,-5.0983,-5.0906,-5.0898,-5.0898,-5.0898,-5.0898,-5.0921,-5.088,-5.096,-5.0975,-5.0898,-5.0625,-5.0504,-5.0489,-5.1073,-5.1472,-5.1586,-5.3033,-5.3346,-5.2707,-5.3229,-5.352,-5.3543,-5.3365,-5.3752,-5.4489,-5.4405,-5.4409,-5.4409,-5.4409,-5.4409,-5.4409,-5.4409,-5.4392,-5.4357,-7.5621,-7.5217,-7.4745,-7.3838,-7.374,-7.3426,-7.2365,-7.204,-7.1557,-7.0545,-6.9954,-6.9751,-7.005,-6.9906,-6.9796,-6.9891,-6.9948,-6.9697,-6.8967,-6.8977,-6.8864,-6.8549,-6.7812,-6.7261,-6.7022,-6.6602,-6.6205,-6.5897,-6.6005,-6.6108,-6.6134,-6.6292,-6.6381,-6.6431,-6.6516,-6.6546,-6.6574,-6.6037,-6.5678,-6.5306,-6.4296,-6.3505,-6.2824,-6.2325,-6.1956,-6.1707,-6.1707,-6.1715,-6.1688,-6.1688,-6.1692,-6.1697,-6.1694,-6.1692,-6.1419,-6.0009,-5.8373,-5.7127,-5.7467,-5.7317,-5.7049,-5.7045,-5.6844,-5.6608,-5.6618,-5.6584,-5.6592,-5.6601,-5.6601,-5.6484,-5.6157,-5.6118,-5.5799,-5.4856,0.0,-5.4208,-5.2699,-5.2418,-5.2072,-5.1217,-5.1005,-5.0921,-5.0898,-5.0929,-5.0944,-5.0944,-5.0944,-5.0983,-5.1036,-5.1005,-5.0983,-5.0898,-5.0791,-5.0701,-5.0615,-5.0796,-5.1373,-5.2358,-5.179,-5.2194,-5.3346,-5.2461,-5.2314,-5.2853,-5.3339,-5.3641,-5.3871,-5.4414,-5.4554,-5.4455,-5.4426,-5.4443,-5.4455,-5.4426,-5.4409,-5.4392,-7.5658,-7.5467,-7.5142,-7.3876,-7.3516,-7.3039,-7.198,-7.1626,-7.1008,-6.9704,-6.9577,-6.9597,-6.9597,-6.9717,-6.9777,-6.9891,-6.9701,-6.9375,-6.8929,-6.8498,-6.8095,-6.7684,-6.6892,-6.6518,-6.6559,-6.6128,-6.5897,-6.5897,-6.599,-6.608,-6.6102,-6.6283,-6.6373,-6.6406,-6.6439,-6.6508,-6.6514,-6.5667,-6.5154,-6.4827,-6.3463,-6.2751,-6.2418,-6.1833,-6.1627,-6.1699,-6.1699,-6.1707,-6.1718,-6.1718,-6.1686,-6.1653,-6.1371,-6.0905,-6.0247,-5.9029,-5.7705,-5.6619,-5.6608,-5.6614,-5.658,-5.6618,-5.661,-5.6608,-5.6614,-5.6618,-5.6587,-5.6599,-5.66,-5.6523,-5.6242,-5.6201,-5.5959,-5.5324,-5.4989,-5.4332,-5.3088,-5.2624,-5.2098,-5.1212,-5.1027,-5.0975,-5.0975,-5.1005,-5.102,-5.1005,-5.1005,-5.102,-5.108,-5.1005,-5.0975,-5.0921,-5.0921,-5.0872,-5.0764,-5.0615,-5.1233,-5.2526,-5.1505,-5.1891,-5.3503,-5.2178,-5.1934,-5.2489,-5.3054,-5.3345,-5.3543,-5.4343,-5.4673,-5.4538,-5.4455,-5.4455,-5.4505,-5.4439,-5.4426,-5.4392,-7.5629,-7.542,-7.5033,-7.3977,-7.3105,-7.2365,-7.198,-7.1109,-7.0223,-6.9487,-6.9515,-6.9577,-6.9597,-6.9776,-6.9891,-6.9891,-6.9096,-6.8695,-6.8873,-6.7496,-6.6713,-6.6713,-6.5982,-6.5594,-6.5594,-6.5781,-6.5897,-6.5897,-6.5982,-6.6036,-6.6102,-6.6254,-6.6358,-6.6398,-6.6406,-6.6431,-6.6438,-6.5615,-6.4791,-6.3941,-6.3185,-6.2362,-6.1599,-6.1599,-6.1627,-6.1699,-6.1699,-6.1707,-6.1718,-6.1718,-6.1718,-6.1562,-6.0666,-5.9183,-5.7816,-5.7816,-5.7239,-5.6618,-5.6608,-5.6614,-5.6618,-5.6608,-5.6606,-5.6606,-5.6606,-5.6614,-5.6584,-5.6592,-5.6597,-5.6327,-5.5468,-5.5308,-5.5296,-5.521,-5.4482,-5.3861,-5.3789,-5.2991,-5.2096,-5.1202,-5.1102,-5.1101,-5.1101,-5.1101,-5.1087,-5.1012,-5.1005,-5.1005,-5.1005,-5.0921,-5.0921,-5.1005,-5.0921,-5.0898,-5.0898,-5.0773,-5.1068,-5.1813,-5.2631,-5.29,-5.2705,-5.2705,-5.2666,-5.2563,-5.2451,-5.2873,-5.364,-5.4242,-5.4571,-5.4673,-5.4538,-5.4505,-5.4505,-5.4505,-5.4455,-5.4392,-7.5547,-7.4976,-7.4376,-7.3776,-7.3031,-7.2341,-7.1832,-7.1028,-7.0223,-6.9487,-6.9332,-6.9411,-6.9577,-6.9637,-6.951,-6.9058,-6.8754,-6.8184,-6.7199,-6.6249,-6.5734,-6.5796,-6.5633,-6.5523,-6.5523,-6.5715,-6.582,-6.582,-6.5919,-6.6013,-6.6036,-6.6234,-6.634,-6.6403,-6.6389,-6.6112,-6.5537,-6.4733,-6.391,-6.3085,-6.2268,-6.1792,-6.1616,-6.1616,-6.1599,-6.1623,-6.1638,-6.1654,-6.1707,-6.1715,-6.1718,-6.1562,-6.0666,-5.9183,-5.7816,-5.7816,-5.7233,-5.661,-5.6606,-5.6608,-5.661,-5.6606,-5.6606,-5.6606,-5.6606,-5.6619,-5.6591,-5.6592,-5.6599,-5.6523,-5.6249,-5.57,-5.5261,-5.521,-5.4459,-5.366,-5.2977,-5.2658,-5.2125,-5.1202,-5.1102,-5.1101,-5.1101,-5.1082,-5.1095,-5.1089,-5.1062,-5.102,-5.0921,-5.0906,-5.0906,-5.0921,-5.0906,-5.0898,-5.0898,-5.1391,-5.1992,-5.2761,-5.2861,-5.2912,-5.2853,-5.2743,-5.2044,-5.1002,-5.2726,-5.3228,-5.2945,-5.4254,-5.4783,-5.4752,-5.4571,-5.4587,-5.4705,-5.4526,-5.451,-5.4576,-7.5076,-7.4505,-7.408,-7.365,-7.2708,-7.1944,-7.1749,-7.0743,-6.9847,-6.9449,-6.939,-6.9432,-6.9577,-6.9657,-6.9416,-6.8679,-6.8033,-6.7212,-6.5982,-6.5547,-6.5321,-6.5413,-6.542,-6.5465,-6.5494,-6.5646,-6.5715,-6.5715,-6.5883,-6.5978,-6.5978,-6.6155,-6.6303,-6.6358,-6.6045,-6.563,-6.5126,-6.3973,-6.3191,-6.2672,-6.1824,-6.15,-6.1554,-6.1602,-6.1582,-6.1603,-6.1619,-6.1641,-6.166,-6.132,-6.0739,-6.008,-5.9534,-5.8441,-5.7348,-5.7348,-5.6996,-5.6606,-5.661,-5.6612,-5.6612,-5.6612,-5.6608,-5.6606,-5.6606,-5.6618,-5.6511,-5.6162,-5.6091,-5.5976,-5.5624,-5.5155,-5.4757,-5.4718,-5.4008,-5.3208,-5.2615,-5.2222,-5.1763,-5.1197,-5.1101,-5.1102,-5.114,-5.1121,-5.1121,-5.1095,-5.1048,-5.099,-5.0906,-5.0898,-5.0898,-5.0898,-5.1215,-5.1409,-5.1409,-5.2507,-5.3128,-5.3186,-5.3091,-5.315,-5.3362,-5.3314,-5.2514,-5.1256,-5.3109,-5.3549,-5.31,-5.4352,-5.486,-5.4829,-5.4705,-5.4689,-5.4736,-5.4543,-5.4493,-5.4493,-7.4384,-7.4136,-7.3969,-7.3539,-7.2261,-7.1345,-7.1539,-7.0233,-6.9225,-6.9332,-6.9495,-6.9556,-6.9577,-6.9681,-6.9418,-6.8546,-6.7045,-6.588,-6.5237,-6.5226,-6.5305,-6.5398,-6.5398,-6.5405,-6.5494,-6.5552,-6.5594,-6.5594,-6.5808,-6.5869,-6.5893,-6.6102,-6.6205,-6.6273,-6.5458,-6.5084,-6.4978,-6.3376,-6.2665,-6.2523,-6.1773,-6.1489,-6.1495,-6.1559,-6.1582,-6.1599,-6.1526,-6.1513,-6.1462,-6.057,-5.9173,-5.7816,-5.7816,-5.7231,-5.6606,-5.6606,-5.6606,-5.6608,-5.6618,-5.658,-5.658,-5.658,-5.6614,-5.6606,-5.6606,-5.6538,-5.6273,-5.5576,-5.5308,-5.496,-5.4258,-5.3984,-5.3862,-5.3877,-5.3162,-5.2554,-5.2497,-5.1749,-5.1211,-5.1211,-5.1164,-5.1125,-5.1202,-5.1196,-5.1172,-5.1101,-5.099,-5.0906,-5.0898,-5.0898,-5.0898,-5.0898,-5.1679,-5.2066,-5.2066,-5.3602,-5.3994,-5.3311,-5.3387,-5.3673,-5.4129,-5.419,-5.3619,-5.2678,-5.3514,-5.384,-5.386,-5.4534,-5.4845,-5.4905,-5.4905,-5.4827,-5.4689,-5.463,-5.448,-5.4308,-7.4273,-7.3684,-7.3118,-7.272,-7.1912,-7.1111,-7.0523,-6.9746,-6.916,-6.9094,-6.9203,-6.939,-6.9577,-6.9013,-6.8355,-6.7562,-6.601,-6.504,-6.5044,-6.5078,-6.5161,-6.5305,-6.5305,-6.5352,-6.5444,-6.5479,-6.5523,-6.5523,-6.569,-6.582,-6.5893,-6.6013,-6.6134,-6.6264,-6.5392,-6.4701,-6.4116,-6.3092,-6.2274,-6.1674,-6.1556,-6.1507,-6.1495,-6.1559,-6.1612,-6.1504,-6.0875,-6.0655,-6.0552,-5.9678,-5.8673,-5.7816,-5.7816,-5.7237,-5.6618,-5.6618,-5.6618,-5.6618,-5.658,-5.6616,-5.6608,-5.6608,-5.6614,-5.6618,-5.6618,-5.6082,-5.5738,-5.6207,-5.5233,-5.4414,-5.4922,-5.3906,-5.2967,-5.2983,-5.2232,-5.1667,-5.1604,-5.1416,-5.1273,-5.1211,-5.118,-5.1192,-5.1202,-5.1139,-5.1108,-5.1101,-5.102,-5.0975,-5.0898,-5.0898,-5.0898,-5.0898,-5.1091,-5.1199,-5.1167,-5.1473,-5.2557,-5.4294,-5.4949,-5.4934,-5.4342,-5.425,-5.3692,-5.2879,-5.3528,-5.3826,-5.393,-5.4609,-5.4905,-5.4943,-5.551,-5.5397,-5.492,-5.5357,-5.5053,-5.4405,-7.3757,-7.3278,-7.2859,-7.2459,-7.1776,-7.1013,-7.0228,-6.9612,-6.9138,-6.9027,-6.9225,-6.9282,-6.8967,-6.8616,-6.775,-6.6144,-6.5199,-6.4608,-6.444,-6.4799,-6.5111,-6.5274,-6.529,-6.5321,-6.5413,-6.542,-6.5435,-6.5435,-6.5594,-6.5717,-6.5833,-6.5955,-6.5876,-6.5615,-6.4735,-6.3947,-6.3192,-6.2377,-6.1762,-6.1415,-6.1466,-6.1495,-6.1512,-6.1554,-6.1334,-6.0915,-6.0527,-5.9875,-5.9102,-5.8634,-5.7894,-5.7185,-5.7235,-5.6926,-5.6614,-5.6619,-5.6582,-5.6584,-5.6591,-5.6589,-5.6587,-5.6587,-5.6592,-5.6594,-5.6584,-5.6239,-5.5933,-5.5974,-5.5233,-5.4492,-5.4141,-5.332,-5.2576,-5.2163,-5.1687,-5.1396,-5.132,-5.1295,-5.1278,-5.1196,-5.1219,-5.1192,-5.1145,-5.1108,-5.1075,-5.1034,-5.0998,-5.0929,-5.0898,-5.0898,-5.0898,-5.0898,-5.1293,-5.1517,-5.1531,-5.1901,-5.2726,-5.4042,-5.4015,-5.3926,-5.3782,-5.4123,-5.3966,-5.3515,-5.4166,-5.4438,-5.4434,-5.4775,-5.5148,-5.5527,-5.5481,-5.5662,-5.5917,-5.5814,-5.5662,-5.5373,-7.3167,-7.2871,-7.2637,-7.2211,-7.1527,-7.0779,-6.9971,-6.9432,-6.9078,-6.8818,-6.9101,-6.8967,-6.8077,-6.7899,-6.6919,-6.4669,-6.4367,-6.406,-6.3588,-6.4213,-6.4698,-6.5051,-6.5051,-6.5137,-6.5368,-6.5368,-6.5383,-6.5413,-6.5509,-6.5608,-6.5703,-6.5741,-6.5434,-6.4855,-6.3923,-6.3097,-6.2452,-6.1718,-6.1359,-6.1373,-6.1453,-6.1484,-6.149,-6.1393,-6.0945,-6.0252,-6.0059,-5.8946,-5.7593,-5.759,-5.712,-5.6519,-5.6577,-5.6616,-5.6612,-5.6582,-5.6585,-5.6588,-5.6597,-5.6599,-5.656,-5.6403,-5.6366,-5.6366,-5.6394,-5.6396,-5.6206,-5.5623,-5.5155,-5.4452,-5.3164,-5.2695,-5.2225,-5.1537,-5.1414,-5.1394,-5.1308,-5.1291,-5.1273,-5.1224,-5.1208,-5.1181,-5.1121,-5.1082,-5.1087,-5.1012,-5.0929,-5.0898,-5.0898,-5.0898,-5.0898,-5.0898,-5.1602,-5.1989,-5.1981,-5.2677,-5.3,-5.2949,-5.2307,-5.2493,-5.3402,-5.4241,-5.454,-5.4432,-5.4944,-5.513,-5.5042,-5.4927,-5.5337,-5.5943,-5.5489,-5.6002,-5.6857,-5.6158,-5.6138,-5.6239,-7.3084,-7.2391,-7.1696,-7.1167,-7.0524,-6.9791,-6.8851,-6.8898,-6.8743,-6.7898,-6.8044,-6.7936,-6.7153,-6.5916,-6.4728,-6.3761,-6.2967,-6.2549,-6.2576,-6.2707,-6.3137,-6.3959,-6.3997,-6.4389,-6.521,-6.5248,-6.5274,-6.5413,-6.5429,-6.5479,-6.5622,-6.5,-6.4752,-6.4751,-6.3245,-6.2548,-6.2448,-6.1646,-6.1299,-6.1337,-6.1447,-6.1484,-6.1412,-6.0731,-6.0399,-6.0092,-5.8652,-5.7562,-5.6772,-5.6744,-5.6665,-5.6579,-5.658,-5.6585,-5.6591,-5.6591,-5.6595,-5.6598,-5.6599,-5.6597,-5.6438,-5.5656,-5.5465,-5.5467,-5.5465,-5.5467,-5.5664,-5.6289,-5.4648,-5.3203,-5.3711,-5.2578,-5.1522,-5.1419,-5.1414,-5.1396,-5.1328,-5.13,-5.1278,-5.1206,-5.1197,-5.1157,-5.1121,-5.1082,-5.1087,-5.1012,-5.0929,-5.0898,-5.0898,-5.0898,-5.0898,-5.0898,-5.1014,-5.1075,-5.1082,-5.1197,-5.1219,-5.1177,-5.1773,-5.2913,-5.44,-5.5257,-5.5612,-5.557,-5.5313,-5.521,-5.5261,-5.5,-5.4958,-5.5223,-5.655,-5.6762,-5.6374,-5.6698,-5.6341,-5.5713,-7.2907,-7.2226,-7.1537,-7.1094,-7.04,-6.9629,-6.8846,-6.8869,-6.8661,-6.7726,-6.7916,-6.7597,-6.6281,-6.4744,-6.3559,-6.2836,-6.2438,-6.2057,-6.1705,-6.2122,-6.261,-6.3052,-6.3052,-6.3291,-6.3807,-6.4225,-6.4311,-6.394,-6.4879,-6.5199,-6.4862,-6.4616,-6.4061,-6.3268,-6.2673,-6.2191,-6.1733,-6.1422,-6.1314,-6.1359,-6.1447,-6.1217,-6.0772,-6.0438,-5.972,-5.8749,-5.7499,-5.686,-5.6567,-5.6582,-5.6582,-5.6536,-5.6585,-5.6591,-5.6593,-5.6596,-5.6598,-5.6599,-5.6599,-5.6598,-5.6401,-5.5503,-5.5309,-5.5311,-5.5312,-5.5312,-5.539,-5.5781,-5.4961,-5.3984,-5.3398,-5.3047,-5.2538,-5.1545,-5.1418,-5.1396,-5.1292,-5.1304,-5.1273,-5.1196,-5.1192,-5.1178,-5.1127,-5.1107,-5.1073,-5.0937,-5.0914,-5.0898,-5.0898,-5.0898,-5.0898,-5.0898,-5.0921,-5.0897,-5.088,-5.088,-5.1104,-5.155,-5.2442,-5.3245,-5.3974,-5.4805,-5.5442,-5.5827,-5.5531,-5.5364,-5.5301,-5.5099,-5.526,-5.564,-5.5906,-5.6034,-5.6037,-5.611,-5.6514,-5.6853]},{"header":{"parameterUnit":"m.s-1","parameterCategory":1,"la1":30.6,"la2":28.766,"lo1":-90.7593,"lo2":-88.6598,"dy":0.0162,"dx":0.0183,"nx":116,"ny":114,"refTime":"2024-05-09T12:00:00:Z","depth":0,"parameterNumber":3,"parameterNumberName":"V-component_of_WINDS"},"data":[0.0,0.0,0.0,0.0,0.0,0.0,0.0,0.0,0.0,0.0,0.0,0.0,0.0,0.0,0.0,0.0,0.0,0.0,0.0,0.0,0.0,0.0,0.0,0.0,0.0,0.0,0.0,0.0,0.0,0.0,0.0,0.0,0.0,0.0,0.0,0.0,0.0,0.0,0.0,0.0,0.0,0.0,0.0,0.0,0.0,0.0,0.0,0.0,0.0,0.0,0.0,0.0,0.0,0.0,0.0,0.0,0.0,0.0,0.0,0.0,0.0,0.0,0.0,0.0,0.0,0.0,0.0,0.0,0.0,0.0,0.0,0.0,0.0,0.0,0.0,0.0,0.0,0.0,0.0,0.0,0.0,0.0,0.0,0.0,0.0,0.0,0.0,0.0,0.0,0.0,0.0,0.0,0.0,0.0,0.0,0.0,0.0,0.0,0.0,0.0,0.0,0.0,0.0,0.0,0.0,0.0,0.0,0.0,0.0,0.0,0.0,0.0,0.0,0.0,0.0,0.0,0.0,0.0,0.0,0.0,0.0,0.0,0.0,0.0,0.0,0.0,0.0,0.0,0.0,0.0,0.0,0.0,0.0,0.0,0.0,0.0,0.0,0.0,0.0,0.0,0.0,0.0,0.0,0.0,0.0,0.0,0.0,0.0,0.0,0.0,0.0,0.0,0.0,0.0,0.0,0.0,0.0,0.0,0.0,0.0,0.0,0.0,0.0,0.0,0.0,0.0,0.0,0.0,0.0,0.0,0.0,0.0,0.0,0.0,0.0,0.0,0.0,0.0,0.0,0.0,0.0,0.0,0.0,0.0,0.0,0.0,0.0,0.0,0.0,0.0,0.0,0.0,0.0,0.0,0.0,0.0,0.0,0.0,0.0,0.0,0.0,0.0,0.0,0.0,0.0,0.0,0.0,0.0,0.0,0.0,0.0,0.0,0.0,0.0,0.0,0.0,0.0,0.0,0.0,0.0,0.0,0.0,0.0,0.0,0.0,0.0,0.0,0.0,0.0,0.0,0.0,0.0,0.0,0.0,0.0,0.0,0.0,0.0,0.0,0.0,0.0,0.0,0.0,0.0,0.0,0.0,0.0,0.0,0.0,0.0,0.0,0.0,0.0,0.0,0.0,0.0,0.0,0.0,0.0,0.0,0.0,0.0,0.0,0.0,0.0,0.0,0.0,0.0,0.0,0.0,0.0,0.0,0.0,0.0,0.0,0.0,0.0,0.0,0.0,0.0,0.0,0.0,0.0,0.0,0.0,0.0,0.0,0.0,0.0,0.0,0.0,0.0,0.0,0.0,0.0,0.0,0.0,0.0,0.0,0.0,0.0,0.0,0.0,0.0,0.0,0.0,0.0,0.0,0.0,0.0,0.0,0.0,0.0,0.0,0.0,0.0,0.0,0.0,0.0,0.0,0.0,0.0,0.0,0.0,0.0,0.0,0.0,0.0,0.0,0.0,0.0,0.0,0.0,0.0,0.0,0.0,0.0,0.0,0.0,0.0,0.0,0.0,0.0,0.0,0.0,0.0,0.0,0.0,0.0,0.0,0.0,0.0,0.0,0.0,0.0,0.0,0.0,0.0,0.0,0.0,0.0,0.0,0.0,0.0,0.0,0.0,0.0,0.0,0.0,0.0,0.0,0.0,0.0,0.0,0.0,0.0,0.0,0.0,0.0,0.0,0.0,0.0,0.0,0.0,0.0,0.0,0.0,0.0,0.0,0.0,0.0,0.0,0.0,0.0,0.0,0.0,0.0,0.0,0.0,0.0,0.0,0.0,0.0,0.0,0.0,0.0,0.0,0.0,0.0,0.0,0.0,0.0,0.0,0.0,0.0,0.0,0.0,0.0,0.0,0.0,0.0,0.0,0.0,0.0,0.0,0.0,0.0,0.0,0.0,0.0,0.0,0.0,0.0,0.0,0.0,0.0,0.0,0.0,0.0,0.0,0.0,0.0,0.0,0.0,0.0,0.0,0.0,0.0,0.0,0.0,0.0,0.0,0.0,0.0,0.0,0.0,0.0,0.0,0.0,0.0,0.0,0.0,0.0,0.0,0.0,0.0,0.0,0.0,0.0,0.0,0.0,0.0,0.0,0.0,0.0,0.0,0.0,0.0,0.0,0.0,0.0,0.0,0.0,0.0,0.0,0.0,0.0,0.0,0.0,0.0,0.0,0.0,0.0,0.0,0.0,0.0,0.0,0.0,0.0,0.0,0.0,0.0,0.0,0.0,0.0,0.0,0.0,0.0,0.0,0.0,0.0,0.0,0.0,0.0,0.0,0.0,0.0,0.0,0.0,0.0,0.0,0.0,0.0,0.0,0.0,0.0,0.0,0.0,0.0,0.0,0.0,0.0,0.0,0.0,0.0,0.0,0.0,0.0,0.0,0.0,0.0,0.0,0.0,0.0,0.0,0.0,0.0,0.0,0.0,0.0,0.0,0.0,0.0,0.0,0.0,0.0,0.0,0.0,0.0,0.0,0.0,0.0,0.0,0.0,0.0,0.0,0.0,0.0,0.0,0.0,0.0,0.0,0.0,0.0,0.0,0.0,0.0,0.0,0.0,0.0,0.0,0.0,0.0,0.0,0.0,0.0,0.0,0.0,0.0,0.0,0.0,0.0,0.0,0.0,0.0,0.0,0.0,0.0,0.0,0.0,0.0,0.0,0.0,0.0,0.0,0.0,0.0,0.0,0.0,0.0,0.0,0.0,0.0,0.0,0.0,0.0,0.0,0.0,0.0,0.0,0.0,0.0,0.0,0.0,0.0,0.0,0.0,0.0,0.0,0.0,0.0,0.0,0.0,0.0,0.0,0.0,0.0,0.0,0.0,0.0,0.0,0.0,0.0,0.0,0.0,0.0,0.0,0.0,0.0,0.0,0.0,0.0,0.0,0.0,0.0,0.0,0.0,0.0,0.0,0.0,0.0,0.0,0.0,0.0,0.0,0.0,0.0,0.0,0.0,0.0,0.0,0.0,0.0,0.0,0.0,0.0,0.0,0.0,0.0,0.0,0.0,0.0,0.0,0.0,0.0,0.0,0.0,0.0,0.0,0.0,0.0,0.0,0.0,0.0,0.0,0.0,0.0,0.0,0.0,0.0,0.0,0.0,0.0,0.0,0.0,0.0,0.0,0.0,0.0,0.0,0.0,0.0,0.0,0.0,0.0,0.0,0.0,0.0,0.0,0.0,0.0,0.0,0.0,0.0,0.0,0.0,0.0,0.0,0.0,0.0,0.0,0.0,0.0,0.0,0.0,0.0,0.0,0.0,0.0,0.0,0.0,0.0,0.0,0.0,0.0,0.0,0.0,0.0,0.0,0.0,0.0,0.0,0.0,0.0,0.0,0.0,0.0,0.0,0.0,0.0,0.0,0.0,0.0,0.0,0.0,0.0,0.0,0.0,0.0,0.0,0.0,0.0,0.0,0.0,0.0,0.0,0.0,0.0,0.0,0.0,0.0,0.0,0.0,0.0,0.0,0.0,0.0,0.0,0.0,0.0,0.0,0.0,0.0,0.0,0.0,0.0,0.0,0.0,0.0,0.0,0.0,0.0,0.0,0.0,0.0,0.0,0.0,0.0,0.0,0.0,0.0,0.0,0.0,0.0,0.0,0.0,0.0,0.0,0.0,0.0,0.0,0.0,0.0,0.0,0.0,0.0,0.0,0.0,0.0,0.0,0.0,0.0,0.0,0.0,0.0,0.0,0.0,0.0,0.0,0.0,0.0,0.0,0.0,0.0,0.0,0.0,0.0,0.0,0.0,0.0,0.0,0.0,0.0,0.0,0.0,0.0,0.0,0.0,0.0,0.0,0.0,0.0,0.0,0.0,0.0,0.0,0.0,0.0,0.0,0.0,0.0,0.0,0.0,0.0,0.0,0.0,0.0,0.0,0.0,0.0,0.0,0.0,0.0,0.0,0.0,0.0,0.0,0.0,0.0,0.0,0.0,0.0,0.0,0.0,0.0,0.0,0.0,0.0,0.0,0.0,0.0,0.0,0.0,0.0,0.0,0.0,0.0,0.0,0.0,0.0,0.0,0.0,0.0,0.0,0.0,0.0,0.0,0.0,0.0,0.0,0.0,0.0,0.0,0.0,0.0,0.0,0.0,0.0,0.0,0.0,0.0,0.0,0.0,0.0,0.0,0.0,0.0,0.0,0.0,0.0,0.0,0.0,0.0,0.0,0.0,0.0,0.0,0.0,0.0,0.0,0.0,0.0,0.0,0.0,0.0,0.0,0.0,0.0,0.0,0.0,0.0,0.0,0.0,0.0,0.0,0.0,0.0,0.0,0.0,0.0,0.0,0.0,0.0,0.0,0.0,0.0,0.0,0.0,0.0,0.0,0.0,0.0,0.0,0.0,0.0,0.0,0.0,0.0,0.0,0.0,0.0,0.0,0.0,0.0,0.0,0.0,0.0,0.0,0.0,0.0,0.0,0.0,0.0,0.0,0.0,0.0,0.0,0.0,0.0,0.0,0.0,0.0,0.0,0.0,0.0,0.0,0.0,0.0,0.0,0.0,0.0,0.0,0.0,0.0,0.0,0.0,0.0,0.0,0.0,0.0,0.0,0.0,0.0,0.0,0.0,0.0,0.0,0.0,0.0,0.0,0.0,0.0,0.0,0.0,0.0,0.0,0.0,0.0,0.0,0.0,0.0,0.0,0.0,0.0,0.0,0.0,0.0,0.0,0.0,0.0,0.0,0.0,0.0,0.0,0.0,0.0,0.0,0.0,0.0,0.0,0.0,0.0,0.0,0.0,0.0,0.0,0.0,0.0,0.0,0.0,0.0,0.0,0.0,0.0,0.0,0.0,0.0,0.0,0.0,0.0,0.0,0.0,0.0,0.0,0.0,0.0,0.0,0.0,0.0,0.0,0.0,0.0,0.0,0.0,0.0,0.0,0.0,0.0,0.0,0.0,0.0,0.0,0.0,0.0,0.0,0.0,0.0,0.0,0.0,0.0,0.0,0.0,0.0,0.0,0.0,0.0,0.0,0.0,0.0,0.0,0.0,0.0,0.0,0.0,0.0,0.0,0.0,0.0,0.0,0.0,0.0,0.0,0.0,0.0,0.0,0.0,0.0,0.0,0.0,0.0,0.0,0.0,0.0,0.0,0.0,0.0,0.0,0.0,0.0,0.0,0.0,0.0,0.0,0.0,0.0,0.0,0.0,0.0,0.0,0.0,0.0,0.0,0.0,0.0,0.0,0.0,0.0,0.0,0.0,0.0,0.0,0.0,0.0,0.0,0.0,0.0,0.0,0.0,0.0,0.0,0.0,0.0,0.0,0.0,0.0,0.0,0.0,0.0,0.0,0.0,0.0,0.0,0.0,0.0,0.0,0.0,0.0,0.0,0.0,0.0,0.0,0.0,0.0,0.0,0.0,0.0,0.0,0.0,0.0,0.0,0.0,0.0,0.0,0.0,0.0,0.0,0.0,0.0,0.0,0.0,0.0,0.0,0.0,0.0,0.0,0.0,0.0,0.0,0.0,0.0,0.0,0.0,0.0,0.0,0.0,0.0,0.0,0.0,0.0,0.0,0.0,0.0,0.0,0.0,0.0,0.0,0.0,0.0,0.0,0.0,0.0,0.0,0.0,0.0,0.0,0.0,0.0,0.0,0.0,0.0,0.0,0.0,0.0,0.0,0.0,0.0,0.0,0.0,0.0,0.0,0.0,0.0,0.0,0.0,0.0,0.0,0.0,0.0,0.0,0.0,0.0,0.0,0.0,0.0,0.0,0.0,0.0,0.0,0.0,0.0,0.0,0.0,0.0,0.0,0.0,0.0,0.0,0.0,0.0,0.0,0.0,0.0,0.0,0.0,0.0,0.0,0.0,0.0,0.0,0.0,0.0,0.0,0.0,0.0,0.0,0.0,0.0,0.0,0.0,0.0,0.0,0.0,0.0,0.0,0.0,0.0,0.0,0.0,0.0,0.0,0.0,0.0,0.0,0.0,0.0,0.0,0.0,0.0,0.0,0.0,0.0,0.0,0.0,0.0,0.0,0.0,0.0,0.0,0.0,0.0,0.0,0.0,0.0,0.0,0.0,0.0,0.0,0.0,0.0,0.0,0.0,0.0,0.0,0.0,0.0,0.0,0.0,0.0,0.0,0.0,-1.0721,0.0,0.0,0.0,0.0,0.0,0.0,0.0,0.0,0.0,0.0,0.0,0.0,0.0,0.0,0.0,0.0,0.0,0.0,0.0,0.0,0.0,0.0,0.0,0.0,0.3102,0.3029,0.2808,0.2792,0.2719,0.2509,0.0,0.0,0.0,0.0,0.0,-0.0185,-0.0554,-0.0886,-0.1143,-0.1633,-0.2204,-0.2849,-0.2576,-0.2555,-0.2815,0.0,0.0,0.0,0.0,0.0,0.0,0.0,0.0,0.0,0.0,0.0,0.0,0.0,0.0,0.0,0.0,0.0,0.0,0.0,0.0,0.0,0.0,0.0,0.0,0.0,0.0,0.0,0.0,0.0,0.0,0.0,0.0,0.0,0.0,0.0,0.0,0.0,0.0,0.0,0.0,0.0,0.0,0.0,0.0,0.0,0.0,0.0,0.0,0.0,0.0,0.0,0.0,0.0,0.0,0.0,0.0,0.0,0.0,0.0,0.0,0.0,0.0,0.0,0.0,0.0,0.0,0.0,0.0,0.0,0.0,0.0,-1.124,0.0,0.0,0.0,0.0,0.0,0.0,0.0,0.0,0.0,0.0,0.0,0.0,0.0,0.0,0.0,0.0,0.0,0.0,0.0,0.0,0.0,0.3199,0.2839,0.2962,0.2921,0.2492,0.2718,0.2777,0.2566,0.2325,0.0,0.0,0.0772,0.0096,-0.0715,-0.1001,-0.1204,-0.1423,-0.2381,-0.3125,-0.3586,-0.343,-0.3549,-0.3839,-0.3598,0.0,0.0,0.0,0.0,0.0,0.0,0.0,0.0,0.0,0.0,0.0,0.0,0.0,0.0,0.0,0.0,0.0,0.0,0.0,0.0,0.0,0.0,0.0,0.0,0.0,0.0,0.0,0.0,0.0,0.0,0.0,0.0,0.0,0.0,0.0,0.0,0.0,0.0,0.0,0.0,0.0,0.0,0.0,0.0,0.0,0.0,0.0,0.0,0.0,0.0,0.0,0.0,0.0,0.0,0.0,0.0,0.0,0.0,0.0,0.0,0.0,0.0,0.0,-0.7983,-0.9292,-1.0877,-1.133,-1.2049,-1.2994,-1.2572,-1.2335,-1.2344,0.0,0.0,0.0,0.0,0.0,0.0,0.0,0.0,0.0,0.0,0.0,0.0,0.0,0.0,0.0,0.0,0.0,0.0,0.0,0.0,0.2974,0.2831,0.2708,0.2477,0.2037,0.2462,0.2543,0.2054,0.2204,0.2034,0.1484,0.1019,0.0388,-0.0429,-0.0715,-0.1299,-0.2255,-0.3133,-0.3675,-0.3847,-0.4306,-0.4773,-0.5279,-0.4023,-0.3613,-0.3793,0.0,0.0,0.0,0.0,0.0,0.0,0.0,0.0,0.0,0.0,0.0,0.0,0.0,0.0,0.0,0.0,0.0,0.0,0.0,0.0,0.0,0.0,0.0,0.0,0.0,0.0,0.0,0.0,0.0,0.0,0.0,0.0,0.0,0.0,0.0,0.0,0.0,0.0,0.0,0.0,0.0,0.2706,0.2631,0.0,0.0,0.0,0.0,0.0,0.0,0.0,0.0,0.0,0.0,0.0,0.0,0.0,0.0,-0.5357,-0.6348,-0.7124,-0.7636,-0.8141,-0.9365,-1.118,-1.1542,-1.2642,-1.4264,-1.4168,0.0,-1.2609,-1.2543,0.0,0.0,0.0,0.0,0.0,0.0,0.0,0.0,0.0,0.0,0.0,0.0,0.0,0.0,0.0,0.0,0.0,0.0,0.0,0.0,0.0,0.2136,0.1968,0.1705,0.2007,0.2066,0.1683,0.1756,0.1699,0.155,0.1064,0.0486,-0.0148,-0.0448,-0.1261,-0.2727,-0.3135,-0.3645,-0.4362,-0.4418,-0.4949,-0.5787,-0.5043,-0.4614,-0.4422,-0.4132,0.0,0.0,0.0,0.0,0.0,0.0,0.0,0.0,0.0,0.0,0.0,0.0,0.0,0.0,0.0,0.0,0.0,0.0,0.0,0.0,0.0,0.0,0.0,0.0,0.0,0.0,0.0,0.0,0.0,0.0,0.0,0.0,0.0,0.0,0.0,0.0,0.0,0.0,0.0,0.2829,0.2131,0.2109,0.1947,0.1408,0.0,0.0,0.0,0.0,0.0,0.0,0.0,0.0,0.0,-0.3815,-0.4655,-0.525,-0.5626,-0.6813,-0.758,-0.7764,-0.8852,-0.9983,-1.1234,-1.1872,-1.309,-1.4691,-1.4691,-1.4618,-1.4477,-1.3855,-1.397,-1.4565,0.0,0.0,0.0,0.0,0.0,-1.8487,0.0,0.0,0.0,0.0,0.0,0.0,0.0,0.0,0.0,0.0,0.0,0.0,0.1623,0.1442,0.1311,0.1111,0.1431,0.1522,0.1291,0.1393,0.143,0.1352,0.1065,0.0587,-0.02,-0.0819,-0.1782,-0.3005,-0.3219,-0.3761,-0.4636,-0.4371,-0.4855,-0.5929,-0.5603,-0.5334,-0.5158,-0.4782,-0.4487,-0.4246,0.0,0.0,0.0,0.0,0.0,0.0,0.0,0.0,0.0,0.0,0.0,0.0,0.0,0.0,0.0,0.0,0.0,0.0,0.0,0.0,0.0,0.0,0.0,0.0,0.0,0.0,0.0,0.0,0.0,0.0,0.0,0.0,0.0,0.0,0.0,0.0,0.0,0.2447,0.1671,0.1695,0.1489,0.0927,0.0,0.0,0.0,0.0,0.0,0.0,-0.3185,-0.3587,-0.3888,-0.3944,-0.4987,-0.5629,-0.5775,-0.7174,-0.7888,-0.8053,-0.9526,-1.0645,-1.149,-1.2348,-1.3554,-1.4973,-1.5229,-1.5609,-1.6056,-1.5187,-1.5242,-1.5938,-1.5639,-1.6879,-1.8683,-1.7847,-1.8728,-2.0367,0.0,0.0,0.0,0.0,0.0,0.0,0.0,0.0,0.0,0.0,0.0,0.123,0.0967,0.0644,0.0348,0.0087,0.071,0.1023,0.074,0.122,0.1249,0.0789,0.1077,0.065,-0.0738,-0.2392,-0.3215,-0.3114,-0.3878,-0.4347,-0.4522,-0.4195,-0.4641,-0.5806,-0.5194,-0.5318,-0.5932,-0.5525,-0.5018,-0.4468,-0.4037,0.0,0.0,0.0,0.0,0.0,0.0,0.0,0.0,0.0,0.0,0.0,0.0,0.0,0.0,0.0,0.0,0.0,0.0,0.0,0.0,0.0,0.0,0.0,0.0,0.0,0.0,0.0,0.0,0.0,0.0,0.0,0.0,0.0,0.0,0.0,0.0,0.0,0.0,0.1637,0.0535,0.0,0.0,0.0,0.0,-0.2198,-0.2581,-0.3197,-0.4289,-0.4422,-0.46,-0.489,-0.5388,-0.5778,-0.6282,-0.7416,-0.825,-0.8636,-0.9862,-1.1077,-1.2158,-1.2757,-1.3849,-1.5388,-1.6286,-1.6745,-1.6698,-1.6283,-1.634,-1.6668,-1.6975,-1.7912,-1.9106,-1.9511,-2.0518,-2.1843,0.0,0.0,0.0,0.0,0.0,0.2218,0.2089,0.1872,0.178,0.1799,0.1201,0.0696,0.0545,0.0,-0.0347,-0.0261,0.0133,0.0356,0.0261,0.0769,0.1124,0.1344,0.1489,0.087,-0.0578,-0.2875,-0.385,-0.3445,-0.411,-0.4457,-0.448,-0.4369,-0.4871,-0.5768,-0.5596,-0.5618,-0.5823,-0.5455,-0.5096,-0.485,-0.43,-0.3604,0.0,0.0,0.0,0.0,0.0,0.0,0.0,0.0,0.0,0.0,0.0,0.0,0.0,0.0,0.0,0.0,0.0,0.0,0.0,0.0,0.0,0.0,0.0,0.0,0.0,0.0,0.0,0.0,0.0,0.0,0.0,0.0,0.0,0.0,0.0,0.0,0.0,0.0184,0.0,0.0,-0.11,-0.0891,-0.1339,-0.2839,-0.31,-0.3441,-0.4085,-0.4673,-0.4772,-0.4453,-0.5535,-0.6148,-0.6078,-0.7751,-0.8826,-0.9382,-1.0992,-1.2161,-1.2919,-1.354,-1.4383,-1.56,-1.6462,-1.7086,-1.759,-1.7919,-1.7905,-1.7749,-1.8589,-1.9113,-1.9531,-2.0879,-2.1382,-2.1632,0.0,0.0,0.0,0.207,0.2047,0.2088,0.2107,0.1801,0.1576,0.1564,0.0761,0.0123,-0.0042,-0.0689,-0.1045,-0.0746,-0.0356,-0.0134,-0.0132,0.0545,0.103,0.1251,0.0994,0.0259,-0.0872,-0.3218,-0.4186,-0.3757,-0.4313,-0.4592,-0.448,-0.4313,-0.4648,-0.5485,-0.5373,-0.5429,-0.5485,-0.5345,-0.5209,-0.4935,-0.4348,-0.3696,-0.2951,0.0,0.0,0.0,0.0,0.0,0.0,0.0,0.0,0.0,0.0,0.0,0.0,0.0,0.0,0.0,0.0,0.0,0.0,0.0,0.0,0.0,0.0,0.0,0.0,0.0,0.0,0.0,0.0,0.0,0.0,0.0,0.0,0.0,0.0,0.012,-0.0568,-0.0708,-0.0656,-0.0937,-0.1636,-0.1624,-0.2039,-0.3267,-0.3511,-0.3763,-0.4243,-0.4749,-0.4849,-0.4543,-0.5624,-0.6316,-0.6645,-0.8317,-0.9536,-1.0329,-1.1945,-1.3067,-1.3683,-1.4301,-1.5155,-1.6175,-1.6898,-1.7669,-1.8494,-1.9233,-1.9449,-1.9271,-1.9244,-1.9383,-1.9772,-2.0622,-2.0916,-2.1177,0.0,0.2075,0.1982,0.2216,0.2212,0.2191,0.2252,0.1973,0.1719,0.1488,0.0361,-0.0538,-0.0778,-0.1434,-0.1709,-0.1431,-0.0807,-0.0403,-0.0403,0.0595,0.0927,0.0418,-0.0442,-0.1142,-0.169,-0.3493,-0.4299,-0.398,-0.4599,-0.4763,-0.4484,-0.3868,-0.4095,-0.4882,-0.4651,-0.4651,-0.4938,-0.5305,-0.5189,-0.4702,-0.416,-0.3701,-0.3226,0.0,0.0,0.0,0.0,0.0,0.0,0.0,0.0,0.0,0.0,0.0,0.0,0.0,0.0,0.0,0.0,0.0,0.0,0.0,0.0,0.0,0.0,0.0,0.0,0.0,0.0,0.0,0.0,0.0,0.0,0.0,0.0,0.0,0.0185,-0.0444,-0.0916,-0.074,-0.1589,-0.2109,-0.1759,-0.2387,-0.3035,-0.3504,-0.3796,-0.4176,-0.4662,-0.4738,-0.4912,-0.5336,-0.572,-0.6485,-0.7845,-0.9096,-1.0287,-1.1538,-1.2724,-1.369,-1.4531,-1.506,-1.5971,-1.7208,-1.7786,-1.8481,-1.9315,-2.0145,-2.0825,-2.1117,-1.8866,-1.8807,-1.9849,-1.8834,-1.9252,-2.0737,0.2101,0.1948,0.1736,0.1712,0.1862,0.1856,0.1481,0.1486,0.1348,0.082,-0.0244,-0.101,-0.0996,-0.1806,-0.2082,-0.1448,-0.1111,-0.0669,-0.0132,0.0368,0.063,0.0666,-0.0316,-0.1245,-0.2055,-0.3836,-0.4516,-0.398,-0.4651,-0.485,-0.4562,-0.4167,-0.4367,-0.5111,-0.4757,-0.4619,-0.4686,-0.4877,-0.4555,-0.3966,-0.4079,-0.3525,-0.2465,0.0,0.0,0.0,0.0,0.0,0.0,0.0,0.0,0.0,0.0,0.0,0.0,0.0,0.0,0.0,0.0,0.0,0.0,0.0,0.0,0.0,0.0,0.0,0.0,0.0,0.0,0.0,0.0,0.0,0.0,0.0,-0.0557,-0.0903,-0.0583,-0.1351,-0.1891,-0.1852,-0.2083,-0.2398,-0.2667,-0.2846,-0.3192,-0.3967,-0.4116,-0.4326,-0.4665,-0.4997,-0.5061,-0.484,-0.637,-0.733,-0.7451,-0.9885,-1.1466,-1.2219,-1.2688,-1.3746,-1.5269,-1.4603,-1.5394,-1.7341,-1.7768,-1.8633,-1.9693,-2.0511,-2.1153,-2.1582,-2.1254,-2.109,-2.1174,-2.1948,-2.3025,-2.4127,0.201,0.1846,0.1628,0.1574,0.1766,0.1758,0.1375,0.1424,0.1257,0.0462,-0.0447,-0.114,-0.1454,-0.2054,-0.2239,-0.1718,-0.1355,-0.0836,-0.0044,0.0325,0.0496,0.0472,-0.0647,-0.1701,-0.2549,-0.4129,-0.4596,-0.398,-0.4641,-0.4832,-0.4545,-0.4125,-0.4274,-0.4951,-0.4589,-0.4409,-0.4473,-0.471,-0.4353,-0.3696,-0.3635,-0.3121,-0.215,-0.0616,0.011,0.0323,0.0692,0.0738,0.0626,0.0304,0.0,0.0,0.0,0.0,0.0,0.0,0.0,0.0,0.0,0.0,0.0,0.0,0.0,0.0,0.0,0.0,0.0,0.0,0.0,0.0,0.0,0.0,0.0,0.0,-0.1112,-0.1424,-0.1744,-0.2208,-0.2536,-0.2569,-0.2719,-0.2963,-0.3325,-0.3437,-0.3714,-0.419,-0.4396,-0.4527,-0.4741,-0.5117,-0.5235,-0.4942,-0.6806,-0.7918,-0.8067,-1.0724,-1.2352,-1.3042,-1.3626,-1.4621,-1.5812,-1.5354,-1.6135,0.0,-1.8187,-1.8936,-2.0145,-2.0748,-2.1499,0.0,0.0,0.0,0.0,0.0,-2.3846,-2.507,0.1923,0.175,0.1601,0.1641,0.1783,0.1817,0.1548,0.162,0.1362,0.034,-0.0402,-0.1089,-0.1892,-0.2226,-0.2277,-0.1938,-0.1501,-0.0871,0.0,0.047,0.0449,-0.0104,-0.1179,-0.213,-0.3012,-0.4114,-0.4484,-0.398,-0.4547,-0.4722,-0.4564,-0.4005,-0.4041,-0.4634,-0.4282,-0.4186,-0.4192,-0.4561,-0.4286,-0.3678,-0.308,-0.2611,-0.2019,-0.023,0.0338,0.0329,0.1097,0.1194,0.0962,0.0579,0.0,0.0,0.0,0.0,0.0,0.0,0.0,0.0,0.0,0.0,0.0,0.0,0.0,0.0,0.0,0.0,0.0,0.0,0.0,0.0,0.0,0.0,0.0,0.0,-0.1503,-0.1769,-0.2919,-0.3044,-0.3021,-0.3056,-0.3352,-0.3665,-0.3795,-0.4093,-0.4318,-0.4399,-0.4654,-0.4871,-0.4842,0.0,0.0,0.0,0.0,-0.8464,-0.9285,-1.146,-1.2908,-1.3744,-1.4875,-1.5718,-1.6203,-1.6483,-1.7321,-1.8567,-1.8567,-1.9315,-2.0522,-2.0985,-2.1885,-2.2868,-2.2165,-2.192,-2.2028,-2.2307,-2.3447,0.0,0.1706,0.16,0.1392,0.1331,0.1644,0.1682,0.1045,0.1517,0.1509,0.034,-0.0396,-0.1029,-0.1678,-0.2279,-0.2323,-0.1514,-0.0986,-0.0444,0.028,0.0571,0.0297,-0.0686,-0.1174,-0.1847,-0.2734,-0.3245,-0.3642,-0.398,-0.4148,-0.4549,-0.5075,-0.4156,-0.416,-0.4804,-0.4219,-0.3962,-0.3965,-0.4029,-0.3658,-0.3017,-0.2689,-0.223,-0.1463,0.0173,0.1079,0.1451,0.1619,0.167,0.1554,0.0996,0.0829,0.0937,0.1246,0.1683,0.0,0.0,0.0,0.0,0.0,0.0,0.0,0.0,0.0,0.0,0.0,0.0,0.0,0.0,0.0,0.0,0.0,0.0,0.0,-0.0843,-0.1323,-0.1979,-0.2864,-0.3304,-0.3513,-0.3597,-0.3612,-0.3765,-0.4197,-0.429,-0.4409,-0.4762,-0.5214,-0.5416,-0.5374,-0.5793,0.0,-0.6385,-0.8102,-0.9218,-0.9661,-1.2166,-1.3553,-1.3737,0.0,0.0,-1.6203,-1.5809,-1.6576,-1.8101,-1.8491,-1.9315,-2.0511,-2.1199,-2.2408,-2.3809,-2.3914,-2.4375,-2.4932,-2.5341,-2.6052,-2.6869,0.1291,0.1116,0.0981,0.1121,0.1336,0.138,0.101,0.1463,0.1443,0.0333,-0.0039,-0.0441,-0.1096,-0.1478,-0.1399,-0.0692,0.0084,0.0437,0.0184,0.0476,0.0099,-0.1191,-0.1704,-0.2178,-0.2658,-0.3238,-0.353,-0.353,-0.3901,-0.4221,-0.4599,-0.3998,-0.4065,-0.4517,-0.4064,-0.3891,-0.3861,-0.3709,-0.3326,-0.2803,-0.2243,-0.1677,-0.1048,0.0349,0.1261,0.1795,0.1626,0.1683,0.1683,0.0897,0.0789,0.0964,0.1406,0.1749,0.2151,0.0,0.0,0.0,0.0,0.0,0.0,0.0,0.0,0.0,0.0,0.0,0.0,0.0,0.0,0.1164,0.0933,0.0,-0.0263,-0.088,-0.1628,-0.2421,-0.3216,-0.3733,-0.4008,-0.4008,-0.4174,-0.4328,-0.4696,-0.4634,-0.4673,-0.4858,-0.532,-0.5612,-0.5574,-0.6145,-0.6572,-0.6672,-0.8578,-0.9687,-0.981,-1.2428,-1.3667,-1.3737,-1.4726,-1.5574,-1.6203,-1.6326,-1.7019,-1.8035,-1.8601,-1.9419,-2.0511,-2.1948,-2.2992,-2.3761,-2.4573,-2.5317,-2.6038,-2.6262,-2.6833,-2.7633,0.0926,0.0616,0.0529,0.0982,0.1096,0.1143,0.1143,0.148,0.1448,0.0541,0.0491,0.0312,-0.039,-0.0517,-0.0361,0.0198,0.1237,0.1334,0.0134,0.0331,-0.0148,-0.1614,-0.228,-0.2617,-0.2625,-0.3392,-0.3645,-0.3194,-0.3701,-0.3986,-0.4114,-0.3885,-0.394,-0.4232,-0.4004,-0.3855,-0.3782,-0.3482,-0.3098,-0.2653,-0.1911,-0.1298,-0.0806,0.0292,0.1036,0.1514,0.1346,0.1458,0.1514,0.0673,0.0682,0.1097,0.1497,0.1737,0.204,0.3018,0.3105,0.0,0.0,0.0,0.0,0.0,0.0,0.0,0.0,0.2552,0.2447,0.1815,0.1518,0.1222,0.0922,0.0332,-0.0338,-0.0984,-0.1783,-0.2621,-0.3565,-0.3982,-0.4232,-0.4485,-0.467,-0.4905,-0.5089,-0.5059,-0.5108,-0.5186,-0.5569,-0.5877,-0.5955,-0.6649,-0.7156,-0.7309,-0.9146,-1.0158,-1.0184,-1.2532,-1.3667,-1.3744,-1.5437,-1.6203,-1.6203,-1.7044,-1.7655,-1.8035,-1.8825,-1.9722,-2.0673,-2.2545,-2.329,-2.3402,-2.4657,-2.5527,-2.6051,-2.6327,-2.7018,-2.7973,0.0886,0.043,0.0216,0.0739,0.1096,0.1277,0.1277,0.1654,0.179,0.1232,0.114,0.0872,0.019,0.0,0.0238,0.1091,0.1857,0.1794,0.0582,0.0327,-0.0437,-0.1913,-0.2358,-0.2584,-0.2625,-0.3001,-0.3306,-0.353,-0.3589,-0.3954,-0.4525,-0.4192,-0.4116,-0.4294,-0.4177,-0.3886,-0.3364,-0.3305,-0.2949,-0.2417,-0.2008,-0.1461,-0.0805,-0.0173,0.0285,0.0617,0.1121,0.1177,0.0953,0.0561,0.0802,0.129,0.1098,0.1421,0.2199,0.343,0.3532,0.354,0.4862,0.49,0.4406,0.4096,0.3391,0.2706,0.0,0.1731,0.1129,0.0721,0.0662,0.0602,0.0537,-0.0069,-0.0554,-0.0544,-0.127,-0.226,-0.3447,-0.3665,-0.4051,-0.4841,-0.4885,-0.5106,-0.5564,-0.5567,-0.5717,-0.6105,-0.6499,-0.6889,-0.7275,-0.7747,-0.8521,-0.9594,-1.0236,-1.0934,-1.1683,-1.3028,-1.3667,-1.3744,-1.5437,-1.6203,-1.6203,-1.7044,-1.7655,-1.8025,-1.9184,-2.0178,-2.1135,-2.2321,-2.293,-2.3104,-2.4521,-2.5152,-2.537,-2.6202,-2.7297,-2.8132,0.0575,0.0357,0.0213,0.0316,0.0617,0.0875,0.0976,0.153,0.1766,0.1285,0.1606,0.1645,0.1078,0.1169,0.1417,0.1788,0.2258,0.1942,0.0647,0.0314,-0.0515,-0.2097,-0.2532,-0.276,-0.2757,-0.3159,-0.3314,-0.3316,-0.3514,-0.3768,-0.402,-0.3853,-0.3771,-0.3653,-0.3618,-0.3334,-0.3018,-0.2789,-0.2543,-0.2236,-0.1795,-0.1323,-0.085,-0.0397,-0.028,-0.0166,0.1118,0.129,0.0,0.1345,0.1547,0.1706,0.1752,0.2155,0.2712,0.3243,0.342,0.3556,0.4108,0.3999,0.3732,0.3601,0.2861,0.2153,0.2208,0.1586,0.103,0.0881,0.0882,0.0881,0.1134,0.0405,-0.0273,-0.027,-0.1321,-0.2508,-0.3421,-0.3777,-0.4219,-0.4831,-0.4823,-0.5075,-0.5639,-0.5426,-0.5473,-0.621,-0.6644,-0.7037,-0.7448,-0.789,-0.8778,-0.9942,-1.0408,-1.1029,-1.1882,-1.312,-1.3814,-1.4122,-1.5514,-1.6357,-1.6586,-1.7121,-1.7798,-1.8595,-1.9443,-2.0373,-2.1353,-2.2552,-2.3079,-2.3204,-2.4635,-2.5201,-2.5304,-2.6252,-2.7051,-2.7692,0.043,0.0318,0.0245,0.0104,0.0307,0.0607,0.091,0.1447,0.174,0.149,0.195,0.2191,0.1875,0.2118,0.2275,0.2275,0.2487,0.2051,0.0797,0.0394,-0.0502,-0.2048,-0.2573,-0.2901,-0.3008,-0.3313,-0.3366,-0.3203,-0.3408,-0.3548,-0.3561,-0.3672,-0.3482,-0.3193,-0.3211,-0.2991,-0.2625,-0.2399,-0.2213,-0.2021,-0.1591,-0.1248,-0.0953,-0.0669,-0.0554,-0.0331,0.106,0.1174,0.078,0.179,0.2064,0.2062,0.2296,0.2586,0.2899,0.3086,0.3413,0.3635,0.3438,0.3296,0.3133,0.3076,0.23,0.163,0.1834,0.134,0.0772,0.0828,0.0825,0.0886,0.1259,0.0466,-0.0202,-0.0201,-0.1301,-0.2533,-0.3397,-0.3727,-0.4068,-0.4584,-0.4432,-0.4691,-0.5581,-0.5446,-0.566,-0.6656,-0.7104,-0.7501,-0.7894,-0.8425,-0.9246,-1.033,-1.0719,-1.134,-1.2192,-1.3197,-1.3968,-1.443,-1.5505,-1.628,-1.6653,-1.7273,-1.8037,-1.8952,-1.954,-2.0395,-2.141,-2.2533,-2.3025,-2.3226,-2.4701,-2.5192,-2.514,-2.6168,-2.6781,-2.7184,0.0546,0.0379,0.0313,0.0305,0.0405,0.0674,0.121,0.1479,0.1749,0.2124,0.2262,0.2342,0.246,0.247,0.251,0.251,0.2567,0.2215,0.1343,0.0613,-0.0365,-0.157,-0.2425,-0.3005,-0.3267,-0.3384,-0.3414,-0.3409,-0.3414,-0.3447,-0.3499,-0.3774,-0.3586,-0.3141,-0.3418,-0.3085,-0.2246,-0.219,-0.2076,-0.1795,-0.1459,-0.1291,-0.1232,-0.0991,-0.0387,0.0392,0.0785,0.0555,0.0219,0.1394,0.2066,0.2415,0.2414,0.2466,0.2652,0.3271,0.3779,0.394,0.3279,0.3191,0.3231,0.2917,0.202,0.1235,0.1219,0.0643,0.0,0.0,0.0,0.0136,0.0464,-0.0067,-0.0536,-0.0529,-0.1216,-0.2153,-0.3351,-0.3149,-0.3253,-0.4149,-0.3531,-0.376,0.0,-0.5969,-0.6737,-0.8067,-0.8159,-0.8544,-0.9319,-0.9708,-1.033,-1.1262,-1.165,-1.2269,-1.3042,-1.3513,-1.3975,-1.4438,-1.5207,-1.582,-1.628,-1.7416,-1.8187,-1.8653,-1.9466,-2.0307,-2.1169,-2.2234,-2.2645,-2.2858,-2.4636,-2.492,-2.4508,-2.5924,-2.6689,-2.6939,0.0612,0.0447,0.0419,0.0312,0.0562,0.0924,0.1348,0.1678,0.1893,0.1923,0.2213,0.0,0.0,0.0,0.0,0.0,0.2847,0.2543,0.1551,0.115,0.0577,-0.0237,-0.0723,-0.1182,-0.1628,-0.1866,-0.2249,-0.2824,-0.3019,-0.3262,-0.3441,-0.3331,-0.3181,-0.3038,-0.2798,-0.2482,-0.2153,-0.1786,-0.157,-0.1458,-0.1177,-0.0897,-0.0672,-0.0223,0.0277,0.0828,0.0,0.1508,0.1335,0.2349,0.2694,0.2708,0.2708,0.2889,0.3216,0.3436,0.3351,0.3189,0.3137,0.3099,0.2986,0.2929,0.2383,0.1894,0.1958,0.1377,0.072,0.042,0.0415,0.0408,0.0458,-0.0131,-0.066,-0.0846,-0.1543,-0.2491,-0.359,-0.3698,-0.3958,-0.476,-0.4711,0.0,0.0,0.0,0.0,-0.7894,-0.7825,-0.813,-0.9208,-0.9669,-1.0323,-1.1262,-1.1568,-1.2176,-1.312,-1.3505,-1.4045,-1.4814,-1.5888,-1.6501,-1.6653,-1.7569,-1.8253,-1.8643,-1.9466,-2.0296,-2.1158,-2.1942,-2.2524,-2.3101,-2.4389,-2.4827,-2.4941,-2.6004,-2.6465,-2.6623,0.0,0.0727,0.0703,0.0638,0.0829,0.0,0.0,0.0,0.0,0.0,0.0,0.0,0.0,0.0,0.0,0.0,0.0,0.2684,0.2012,0.1596,0.1176,0.0657,0.0332,-0.0097,-0.0698,-0.0864,-0.1335,-0.2053,-0.2235,-0.2569,-0.2957,-0.2746,-0.2702,-0.2719,-0.2373,-0.2011,-0.1696,-0.1327,-0.106,-0.0841,-0.0673,-0.0393,-0.0056,0.039,0.1052,0.0,0.1995,0.2342,0.2805,0.2934,0.2879,0.2771,0.3083,0.3335,0.3494,0.3546,0.3269,0.2965,0.3181,0.3271,0.3294,0.3165,0.2681,0.233,0.2319,0.1883,0.151,0.126,0.1033,0.0944,0.091,0.0,-0.0913,-0.1227,-0.1938,-0.2831,-0.3778,-0.3831,-0.409,-0.4918,-0.4976,-0.5336,0.0,0.0,0.0,-0.8125,-0.818,-0.8554,-0.9669,-1.0207,-1.0863,-1.1495,-1.19,-1.2505,-1.3274,-1.3685,-1.4214,-1.5045,-1.6042,-1.6577,-1.6653,-1.7569,-1.8303,-1.8754,-1.9498,-2.0351,-2.1284,-2.1825,-2.2448,-2.3077,-2.412,-2.4723,-2.5056,-2.5924,-2.6306,-2.6465,0.0,0.0,0.1134,0.0,0.0,0.0,0.0,0.0,0.0,0.0,0.0,0.0,0.0,0.0,0.0,0.0,0.0,0.0,0.2684,0.206,0.1515,0.1154,0.0753,0.0288,-0.0343,-0.035,-0.0605,-0.1159,-0.116,-0.1527,-0.207,-0.2072,-0.2143,-0.2231,-0.218,-0.1718,-0.0926,-0.0873,-0.0551,0.0,0.0056,0.0224,0.0448,0.0881,0.1934,0.3019,0.2201,0.2985,0.4267,0.3088,0.256,0.2603,0.361,0.3699,0.348,0.3663,0.3492,0.3312,0.3356,0.3717,0.4021,0.3708,0.3063,0.247,0.2438,0.2288,0.2199,0.2208,0.1831,0.1465,0.149,0.0064,-0.1223,-0.1614,-0.2339,-0.3103,-0.3851,-0.3763,-0.3866,-0.4578,-0.4488,-0.4841,-0.6089,-0.6234,0.0,-0.8755,0.0,-0.9648,-1.0529,-1.1386,-1.1856,-1.1863,-1.2484,-1.3163,-1.3637,-1.3946,-1.441,-1.4952,-1.5812,-1.6203,-1.6203,-1.7493,-1.8372,-1.9034,-1.9572,-2.0428,-2.1425,-2.1872,-2.2341,-2.2834,-2.3844,-2.443,-2.4854,-2.5712,-2.6146,-2.6465,0.0,0.0,0.0,0.0,0.0,0.0,0.0,0.0,0.0,0.0,0.0,0.0,0.0,0.0,0.0,0.0,0.0,0.0,0.3437,0.3109,0.2855,0.2721,0.2685,0.2306,0.1617,0.1063,0.0409,-0.0302,-0.0921,-0.1488,-0.2031,-0.183,-0.1938,-0.2304,-0.1766,-0.1518,-0.1421,-0.0587,-0.0271,-0.022,0.0606,0.0887,0.0953,0.2344,0.3126,0.3415,0.3235,0.3575,0.3933,0.2803,0.2579,0.2891,0.371,0.3602,0.3215,0.333,0.3503,0.3818,0.4108,0.4548,0.4933,0.5168,0.4808,0.4428,0.4371,0.3359,0.2341,0.2208,0.1078,0.0066,0.0065,-0.0571,-0.1451,-0.2672,-0.3068,-0.3696,-0.5023,-0.5248,-0.5364,-0.5874,-0.6282,-0.6746,-0.7373,-0.7759,0.0,0.0,-0.9319,-0.9306,-0.9777,-1.081,-1.1457,-1.1491,-1.2175,-1.2763,-1.3304,-1.414,-1.4657,-1.4773,-1.5752,-1.6203,-1.628,-1.7731,-1.8688,-1.9034,-1.9648,-2.0439,-2.1414,-2.1383,-2.1872,-2.2809,-2.3643,-2.4265,-2.4854,-2.5712,-2.6146,-2.6465,0.0,0.0,0.0,0.0,0.0,0.0,0.0,0.0,0.0,0.0,0.0,0.0,0.0,0.0,0.0,0.0,0.0,0.0,0.0,0.357,0.3359,0.3276,0.3331,0.3209,0.2856,0.2111,0.1586,0.1276,0.0205,-0.0459,-0.0757,-0.0951,-0.1148,-0.1346,-0.1059,-0.0869,-0.0727,-0.0105,0.016,0.0,0.0,0.1359,0.1591,0.2874,0.3603,0.3941,0.3689,0.3605,0.3635,0.3409,0.3339,0.3458,0.3918,0.386,0.3593,0.3644,0.3684,0.3715,0.3923,0.4213,0.4517,0.4738,0.4498,0.4174,0.4122,0.3174,0.23,0.2237,0.0998,0.0,0.0,-0.1088,-0.2245,-0.3175,-0.3922,-0.4704,-0.5547,-0.5777,-0.6047,-0.6627,-0.6965,-0.7423,-0.802,-0.8337,-0.8758,0.0,-0.9564,-0.9913,-1.031,-1.1182,-1.1742,-1.1911,-1.2427,-1.2978,-1.3664,-1.4354,-1.4708,-1.4708,-1.5735,-1.6203,-1.628,-1.7655,-1.8662,-1.9176,0.0,-2.0441,-2.1574,-2.1323,-2.1773,-2.2627,-2.338,-2.4023,-2.4662,-2.5449,-2.6026,-2.6465,0.0,0.0,0.0,0.0,0.0,0.0,0.0,0.0,0.0,0.0,0.4345,0.4462,0.4462,0.4423,0.0,0.0,0.0,0.0,0.0,0.0,0.3439,0.3266,0.3406,0.3477,0.3433,0.2778,0.2549,0.2792,0.1476,0.0807,0.0805,0.0,-0.0245,0.0,-0.0196,-0.005,0.0412,0.0465,0.068,0.0956,0.1327,0.1754,0.2295,0.0,0.366,0.4272,0.3789,0.3457,0.3282,0.4273,0.4301,0.4025,0.4168,0.4161,0.4152,0.4219,0.3842,0.3505,0.3505,0.3569,0.371,0.3855,0.3529,0.3195,0.3217,0.2693,0.2173,0.2179,0.1115,0.0196,0.0258,-0.1625,-0.3233,-0.3481,-0.4592,-0.5541,-0.5841,-0.5915,-0.625,-0.7059,-0.7292,-0.7642,-0.8302,-0.8458,-0.8701,-0.9129,-0.9977,-1.0718,-1.1337,-1.1978,-1.2442,-1.2674,-1.2897,-1.3405,-1.414,-1.4473,-1.4651,-1.4676,-1.5616,-1.6101,-1.6203,-1.7416,-1.8491,-1.928,0.0,0.0,-2.1779,-2.1528,-2.1744,-2.2334,-2.3117,-2.3744,-2.4431,-2.5175,-2.5841,-2.6386,0.0,0.0,0.0,0.0,0.0,0.0,0.0,0.0,0.0,0.0,0.4813,0.4696,0.0,0.0,0.0,0.0,0.0,0.0,0.0,0.0,0.0,0.3537,0.3871,0.3762,0.3192,0.2864,0.2566,0.218,0.1264,0.0702,0.0493,0.0097,-0.0096,-0.0096,0.0146,0.0296,0.0447,0.0857,0.1077,0.12,0.198,0.2365,0.2562,0.3748,0.0,0.0,0.3956,0.3457,0.2994,0.3688,0.3942,0.3979,0.4394,0.4134,0.3706,0.3873,0.3842,0.3855,0.4203,0.4393,0.466,0.5587,0.5251,0.482,0.5311,0.358,0.1941,0.208,0.0129,-0.161,-0.1587,-0.218,-0.2992,-0.3957,-0.4426,-0.5077,-0.6465,-0.6725,-0.6976,-0.7779,-0.8318,-0.8676,-0.875,-0.8844,0.0,0.0,0.0,-1.0449,-1.1036,-1.1787,-1.2518,-1.313,-1.3244,-1.3443,-1.3953,-1.4164,-1.4343,-1.4481,-1.511,-1.5742,-1.6203,-1.7416,-1.8491,-1.9358,0.0,0.0,-2.1779,-2.1528,-2.1744,-2.2358,-2.3016,-2.3681,-2.438,-2.5075,-2.5779,-2.6386,0.0,0.0,0.0,0.0,0.0,0.0,0.4992,0.5255,0.544,0.5583,0.5434,0.5318,0.5318,0.4973,0.4857,0.0,0.0,0.0,0.0,0.0,0.0,0.3983,0.4058,0.3957,0.3667,0.3216,0.2937,0.2864,0.0,0.1041,0.108,0.0476,0.0328,0.0517,0.0719,0.0875,0.1033,0.1002,0.1167,0.1433,0.1912,0.2242,0.2634,0.3733,0.0,0.0,0.4191,0.3717,0.3013,0.3585,0.3702,0.3662,0.4147,0.4123,0.3922,0.3777,0.3801,0.3815,0.3608,0.3713,0.4032,0.4382,0.434,0.407,0.385,0.2406,0.1056,0.0641,-0.0897,-0.2119,-0.2214,-0.2762,-0.3406,-0.4187,-0.4653,-0.5436,-0.6752,-0.6923,-0.7153,-0.7701,-0.804,-0.8285,-0.8724,-0.8646,-0.9179,-1.0699,0.0,-1.0668,-1.1613,-1.233,-1.2904,-1.3325,-1.3468,-1.3682,-1.3904,-1.4083,-1.4221,-1.4302,-1.5018,-1.5572,-1.6054,-1.7217,-1.8201,-1.9196,0.0,0.0,-2.1791,-2.1897,-2.2242,-2.2757,-2.3261,-2.3701,-2.4274,-2.5037,-2.5662,-2.6149,0.0,0.0,0.0,0.0,0.0,0.0,0.5902,0.5874,0.5896,0.6073,0.6054,0.5944,0.575,0.5368,0.5218,0.0,0.0,0.0,0.0,0.0,0.0,0.0,0.0,0.0,0.0,0.0,0.0,0.3657,0.2185,0.0,0.0,0.0,0.0,0.0,0.1174,0.1342,0.1564,0.1096,0.1207,0.0,0.0,0.212,0.0,0.0,0.0,0.0,0.0,0.381,0.3145,0.3543,0.3543,0.3379,0.3825,0.4079,0.4117,0.3879,0.3823,0.3627,0.309,0.3117,0.3279,0.314,0.3239,0.3123,0.2216,0.1325,0.0391,-0.0634,-0.1532,-0.231,-0.2583,-0.3215,-0.3818,-0.4328,-0.4925,-0.5711,-0.6798,-0.6807,-0.7098,-0.8012,-0.7713,-0.7856,-0.9018,-0.8495,0.0,0.0,0.0,0.0,-1.2259,-1.3047,-1.3396,-1.3396,-1.3761,-1.392,-1.3961,-1.4066,-1.4156,-1.4237,-1.4803,-1.5411,-1.5913,-1.6943,-1.7999,-1.9044,0.0,0.0,0.0,-2.2268,-2.2656,-2.3121,-2.3414,-2.3794,-2.4227,-2.4996,-2.5478,-2.5832,0.0,0.0,0.0,0.0,0.0,0.0,0.6559,0.6693,0.6791,0.6804,0.6486,0.6261,0.6222,0.5834,0.5605,0.0,0.0,0.0,0.0,0.0,0.0,0.0,0.0,0.0,0.0,0.0,0.0,0.3587,0.2726,0.0,0.0,0.0,0.0,0.0,0.0,0.1266,0.1484,0.1269,0.0,0.0,0.0,0.0,0.0,0.0,0.0,0.0,0.0,0.3418,0.3145,0.3543,0.3543,0.3367,0.3793,0.3956,0.401,0.412,0.3929,0.3717,0.3698,0.3506,0.3439,0.4126,0.3977,0.3569,0.3103,0.1958,0.0707,-0.0316,-0.1596,-0.2621,-0.2921,-0.3293,-0.3811,-0.4532,-0.4785,-0.5436,-0.7044,-0.6664,-0.7183,-0.9887,-0.826,-0.7955,-1.0562,-0.9105,-0.8697,0.0,0.0,0.0,0.0,-1.3468,-1.3833,-1.3833,-1.3904,-1.3985,-1.4148,-1.4002,-1.4091,-1.4408,-1.444,-1.4993,-1.5913,-1.6934,-1.798,-1.9054,0.0,0.0,0.0,-2.2268,-2.2656,-2.3145,-2.3321,-2.3732,-2.4174,-2.4831,-2.5422,-2.5832,0.0,0.0,0.0,0.0,0.0,0.0,0.7334,0.7299,0.7247,0.728,0.7071,0.6898,0.6686,0.657,0.637,0.607,0.5468,0.0,0.0,0.0,0.0,0.0,0.0,0.0,0.0,0.0,0.4082,0.3765,0.2846,0.0,0.0,0.0,0.0,0.0,0.0,0.1497,0.148,0.112,0.0,0.0,0.0,0.0,0.0,0.0,0.0,0.0,0.0,0.0,0.3155,0.349,0.3434,0.3316,0.3726,0.35,0.3088,0.3181,0.3567,0.3743,0.2973,0.3241,0.3836,0.3902,0.3934,0.3502,0.1929,0.115,0.0253,-0.1623,-0.2439,-0.2941,-0.3216,-0.3575,-0.4082,-0.4891,-0.5219,-0.5859,-0.7091,-0.6954,-0.747,-0.9403,-0.8409,-0.8424,0.0,0.0,0.0,0.0,0.0,0.0,0.0,-1.3611,-1.3904,-1.3904,-1.3904,-1.3993,-1.418,-1.3993,-1.4026,-1.4278,-1.4278,-1.4809,-1.5812,-1.6524,-1.7568,-1.8785,0.0,0.0,0.0,-2.2082,-2.2565,-2.2471,-2.3289,-2.3763,-2.4013,-2.4853,-2.5209,-2.5448,0.0,0.0,0.0,0.0,0.0,0.7729,0.7944,0.7859,0.7728,0.7672,0.7633,0.7462,0.7034,0.7086,0.6962,0.6492,0.5817,0.0,0.0,0.0,0.0,0.0,0.0,0.0,0.0,0.0,0.4431,0.4324,0.3382,0.2716,0.0,0.0,0.1551,0.1342,0.0,0.0,0.0,0.0,0.0,0.0,0.0,0.0,0.0,0.0,0.0,0.0,0.0,0.0,0.0,0.0,0.0,0.3397,0.3669,0.3142,0.2425,0.2437,0.2731,0.2887,0.1941,0.2334,0.3051,0.2867,0.2917,0.2573,0.0704,0.0127,-0.0566,-0.2489,-0.2981,-0.3227,-0.3458,-0.3857,-0.441,-0.5201,-0.5778,-0.6411,-0.7238,-0.7542,-0.7986,-0.8852,0.0,-0.9008,0.0,-1.0327,0.0,0.0,0.0,0.0,0.0,-1.3373,-1.3761,-1.3904,-1.3904,-1.3993,-1.418,-1.405,-1.405,-1.418,-1.4229,-1.4759,-1.5688,-1.6256,-1.7255,0.0,0.0,0.0,0.0,-2.1912,-2.2365,-2.2015,-2.3317,-2.376,-2.392,-2.4811,-2.513,-2.5209,0.0,0.0,0.0,0.0,0.0,0.815,0.8382,0.8384,0.8328,0.8114,0.8102,0.7872,0.7257,0.7188,0.7163,0.6998,0.655,0.0,0.0,0.0,0.0,0.0,0.0,0.0,0.5119,0.5078,0.5176,0.5284,0.4479,0.3828,0.3376,0.2567,0.2082,0.19,0.0,0.0,0.0,0.0,0.0,0.0,0.0,0.0,0.0,0.0,0.0,0.0,0.0,0.0,0.0,0.0,0.0,0.0,0.0,0.3115,0.2364,0.2186,0.1386,0.0634,0.0588,0.0658,0.0726,0.1071,0.0855,0.0388,-0.0328,-0.1031,-0.1702,-0.2334,-0.3028,-0.3517,-0.3527,-0.401,-0.467,-0.5582,-0.631,-0.6987,-0.7631,-0.835,-0.8733,0.0,-0.9251,-0.9765,-0.9642,0.0,0.0,0.0,0.0,0.0,0.0,-1.2592,-1.3468,-1.3904,-1.3904,-1.3993,-1.418,-1.418,-1.418,-1.418,-1.4351,-1.4876,-1.5688,-1.6256,0.0,0.0,0.0,0.0,0.0,-2.1636,-2.2191,-2.2015,-2.3317,-2.376,-2.392,-2.4811,-2.513,-2.5209,0.0,0.0,0.0,0.0,0.0,0.0,0.8998,0.8997,0.8902,0.8542,0.8642,0.8485,0.7889,0.7905,0.7854,0.7556,0.6857,0.0,0.0,0.0,0.0,0.0,0.0,0.0,0.5285,0.5365,0.5327,0.5171,0.4585,0.4137,0.3736,0.3193,0.2675,0.2262,0.22,0.197,0.0,0.0,0.0,0.0,0.0,0.0,0.0,0.0,0.0,0.0,0.0,0.0,0.0,0.0,0.0,0.0,0.0,0.0,0.0,0.0,0.0123,0.0373,-0.0314,-0.0189,0.0189,0.0317,0.0441,0.0125,-0.1196,-0.1501,-0.1863,-0.3169,-0.3606,-0.3787,-0.3769,-0.4318,-0.4857,-0.5322,-0.5925,-0.6835,-0.8128,-0.8636,0.0,-1.016,-1.0946,-1.1399,0.0,0.0,0.0,0.0,0.0,0.0,0.0,0.0,-1.3325,-1.3468,-1.3753,-1.3993,-1.418,-1.405,-1.405,-1.418,-1.4099,-1.4488,-1.5328,-1.5759,0.0,0.0,0.0,0.0,0.0,-2.1108,-2.1494,-2.0891,-2.2834,-2.3466,-2.3502,-2.4673,-2.5003,-2.502,0.0,0.0,0.0,0.0,0.0,0.0,0.9511,0.9511,0.9397,0.9084,0.9135,0.901,0.8379,0.8383,0.8307,0.7902,0.7349,0.0,0.0,0.0,0.0,0.0,0.0,0.0,0.5769,0.5756,0.5657,0.5471,0.5022,0.4661,0.4405,0.3877,0.3376,0.2941,0.2638,0.2152,0.0,0.0,0.0,0.0,0.0,0.0,0.2806,0.0,0.0,0.0,0.0,0.0,0.0,0.0,0.0,0.0,0.0,0.0,0.0,0.0,-0.1082,-0.1093,-0.172,-0.161,-0.1307,-0.119,-0.1061,-0.1243,-0.2177,-0.2416,-0.2652,-0.3579,-0.3828,-0.3951,-0.4071,-0.4868,-0.5474,-0.5575,-0.6434,-0.7279,-0.7749,-0.9058,0.0,-1.234,0.0,0.0,0.0,0.0,0.0,0.0,0.0,0.0,0.0,0.0,-1.349,-1.321,-1.365,-1.3953,-1.4075,-1.4026,-1.4026,-1.4075,-1.4091,-1.444,-1.5115,0.0,0.0,0.0,0.0,0.0,0.0,-2.0756,-2.1182,-2.0527,-2.265,-2.3422,-2.3467,-2.4606,-2.4932,-2.4868,0.0,0.0,0.0,0.0,0.0,0.0,0.0,0.9916,0.9841,0.9663,0.9625,0.9387,0.878,0.8716,0.856,0.8082,0.7976,0.0,0.0,0.0,0.0,0.0,0.0,0.63,0.6384,0.6201,0.6118,0.6086,0.5646,0.5405,0.528,0.4526,0.4094,0.388,0.3152,0.23,0.1428,0.1003,0.0707,0.0506,0.1388,0.1552,0.0,0.0,0.0,0.0,0.0,0.0,0.0,0.0,0.0,0.0,0.0,0.0,0.0,0.0,0.0,0.0,0.0,-0.3484,-0.3473,-0.3205,-0.3311,-0.3403,-0.3152,-0.3491,0.0,-0.3579,-0.3764,-0.4013,-0.4382,-0.5548,-0.6407,-0.6157,-0.7537,-0.8194,-0.696,-0.9659,0.0,0.0,-1.1118,0.0,0.0,0.0,0.0,0.0,0.0,0.0,0.0,0.0,0.0,-1.3057,-1.3554,-1.3904,-1.3904,-1.4075,-1.4066,-1.3888,-1.4245,-1.4629,-1.4999,0.0,0.0,0.0,0.0,0.0,0.0,-2.048,-2.1091,-2.0695,-2.2802,-2.3535,-2.3676,-2.4572,-2.4879,-2.4943,0.0,0.0,0.0,0.0,0.0,0.0,0.0,0.0,0.0,0.0,0.97,0.9435,0.898,0.9074,0.8986,0.0,0.0,0.0,0.0,0.0,0.0,0.0,0.6509,0.6467,0.6384,0.625,0.6162,0.6086,0.5907,0.5614,0.5284,0.5023,0.4573,0.3957,0.3171,0.2115,0.1004,0.1309,0.1261,0.1059,0.1672,0.1777,0.0,0.0,0.0,0.0,0.1272,0.1388,0.0,0.0,0.0,0.0,0.0,0.0,0.0,0.0,-0.3,-0.3415,-0.3636,0.0,-0.3793,-0.373,-0.3608,-0.3536,0.0,-0.365,-0.3702,-0.413,-0.4253,-0.4394,-0.488,-0.6069,-0.6692,-0.5671,-0.6736,-0.8084,-0.9148,-1.0315,0.0,-1.2051,-1.1078,0.0,0.0,0.0,0.0,0.0,0.0,0.0,0.0,0.0,0.0,-1.3244,-1.3634,-1.3904,-1.3904,-1.3945,-1.388,-1.3709,-1.4066,-1.4237,-1.4258,0.0,0.0,0.0,0.0,0.0,-1.8957,-2.0325,-2.082,-2.0809,-2.26,-2.3228,-2.3242,-2.4431,-2.4762,-2.4681,0.0,0.0,0.0,0.0,0.0,0.0,0.0,0.0,0.0,0.0,0.9935,0.9617,0.9357,0.9385,0.9266,0.0,0.0,0.0,0.0,0.0,0.0,0.6883,0.679,0.6734,0.6738,0.6605,0.6473,0.6257,0.6173,0.6018,0.5663,0.5292,0.4847,0.4332,0.3025,0.1817,0.0808,0.0959,0.0807,0.0504,0.0908,0.0,0.0,0.0,0.0,0.0,0.0366,0.0529,0.0,0.038,0.011,-0.0277,0.0,0.0,0.0,0.0,-0.3376,-0.3569,-0.3796,-0.3894,-0.3875,-0.3873,-0.3766,-0.3704,-0.3889,-0.3766,-0.3764,-0.4133,-0.4318,-0.4512,-0.4922,-0.6139,-0.6972,-0.6485,-0.7522,0.0,0.0,0.0,-1.1714,-1.2635,0.0,0.0,0.0,0.0,0.0,0.0,0.0,0.0,0.0,0.0,0.0,0.0,-1.3802,-1.3904,-1.3904,-1.3904,-1.3855,-1.3766,-1.4042,-1.4123,-1.4042,0.0,0.0,0.0,0.0,0.0,-1.9106,-2.0246,-2.074,-2.1026,-2.2643,-2.3204,-2.3266,-2.4383,-2.4635,-2.4591,0.0,0.0,0.0,0.0,0.0,0.0,0.0,0.0,0.0,0.0,0.0,0.0,0.0,0.0,0.0,0.0,0.0,0.0,0.0,0.0,0.0,0.7268,0.7054,0.6993,0.7048,0.7046,0.6789,0.637,0.6502,0.6395,0.6116,0.5509,0.5012,0.4533,0.273,0.152,0.0761,0.0456,0.0101,-0.0304,-0.0101,0.0,0.0,0.0,0.0,0.0,0.0,0.0,0.0,-0.0595,-0.1101,-0.1619,-0.2185,0.0,0.0,0.0,0.0,0.0,-0.3872,-0.3913,-0.3921,-0.3982,-0.4066,-0.4071,-0.4071,-0.4071,-0.401,-0.401,-0.4256,-0.4567,-0.4947,-0.6318,-0.7418,-0.7532,-0.8739,0.0,-1.2386,-1.2358,-1.2629,-1.3832,0.0,0.0,0.0,0.0,0.0,0.0,0.0,0.0,0.0,0.0,0.0,0.0,-1.4057,-1.3975,-1.3975,-1.3904,-1.3888,-1.3863,-1.4075,-1.4148,-1.4107,-1.5117,0.0,0.0,0.0,0.0,-1.9012,-2.0217,-2.0906,-2.1285,-2.2843,-2.3438,-2.3587,-2.4341,-2.4636,-2.4636,0.0,0.0,0.0,0.0,0.0,0.0,0.0,0.0,0.0,0.0,0.0,0.0,0.0,0.0,0.0,0.0,0.0,0.0,0.0,0.0,0.0,0.7567,0.7346,0.7123,0.6833,0.6986,0.6828,0.6293,0.6543,0.6526,0.6241,0.6015,0.5122,0.3732,0.2306,0.1343,0.0776,0.0258,0.0,-0.0052,0.0,0.0,0.0,0.0,0.0,0.0,0.0,0.0,0.0,-0.1914,-0.2164,-0.2476,-0.2845,0.0,0.0,0.0,0.0,0.0,-0.3885,-0.3883,-0.3976,-0.452,-0.4699,-0.4742,-0.4742,-0.4742,-0.4681,-0.4376,-0.4564,-0.4954,-0.539,-0.7418,-0.8486,-0.6801,-0.8793,-1.0538,0.0,0.0,-1.2706,0.0,0.0,0.0,0.0,0.0,0.0,0.0,0.0,0.0,0.0,0.0,0.0,0.0,0.0,-1.4403,-1.4403,-1.4047,-1.3831,-1.3615,-1.4018,-1.4018,-1.3734,-1.4851,-1.5642,0.0,0.0,-1.8259,-1.9146,-2.0224,-2.1043,-2.166,-2.2918,-2.3587,-2.397,-2.4414,-2.4636,-2.471,0.0,0.0,0.0,0.0,0.0,0.0,0.0,0.0,0.0,0.0,0.0,0.0,0.0,0.0,0.0,0.0,0.0,0.0,0.0,0.838,0.795,0.7788,0.7527,0.7213,0.6795,0.7125,0.6923,0.6087,0.6551,0.6524,0.6074,0.5743,0.4885,0.3531,0.2519,0.1557,0.0779,0.0519,0.026,0.0,0.0,0.0,0.0,0.0,0.0,0.0,0.0,0.0,0.0,0.0,-0.2732,-0.3163,-0.3131,0.0,0.0,0.0,0.0,0.0,-0.3739,-0.3741,-0.3908,-0.4624,-0.4724,-0.4684,-0.4868,-0.5208,-0.5532,-0.5486,-0.6068,-0.6722,-0.7026,-0.7796,-0.8372,-0.8302,0.0,-1.261,-1.3005,0.0,0.0,0.0,0.0,0.0,0.0,0.0,0.0,0.0,0.0,0.0,0.0,0.0,0.0,0.0,0.0,-1.492,-1.4604,-1.4495,-1.4219,-1.3782,-1.3953,-1.3945,-1.379,-1.4739,-1.556,0.0,0.0,-1.8164,-1.926,-1.9937,-2.0784,-2.1592,-2.2556,-2.3314,-2.3836,-2.4435,-2.471,-2.5005,0.0,0.0,0.0,0.0,0.0,0.0,0.0,0.0,0.0,0.0,0.0,0.0,0.0,0.0,0.0,0.0,0.0,0.0,0.0,0.8516,0.8032,0.79,0.7724,0.734,0.6751,0.7231,0.6995,0.5893,0.6436,0.6443,0.5914,0.5404,0.4638,0.3632,0.2724,0.1764,0.0779,0.0727,0.0467,0.0104,0.0,0.0,0.0,0.0,0.0,0.0,0.0,0.0,0.0,0.0,0.0,0.0,0.0,0.0,0.0,-0.3679,-0.3646,-0.3608,-0.3698,-0.3827,-0.4062,-0.4539,-0.458,-0.4545,-0.4888,-0.5624,-0.621,-0.6319,-0.6984,-0.7754,-0.8194,-0.7964,-0.8437,-1.0619,-1.2271,-1.3822,0.0,0.0,0.0,0.0,0.0,0.0,0.0,0.0,0.0,0.0,0.0,0.0,0.0,0.0,0.0,0.0,0.0,0.0,-1.4823,-1.5018,-1.4759,-1.4047,-1.4047,-1.4047,-1.4047,-1.4688,-1.547,-1.6391,-1.7076,-1.812,-1.9371,-1.9784,-2.0625,-2.1594,-2.2328,-2.3036,-2.3745,-2.4261,-2.4784,-2.5226,0.0,0.0,0.0,0.0,0.0,0.0,0.0,0.0,0.0,0.0,0.0,0.0,0.0,0.0,0.0,0.0,0.0,0.0,0.0,0.8815,0.8376,0.79,0.79,0.7478,0.6618,0.719,0.6994,0.5897,0.6273,0.6282,0.5982,0.5436,0.4738,0.3934,0.2622,0.1557,0.0779,0.0519,0.0416,0.0363,0.0153,0.0,0.0,0.0,0.0,0.0,0.0,0.0,0.0,0.0,0.0,0.0,0.0,0.0,-0.361,-0.3728,-0.3679,-0.3624,-0.386,-0.4278,-0.4656,-0.4372,-0.4577,-0.4804,-0.4939,-0.5784,-0.6478,-0.6098,-0.6164,-0.6638,-0.8072,-0.8397,-0.9632,-1.3212,-1.2628,0.0,0.0,0.0,0.0,0.0,0.0,0.0,0.0,0.0,0.0,0.0,0.0,0.0,0.0,0.0,0.0,0.0,0.0,0.0,-1.525,-1.5441,-1.5186,-1.4474,-1.4474,-1.4474,-1.4474,-1.4839,-1.5612,-1.6673,-1.7378,-1.8267,-1.9382,-2.0036,-2.0934,-2.1966,-2.2396,-2.3098,-2.4018,-2.4031,-2.4562,-2.5166,0.0,0.0,0.0,0.0,0.0,0.0,0.0,0.0,0.0,0.0,0.0,0.0,0.0,0.0,0.0,0.0,0.0,0.0,0.9471,0.8947,0.8464,0.8113,0.7628,0.7166,0.663,0.705,0.6768,0.5772,0.6049,0.6187,0.6237,0.5892,0.509,0.3937,0.293,0.197,0.1039,0.0779,0.0623,0.0622,0.056,0.005,0.0,0.0,0.0,0.0,0.0,0.0,0.0,0.0,-0.335,-0.358,-0.3542,-0.3556,-0.3597,-0.3643,-0.3624,-0.3602,-0.3673,-0.3931,-0.4132,-0.4257,-0.4545,-0.4858,-0.4942,-0.6399,-0.7691,-0.7551,-0.8163,-0.866,-0.8634,-0.9937,-1.1355,-1.2543,0.0,0.0,0.0,0.0,0.0,0.0,0.0,0.0,0.0,0.0,0.0,0.0,0.0,0.0,0.0,0.0,0.0,0.0,0.0,0.0,0.0,-1.5602,-1.5426,-1.4822,-1.4576,-1.4474,-1.4474,-1.4839,-1.5399,-1.6098,-1.7035,-1.7926,-1.8785,-1.958,-2.0392,-2.1285,-2.2456,-2.3202,-2.3562,-2.4135,-2.4857,-2.558,0.0,0.0,0.0,0.0,0.0,0.0,0.0,0.0,0.0,0.0,0.0,0.0,0.0,0.0,0.0,0.0,0.0,0.0,0.9602,0.9034,0.8552,0.8201,0.7496,0.6968,0.6666,0.6796,0.642,0.5569,0.5752,0.6006,0.6287,0.5992,0.5236,0.4085,0.3267,0.2312,0.1339,0.1132,0.1029,0.0926,0.066,0.005,0.0,0.0,0.0,0.0,0.0,0.0,0.0,0.0,-0.3532,-0.3719,-0.3729,-0.3801,-0.3789,-0.3774,-0.3996,-0.4204,-0.3779,-0.4113,-0.4582,-0.4457,-0.4797,-0.523,-0.5175,-0.6896,-0.8527,-0.854,-0.9488,-1.0127,-0.961,-1.1034,-1.2311,0.0,0.0,0.0,0.0,0.0,0.0,0.0,0.0,0.0,0.0,0.0,0.0,0.0,0.0,0.0,0.0,0.0,0.0,0.0,0.0,0.0,0.0,-1.5447,-1.5481,-1.5146,-1.4727,-1.4613,-1.4744,-1.5088,-1.547,-1.6028,-1.6885,-1.7801,-1.8643,-1.9332,-2.0145,-2.1102,-2.2544,-2.3106,-2.3308,-2.3918,-2.4774,-2.5646,0.0,0.0,0.0,0.0,0.0,0.0,0.0,0.0,1.3222,1.2741,1.2314,0.0,0.0,0.0,0.0,0.0,0.0,0.0,0.9646,0.9165,0.8684,0.8201,0.7489,0.701,0.6795,0.6479,0.5964,0.528,0.5437,0.5689,0.5992,0.5737,0.5181,0.4379,0.3575,0.2622,0.1617,0.1617,0.1465,0.1112,0.0303,-0.0152,-0.0505,0.0,0.0,0.0,0.0,0.0,0.0,0.0,-0.3769,-0.3935,-0.4208,-0.4317,-0.4292,-0.4154,-0.4878,-0.5497,-0.4116,-0.5049,-0.6219,-0.4998,-0.5422,-0.6005,-0.5714,-0.7267,-0.8834,-0.8827,-0.9678,-1.0543,-1.09,-1.1447,-1.2302,-1.3793,0.0,0.0,0.0,0.0,0.0,0.0,0.0,0.0,0.0,0.0,0.0,0.0,0.0,0.0,0.0,0.0,0.0,0.0,0.0,0.0,0.0,-1.5103,-1.5205,-1.5555,-1.4864,-1.4767,-1.532,-1.5511,-1.6028,-1.6734,-1.7097,-1.7942,-1.9063,-1.9401,-2.0391,-2.1674,-2.246,-2.2923,-2.3197,-2.3197,-2.4156,-2.5224,0.0,0.0,0.0,0.0,0.0,0.0,0.0,0.0,1.3137,1.3009,1.2583,0.0,0.0,0.0,0.0,0.0,0.0,0.0,0.9646,0.8914,0.8379,0.8193,0.7259,0.6686,0.6517,0.5757,0.5466,0.5559,0.5721,0.584,0.5925,0.5902,0.5336,0.4379,0.3575,0.2723,0.1869,0.1465,0.1364,0.1416,0.041,-0.0255,-0.0808,0.0,0.0,0.0,0.0,0.0,0.0,0.0,0.0,0.0,-0.3972,-0.4165,-0.4388,-0.4375,-0.4778,-0.5098,-0.468,-0.5066,-0.5697,-0.6224,-0.6339,-0.6611,-0.7864,-0.8741,-0.9586,-1.0285,-1.0913,-1.1306,-1.1108,-1.1733,0.0,0.0,0.0,0.0,0.0,0.0,0.0,0.0,0.0,0.0,0.0,0.0,0.0,0.0,0.0,0.0,0.0,0.0,0.0,0.0,0.0,0.0,0.0,0.0,-1.5119,-1.512,-1.5351,-1.5247,-1.4893,-1.5235,-1.5615,-1.5957,-1.6885,-1.7801,-1.8643,-1.9552,-2.0493,-2.1413,-2.2103,-2.2582,-2.2968,-2.3474,-2.4235,-2.5002,0.0,0.0,0.0,0.0,0.0,0.0,0.0,0.0,1.3447,1.3222,1.2753,1.2229,0.0,0.0,0.0,0.0,0.0,0.0,0.9646,0.8931,0.8446,0.8193,0.7403,0.6742,0.6302,0.5547,0.5255,0.5429,0.5449,0.5547,0.5728,0.5699,0.52,0.4383,0.3676,0.2924,0.2122,0.1718,0.1573,0.1534,0.0569,-0.0206,-0.0919,0.0,0.0,0.0,0.0,0.0,0.0,0.0,0.0,0.0,-0.3844,-0.414,-0.4461,-0.4351,-0.4989,-0.5605,-0.5031,-0.5276,-0.5873,-0.6516,-0.6705,-0.7251,-0.9583,-0.9818,-0.9966,-1.1214,-1.1577,-1.1695,-1.1821,-1.246,0.0,0.0,0.0,0.0,0.0,0.0,0.0,0.0,0.0,0.0,0.0,0.0,0.0,0.0,0.0,0.0,0.0,0.0,0.0,0.0,0.0,0.0,0.0,0.0,0.0,-1.4735,-1.5108,-1.5028,-1.4648,-1.5356,-1.5775,-1.6098,-1.7238,-1.8153,-1.8924,-1.9761,-2.0527,-2.1232,-2.1811,-2.2293,-2.2667,-2.32,-2.3966,-2.468,0.0,0.0,1.4279,1.3897,0.0,0.0,0.0,0.0,1.387,1.3476,1.2796,1.2272,0.0,0.0,0.0,0.0,0.0,0.0,0.0,0.9113,0.8632,0.8201,0.7665,0.7003,0.6124,0.5636,0.528,0.5053,0.4895,0.5045,0.5426,0.5187,0.4802,0.4336,0.378,0.3075,0.237,0.2071,0.1837,0.1606,0.0727,-0.0052,-0.0881,-0.1714,0.0,0.0,0.0,0.0,0.0,0.0,0.0,0.0,-0.3782,-0.4198,-0.4542,-0.4213,-0.5393,-0.6616,-0.5341,-0.5667,-0.6394,-0.6282,-0.6812,-0.8048,-1.072,-1.0516,-1.0188,-1.177,-1.1846,-1.1859,-1.2862,-1.3277,0.0,0.0,0.0,0.0,0.0,0.0,0.0,0.0,0.0,0.0,0.0,0.0,0.0,0.0,0.0,0.0,0.0,0.0,0.0,0.0,0.0,0.0,0.0,0.0,0.0,0.0,-1.4426,-1.4436,-1.4481,-1.5603,-1.6352,-1.6805,-1.7942,-1.8854,-1.9611,-1.997,-2.0527,-2.1207,-2.1622,-2.1966,-2.2379,-2.2722,-2.3515,-2.4261,0.0,0.0,1.4684,1.4848,0.0,0.0,0.0,0.0,0.0,1.3392,1.2613,0.0,0.0,0.0,0.0,0.0,0.0,0.0,0.0,0.8767,0.8276,0.7981,0.7092,0.6561,0.634,0.5725,0.5458,0.5542,0.5031,0.4915,0.5122,0.4865,0.4555,0.4034,0.333,0.2624,0.2071,0.1819,0.1672,0.1527,0.0723,0.0052,-0.0623,-0.1738,-0.2515,0.0,0.0,0.0,0.0,0.0,0.0,0.0,-0.4043,-0.435,-0.4631,-0.4786,-0.5401,-0.5895,-0.5591,-0.6016,-0.6696,-0.7397,-0.8398,-0.9342,-0.9978,-1.0619,-1.1475,-1.2824,-1.2556,-1.2463,-1.3448,0.0,0.0,0.0,0.0,0.0,0.0,0.0,0.0,0.0,0.0,0.0,0.0,0.0,0.0,0.0,0.0,0.0,0.0,0.0,0.0,0.0,0.0,0.0,-1.3722,-1.4113,-1.4333,0.0,-1.4827,-1.4965,-1.4873,-1.5444,-1.6283,-1.7238,-1.8012,-1.8854,-1.9529,-1.997,-2.0527,-2.1207,-2.1622,-2.1966,-2.2379,-2.2722,-2.3174,-2.3667,0.0,0.0,0.0,0.0,0.0,0.0,0.0,0.0,0.0,0.0,0.0,0.0,0.0,0.0,0.0,0.0,1.0255,0.9777,0.9349,0.8862,0.8324,0.7716,0.6871,0.6296,0.6074,0.5636,0.5324,0.5235,0.5025,0.4783,0.4634,0.4388,0.4,0.3468,0.3027,0.2557,0.2045,0.1876,0.1735,0.1609,0.0891,0.0264,-0.0266,-0.1343,-0.2135,-0.2733,-0.3048,0.0,0.0,0.0,0.0,0.0,0.0,0.0,-0.4362,-0.4601,-0.5075,-0.5558,-0.5651,-0.6023,-0.6599,-0.7875,-0.8836,-0.9588,-1.0287,-1.1106,-1.198,-1.2925,-1.3063,-1.3178,-1.3681,0.0,0.0,0.0,0.0,0.0,0.0,0.0,0.0,0.0,0.0,0.0,0.0,0.0,0.0,0.0,0.0,0.0,0.0,0.0,0.0,0.0,0.0,0.0,-1.3453,-1.4059,-1.4342,-1.4146,-1.4865,-1.5192,-1.5156,-1.5672,-1.6389,-1.7308,-1.7942,-1.8703,-1.9541,-1.975,-2.0376,-2.1207,-2.1622,-2.1966,-2.2379,-2.2722,-2.3133,-2.3434,0.0,0.0,0.0,0.0,0.0,0.0,0.0,0.0,0.0,0.0,0.0,0.0,0.0,0.0,1.0646,0.0,0.0,0.0,0.9349,0.0,0.0,0.7533,0.6782,0.6163,0.5719,0.5502,0.5196,0.475,0.4835,0.4673,0.4237,0.3974,0.3537,0.2981,0.2938,0.2659,0.2186,0.2053,0.1917,0.1697,0.1065,0.0538,0.0054,-0.0929,-0.1734,-0.2407,-0.2837,-0.313,-0.3255,-0.3345,0.0,0.0,0.0,0.0,-0.4065,-0.4233,-0.4778,-0.54,-0.5575,-0.5833,-0.6464,-0.8087,-0.8946,-0.9666,-1.0729,-1.1657,-1.2395,-1.28,-1.3358,-1.376,0.0,0.0,0.0,0.0,0.0,0.0,0.0,0.0,0.0,0.0,0.0,0.0,0.0,0.0,0.0,0.0,0.0,0.0,0.0,0.0,-1.4709,0.0,0.0,-1.3519,-1.321,-1.3976,-1.4137,-1.3875,-1.4702,-1.5131,-1.5344,-1.5793,-1.6461,-1.7238,-1.765,-1.8493,-1.9611,-1.9541,-2.0167,-2.1207,-2.1622,-2.1966,-2.2379,-2.2722,-2.3065,-2.3352,0.0,0.0,0.0,0.0,0.0,0.0,0.0,0.0,0.0,0.0,1.2357,1.1671,0.0,1.0766,1.0342,1.0342,1.0081,0.982,0.9559,0.0,0.0,0.7533,0.6782,0.6163,0.5719,0.5502,0.5235,0.4964,0.4567,0.434,0.4268,0.4199,0.384,0.33,0.3082,0.2815,0.2494,0.2277,0.2103,0.198,0.1219,0.0694,0.0214,-0.087,-0.1528,-0.1907,-0.278,-0.3104,-0.3146,-0.3321,-0.3401,0.0,0.0,0.0,-0.4236,-0.4457,-0.4822,-0.5165,-0.5268,-0.5881,-0.6911,-0.8418,-0.9623,-1.0473,-1.0605,-1.2028,-1.3243,0.0,-1.3286,0.0,0.0,0.0,0.0,0.0,0.0,0.0,0.0,0.0,0.0,0.0,0.0,0.0,0.0,0.0,0.0,0.0,0.0,0.0,0.0,-1.4461,-1.4083,-1.3501,-1.3412,0.0,-1.289,-1.3595,-1.394,-1.3884,-1.432,-1.4864,-1.5553,-1.5307,-1.5753,-1.6805,-1.7238,-1.8212,-1.9611,-1.9541,-2.0167,-2.1207,-2.1622,-2.1966,-2.2379,-2.2722,-2.2928,-2.3036,0.0,0.0,0.0,0.0,0.0,0.0,0.0,0.0,0.0,0.0,0.0,1.1983,1.1725,1.0992,1.0549,1.0679,1.0255,0.982,0.9471,0.864,0.7937,0.7312,0.6694,0.6118,0.5547,0.5352,0.5132,0.4835,0.4691,0.4501,0.432,0.4426,0.4043,0.3276,0.3109,0.2882,0.2631,0.2471,0.2293,0.2085,0.1401,0.093,0.0556,-0.0444,-0.106,-0.1576,-0.2363,-0.2726,-0.285,-0.3158,-0.3221,-0.3252,-0.3843,0.0,0.0,0.0,-0.4974,-0.5194,-0.5499,-0.6177,-0.7053,-0.8106,-0.938,-1.0393,-1.0589,-1.1869,-1.3021,-1.2881,0.0,0.0,0.0,0.0,0.0,0.0,0.0,0.0,0.0,0.0,0.0,0.0,0.0,0.0,0.0,0.0,0.0,0.0,0.0,0.0,-1.4411,-1.4232,-1.3956,-1.3447,-1.3492,0.0,-1.2938,-1.3757,-1.4322,-1.4638,-1.462,-1.4896,-1.5399,-1.5505,-1.6065,-1.7017,-1.7238,-1.8142,-1.9611,-1.9541,-2.0237,-2.1207,-2.1415,-2.1829,-2.231,-2.2516,-2.2722,-2.2954,0.0,0.0,0.0,0.0,0.0,0.0,0.0,0.0,0.0,0.0,0.0,1.2478,1.2161,0.0,0.0,0.0,1.0419,0.9864,0.9262,0.864,0.7937,0.7054,0.6605,0.603,0.5324,0.52,0.4976,0.4616,0.4634,0.4513,0.4313,0.4422,0.4149,0.3535,0.341,0.3228,0.3026,0.2756,0.2516,0.2244,0.1505,0.1017,0.0686,-0.023,-0.0807,-0.1274,-0.2034,-0.2458,-0.2684,-0.3082,-0.3187,-0.3245,-0.3872,-0.4118,0.0,0.0,0.0,-0.5314,-0.5839,-0.6458,-0.708,-0.7892,-0.9104,-1.0141,-1.0547,0.0,-1.2689,0.0,0.0,0.0,0.0,0.0,0.0,0.0,0.0,0.0,0.0,0.0,0.0,0.0,0.0,0.0,0.0,0.0,0.0,0.0,0.0,0.0,-1.4232,-1.4052,-1.3816,-1.3455,-1.3483,-1.3355,-1.2953,-1.3805,-1.4547,-1.5025,-1.4824,-1.4941,-1.544,-1.5741,-1.644,-1.7368,-1.7419,-1.8282,-1.9611,-1.9611,-2.0237,-2.1207,-2.1207,-2.1622,-2.231,-2.231,-2.2516,-2.2928,0.0,0.0,0.0,0.0,0.0,0.0,0.0,0.0,0.0,0.0,0.0,1.2893,1.2522,1.2163,1.1585,1.0722,1.0593,1.0115,0.8999,0.8727,0.8069,0.6884,0.6567,0.0,0.5053,0.5003,0.4781,0.43,0.4076,0.407,0.4313,0.4072,0.4126,0.4431,0.4158,0.3981,0.3877,0.3123,0.268,0.2471,0.1346,0.0702,0.0339,-0.0601,-0.0966,-0.1061,-0.2034,-0.2557,-0.2809,-0.3116,-0.3349,-0.357,-0.357,-0.3714,-0.3984,0.0,0.0,0.0,-0.6093,-0.6571,-0.7138,-0.8119,-0.9149,-1.0011,-1.0465,0.0,0.0,0.0,0.0,0.0,0.0,0.0,0.0,0.0,0.0,0.0,0.0,0.0,0.0,0.0,0.0,0.0,0.0,0.0,0.0,0.0,0.0,0.0,-1.4172,-1.3624,-1.3265,-1.3331,-1.2989,-1.2859,-1.2816,-1.3547,-1.408,-1.4426,-1.4618,-1.5061,-1.5758,-1.5883,-1.6491,-1.7489,-1.7767,-1.8563,-1.9611,-1.9611,-2.0237,-2.1207,-2.1207,-2.1622,-2.231,-2.231,-2.2516,-2.2928,0.0,0.0,0.0,0.0,0.0,0.0,0.0,0.0,0.0,0.0,0.0,0.0,0.0,1.2857,1.2123,1.1597,1.0717,0.9864,0.8955,0.8727,0.8069,0.684,0.6523,0.603,0.528,0.5034,0.4819,0.4572,0.407,0.3965,0.4156,0.4168,0.4168,0.4149,0.4095,0.405,0.4053,0.3162,0.2622,0.2354,0.1766,0.1071,0.0359,0.0061,-0.0428,-0.1049,-0.1611,-0.2152,-0.2667,-0.2893,-0.3238,-0.3618,-0.4056,-0.4435,-0.4797,-0.5421,-0.5802,-0.6051,-0.6214,-0.669,-0.723,-0.7725,-0.8824,-0.9874,-1.0219,-1.1528,0.0,0.0,0.0,0.0,0.0,0.0,0.0,0.0,0.0,0.0,0.0,0.0,0.0,0.0,0.0,0.0,0.0,0.0,0.0,0.0,0.0,0.0,-1.3873,-1.3624,-1.3392,-1.311,-1.3117,-1.3114,-1.3169,-1.3687,-1.4071,-1.4408,-1.4481,-1.4978,-1.5786,-1.5798,-1.635,-1.7318,-1.7665,-1.8487,-1.9611,-1.9611,-2.0098,-2.0873,-2.1138,-2.1346,-2.1622,-2.2104,-2.2379,-2.2516,0.0,0.0,0.0,0.0,0.0,1.4122,1.4087,1.4186,1.4276,1.4395,0.0,0.0,0.0,0.0,1.2785,1.2115,1.0923,0.9844,0.896,0.8717,0.8017,0.67,0.6479,0.603,0.528,0.5034,0.4814,0.4572,0.4154,0.3976,0.3977,0.4161,0.4181,0.4045,0.4082,0.4198,0.4367,0.3447,0.2934,0.2573,0.1974,0.1218,0.0433,0.0251,-0.0317,-0.102,-0.1422,-0.1861,-0.2396,-0.2698,-0.2997,-0.3391,-0.4059,-0.4688,-0.5303,-0.5864,-0.6163,-0.633,-0.6386,-0.6826,-0.7265,-0.766,-0.8538,-0.9504,-1.0065,0.0,0.0,0.0,0.0,0.0,0.0,0.0,0.0,0.0,0.0,0.0,0.0,0.0,0.0,0.0,0.0,0.0,0.0,0.0,0.0,0.0,0.0,0.0,-1.3693,-1.3564,-1.3295,-1.2829,-1.308,-1.3204,-1.3274,-1.3718,-1.4071,-1.4408,-1.4539,-1.4997,-1.5866,-1.5946,-1.6465,-1.728,-1.7556,-1.8347,-1.9485,-1.9485,-1.9958,-2.0735,-2.0943,-2.1081,-2.1276,-2.1897,-2.2173,-2.2379,0.0,0.0,1.4657,1.4433,1.4237,1.4316,1.4829,1.4696,1.4825,1.5599,0.0,0.0,0.0,0.0,0.0,1.2129,1.1212,1.0192,0.9018,0.871,0.7944,0.6479,0.639,0.5947,0.5008,0.5008,0.4786,0.43,0.43,0.4074,0.3697,0.4007,0.4127,0.4085,0.4188,0.44,0.476,0.3974,0.35,0.3065,0.1907,0.1064,0.0437,-0.0201,-0.067,-0.104,-0.1424,-0.1758,-0.2043,-0.2402,-0.2689,-0.3013,-0.3592,-0.4549,-0.5429,-0.5429,-0.588,-0.6386,0.0,0.0,0.0,-0.7875,-0.837,-0.8957,-1.0018,0.0,0.0,0.0,0.0,0.0,0.0,0.0,0.0,0.0,0.0,0.0,0.0,0.0,0.0,0.0,0.0,0.0,0.0,0.0,0.0,0.0,0.0,-1.3684,-1.3693,-1.3384,-1.2993,-1.2521,-1.2813,-1.3007,-1.3079,-1.3648,-1.4071,-1.4408,-1.4735,-1.5323,-1.5984,-1.6206,-1.6706,-1.7378,-1.7604,-1.8237,-1.9153,-1.9164,-1.9794,-2.0653,-2.0735,-2.0943,-2.1207,-2.1634,-2.2035,-2.231,0.0,1.5103,1.4699,1.4643,1.4741,1.4895,1.5074,1.503,1.5207,0.0,0.0,0.0,1.5577,1.4515,1.339,1.238,1.1436,1.049,0.9422,0.9096,0.8284,0.6672,0.6627,0.6127,0.5013,0.5008,0.4656,0.3991,0.3853,0.3643,0.3348,0.3556,0.3641,0.3688,0.3981,0.424,0.4334,0.3605,0.3099,0.2803,0.2089,0.1271,0.0461,0.0269,-0.034,-0.1099,-0.1181,-0.1804,-0.2609,-0.255,-0.3007,-0.3718,-0.4602,-0.5564,-0.632,-0.632,-0.6654,-0.6988,-0.7043,0.0,0.0,0.0,0.0,0.0,-0.9105,-1.0033,0.0,0.0,0.0,0.0,0.0,0.0,0.0,0.0,0.0,0.0,0.0,0.0,0.0,0.0,0.0,0.0,0.0,0.0,0.0,0.0,0.0,-1.3532,-1.3684,-1.3144,-1.2872,-1.2891,-1.2632,-1.2689,-1.3079,-1.3648,-1.4071,-1.4408,-1.4735,-1.5323,-1.5974,-1.6035,-1.6457,-1.7109,-1.7173,-1.773,-1.865,-1.9016,-1.9552,-2.0114,-2.0788,-2.0943,-2.0943,-2.1829,-2.2035,-2.2035,1.5865,1.5409,1.4977,1.4866,1.5106,1.5348,1.5531,1.5775,1.5942,0.0,0.0,0.0,1.5663,1.4686,1.3696,1.2772,1.1916,1.0885,0.9571,0.9214,0.8428,0.6953,0.6759,0.6281,0.5395,0.5121,0.4701,0.408,0.3857,0.3544,0.3183,0.3298,0.3412,0.3483,0.3641,0.3776,0.3908,0.3156,0.2862,0.2813,0.2033,0.1025,0.0067,0.0205,-0.0485,-0.1533,-0.1276,-0.1563,-0.2114,-0.2346,-0.2984,-0.3845,-0.4831,-0.5562,-0.6159,-0.6468,-0.6725,-0.6939,-0.7115,-0.721,-0.7321,-0.7875,0.0,0.0,-0.8941,-0.9666,-1.0369,0.0,0.0,0.0,0.0,0.0,0.0,0.0,0.0,0.0,0.0,0.0,0.0,0.0,0.0,0.0,0.0,0.0,0.0,0.0,-1.3506,-1.3438,-1.3561,-1.3159,-1.2897,-1.2891,-1.2674,-1.2733,-1.3216,-1.3678,-1.4137,-1.4604,-1.48,-1.5323,-1.5974,-1.5974,-1.6364,-1.7001,-1.7141,-1.7542,-1.8089,-1.8618,-1.932,-2.0075,-2.0573,-2.0776,-2.0804,-2.176,-2.1966,-2.1897,0.0,1.5741,1.5382,1.5216,1.5461,1.5807,1.6064,1.6622,1.6928,0.0,1.6616,1.6313,1.5639,1.5083,1.4372,1.3288,1.2587,1.1459,0.9725,0.9321,0.8613,0.7375,0.6932,0.6489,0.592,0.532,0.4773,0.4267,0.4002,0.364,0.3183,0.3243,0.3312,0.3433,0.3155,0.3218,0.3495,0.2731,0.2662,0.2956,0.1796,0.0578,-0.0466,-0.007,-0.0776,-0.1944,-0.1367,-0.1157,-0.1285,-0.204,-0.2836,-0.3655,-0.4546,-0.5007,-0.5395,-0.6196,-0.6374,-0.6531,-0.7041,-0.7221,-0.7321,-0.7826,-0.8096,0.0,-0.9134,-0.9296,-0.9538,0.0,0.0,0.0,0.0,0.0,0.0,0.0,0.0,0.0,0.0,0.0,0.0,0.0,0.0,0.0,0.0,0.0,0.0,-1.3791,-1.3576,-1.34,-1.3353,-1.3205,-1.3033,-1.275,-1.2747,-1.2943,-1.3402,-1.3764,-1.4268,-1.4866,-1.4866,-1.5323,-1.5974,-1.5974,-1.6364,-1.7001,-1.7335,-1.7529,-1.7616,-1.8208,-1.9139,-2.0163,-2.0199,-2.0436,-2.0804,-2.1496,-2.176,-2.1897,1.636,1.5824,1.5469,1.5689,1.6119,1.6545,1.6907,1.7266,1.7371,1.7188,1.6655,1.6175,1.5868,1.5532,1.4908,1.3853,1.3292,1.2397,1.0947,0.9975,0.9065,0.811,0.7404,0.6715,0.6051,0.5514,0.4897,0.4131,0.386,0.3464,0.2962,0.2976,0.304,0.3144,0.2821,0.2808,0.2996,0.2217,0.194,0.201,0.1549,0.0911,0.0274,0.0353,-0.0144,-0.0865,-0.0719,-0.1076,-0.1712,-0.2367,-0.2948,-0.3525,-0.4232,-0.4981,-0.5718,-0.6218,-0.6426,-0.6527,-0.7106,-0.723,-0.7265,-0.7604,-0.7809,0.0,-0.8532,-0.8863,-0.9272,0.0,0.0,0.0,0.0,0.0,0.0,0.0,0.0,0.0,0.0,0.0,0.0,0.0,0.0,0.0,0.0,0.0,-1.3818,-1.382,-1.371,-1.3485,-1.3203,-1.2945,-1.2855,-1.2952,-1.2566,-1.2758,-1.3541,-1.3761,-1.4268,-1.4866,-1.4866,-1.5323,-1.5974,-1.5974,-1.6364,-1.7001,-1.7335,-1.7658,-1.7916,-1.836,-1.8947,-1.9563,-1.9844,-2.0218,-2.0735,-2.1151,-2.1484,-2.1829,1.6427,1.6031,1.5816,1.598,1.6579,1.7131,1.7337,1.7839,1.8087,1.7782,1.7121,1.655,1.6299,1.5821,1.5134,1.4166,1.3445,1.2496,1.107,1.0197,0.9318,0.8371,0.766,0.7106,0.6601,0.6021,0.5256,0.4363,0.4042,0.3588,0.2961,0.2961,0.2932,0.2902,0.2635,0.253,0.2506,0.1791,0.1471,0.1316,0.087,0.0194,-0.054,-0.0559,-0.0924,-0.1358,-0.1358,-0.1425,-0.1485,-0.1812,-0.2362,-0.3118,-0.3968,-0.4731,-0.5505,-0.6364,-0.6287,-0.6138,-0.6842,-0.698,-0.7059,-0.7567,-0.7696,0.0,0.0,-0.8704,-0.897,0.0,0.0,0.0,0.0,0.0,0.0,0.0,0.0,0.0,0.0,0.0,0.0,0.0,0.0,0.0,0.0,0.0,-1.3971,-1.3683,-1.379,-1.3635,-1.3136,-1.2894,-1.2791,-1.2864,-1.2665,-1.2851,-1.3444,-1.3734,-1.4268,-1.4866,-1.4866,-1.5323,-1.5974,-1.5974,-1.6364,-1.7001,-1.7529,-1.784,-1.8033,-1.8442,-1.8924,-1.9477,-1.9609,-1.9824,-2.0131,-2.0607,-2.0946,-2.1175,1.6566,1.6278,1.6118,1.6179,1.685,1.7427,1.7567,1.8186,1.8536,1.8252,1.7666,1.713,1.6792,1.6156,1.5376,1.4492,1.3583,1.2539,1.1247,1.0379,0.953,0.8729,0.8019,0.7485,0.7162,0.6503,0.5666,0.4598,0.4332,0.3824,0.3022,0.3068,0.2938,0.2701,0.25,0.234,0.2135,0.1503,0.1099,0.0851,0.0125,-0.0644,-0.1266,-0.111,-0.134,-0.1626,-0.1639,-0.1275,-0.0769,-0.0977,-0.1703,-0.2639,-0.3794,-0.4576,-0.5238,-0.6388,-0.6217,-0.5777,-0.6526,-0.674,-0.6914,0.0,0.0,-0.7817,0.0,0.0,0.0,0.0,0.0,0.0,0.0,0.0,0.0,0.0,0.0,0.0,0.0,0.0,0.0,0.0,0.0,0.0,0.0,0.0,-1.3908,-1.3519,-1.3702,-1.3638,-1.3117,-1.2959,-1.2903,-1.2828,-1.2818,-1.3015,-1.342,-1.3764,-1.4268,-1.4866,-1.4866,-1.5323,-1.5974,-1.5974,-1.6364,-1.7066,-1.7711,-1.7969,-1.8033,-1.8495,-1.8947,-1.9333,-1.9381,-1.9442,-1.9535,-2.0081,-2.0347,-2.0505,1.7057,1.6525,1.6179,1.6484,1.6761,1.718,1.7759,1.7959,1.8072,1.8277,1.8053,1.7609,1.6924,1.6786,1.6226,1.4841,1.4168,1.3436,1.2631,1.1063,1.0052,0.9845,0.8591,0.7779,0.7445,0.6759,0.5802,0.4683,0.4671,0.4101,0.3086,0.3325,0.3172,0.2701,0.25,0.234,0.2135,0.1281,0.0931,0.0802,-0.0063,-0.0326,-0.0137,0.0636,0.0647,0.029,0.0287,0.0493,0.062,0.0,-0.1294,-0.1999,0.0,-0.4503,-0.5314,-0.6119,-0.6068,-0.5924,0.0,0.0,0.0,0.0,-0.7156,0.0,0.0,0.0,-0.8557,-0.9141,0.0,0.0,0.0,0.0,0.0,0.0,0.0,0.0,0.0,0.0,0.0,0.0,0.0,0.0,0.0,0.0,0.0,-1.3422,-1.3302,-1.3187,-1.3075,-1.3,-1.3026,-1.3407,-1.3011,-1.321,-1.4016,-1.3965,-1.4268,-1.4866,-1.4866,-1.5323,-1.5974,-1.5974,-1.6364,-1.7066,-1.7711,-1.7969,-1.8033,-1.8752,-1.8904,-1.8706,-1.893,-1.9376,-1.9814,-1.9948,-2.0148,-2.0481,1.6935,1.6648,1.649,1.6646,1.6947,1.7348,1.7777,1.8257,1.863,1.8789,1.8643,1.8207,1.7481,1.7064,1.639,1.53,1.4351,1.3554,1.3011,1.1471,1.0374,1.0067,0.9061,0.822,0.7617,0.7066,0.6229,0.498,0.4773,0.4242,0.3346,0.3442,0.3134,0.2546,0.2468,0.2254,0.1918,0.1216,0.0906,0.0888,0.013,-0.0134,0.0,-0.0554,-0.0766,-0.0564,0.0495,0.0983,0.1043,0.0,-0.0411,0.0,0.0,0.0,0.0,-0.4906,0.0,0.0,0.0,0.0,0.0,0.0,0.0,0.0,-0.7939,0.0,-0.8202,0.0,0.0,0.0,0.0,0.0,0.0,0.0,0.0,0.0,0.0,0.0,0.0,0.0,0.0,0.0,0.0,0.0,0.0,0.0,0.0,-1.3049,-1.3082,-1.2928,-1.2977,-1.3323,-1.3332,-1.3537,-1.3934,-1.4114,-1.4408,-1.4866,-1.4866,-1.5323,-1.5974,-1.5974,-1.6364,-1.7066,-1.7711,-1.7969,-1.8033,-1.8816,-1.9008,-1.8904,-1.9011,-1.9119,-1.9161,-1.9605,-1.9671,-1.976,1.6974,1.6733,1.6639,1.6733,1.7005,1.7296,1.7708,1.8616,1.914,1.8821,1.8728,1.8332,1.7422,1.6831,1.6243,1.5463,1.432,1.3564,1.3245,1.1871,1.0872,1.0381,0.96,0.8802,0.8087,0.7498,0.6619,0.5462,0.5081,0.443,0.3586,0.3617,0.3188,0.2374,0.2412,0.2188,0.1775,0.1069,0.0869,0.091,0.0267,-0.0205,-0.0488,-0.1036,-0.1106,-0.0696,0.0847,0.12,0.0982,0.1056,0.0208,0.0,-0.1523,0.0,-0.3811,0.0,0.0,0.0,-0.4593,0.0,0.0,0.0,0.0,0.0,0.0,0.0,0.0,0.0,0.0,0.0,0.0,0.0,-0.9092,-0.9493,0.0,0.0,0.0,0.0,0.0,0.0,0.0,0.0,0.0,0.0,0.0,0.0,0.0,0.0,-1.3063,-1.2923,-1.3022,-1.3232,-1.3631,-1.3869,-1.3931,-1.4272,-1.4539,-1.4866,-1.4866,-1.5323,-1.5974,-1.5974,-1.6364,-1.7066,-1.7711,-1.7969,-1.8033,-1.8816,-1.9072,-1.9136,-1.92,-1.9008,-1.8828,-1.9264,-1.9328,-1.9237,1.7529,1.6853,1.6495,1.6838,1.6761,1.6855,1.7596,1.8756,1.9136,1.7902,1.8025,1.7732,1.6454,1.6039,1.5678,1.5253,1.4205,1.3575,1.3512,1.2415,1.159,1.1071,1.0234,0.9503,0.8949,0.7925,0.6964,0.6143,0.5627,0.481,0.3775,0.3913,0.3428,0.2374,0.2202,0.201,0.1746,0.0828,0.0625,0.0923,0.0268,-0.0611,-0.1381,0.0,0.1084,0.1217,0.1957,0.0,0.0,0.1068,0.0142,0.0,0.0,0.0,0.0,0.0,0.0,0.0,0.0,0.0,0.0,-0.5871,0.0,0.0,0.0,0.0,-0.8375,0.0,0.0,0.0,0.0,-0.9017,-0.904,-0.896,-0.9077,0.0,0.0,0.0,0.0,0.0,0.0,0.0,0.0,0.0,0.0,0.0,0.0,0.0,-1.2886,-1.3033,-1.3183,-1.3391,-1.368,-1.3931,-1.4307,-1.4336,-1.4539,-1.4866,-1.4866,-1.5323,-1.5974,-1.5974,-1.6364,-1.7066,-1.7711,-1.7969,-1.8033,-1.8816,-1.9072,-1.9136,-1.9456,-1.9392,-1.9072,-1.9136,-1.9136,-1.9136,1.7504,1.7283,1.7161,1.7243,1.7411,1.7717,1.8338,1.8611,1.8617,1.8276,1.8361,1.8051,1.6865,1.6425,1.596,1.5441,1.4435,1.3797,1.3674,1.2733,1.1893,1.1423,1.0785,1.0103,0.9254,0.8113,0.7403,0.7046,0.5836,0.4992,0.4504,0.4271,0.3545,0.247,0.2213,0.1738,0.1127,0.0598,0.0378,0.0331,0.0,-0.0212,-0.0429,0.0,0.0,0.0209,0.1191,0.1411,0.0,0.15,0.0713,-0.0356,-0.0286,-0.113,-0.2161,-0.21,-0.2568,0.0,0.0,0.0,-0.4356,-0.5017,0.0,0.0,0.0,0.0,0.0,0.0,0.0,0.0,0.0,-0.8048,-0.8004,-0.8357,-0.841,-0.8388,0.0,0.0,0.0,0.0,0.0,0.0,0.0,0.0,0.0,0.0,0.0,0.0,0.0,-1.268,-1.2882,-1.3212,-1.3526,-1.3845,-1.4109,-1.4257,-1.4463,-1.4668,-1.4668,-1.5187,-1.5974,-1.5974,-1.6494,-1.7335,-1.7776,-1.8173,-1.8431,-1.888,-1.9072,-1.9136,-1.92,-1.92,-1.9136,-1.9328,-1.9456,-1.952,1.8086,1.8226,1.8175,1.77,1.7846,1.8153,1.8517,1.8324,1.8085,1.7937,1.796,1.7602,1.6739,1.6138,1.5715,1.545,1.457,1.3922,1.3738,1.3112,0.0,1.1775,1.1285,1.071,0.989,0.8806,0.8105,0.7822,0.6402,0.5486,0.5119,0.4524,0.3665,0.2674,0.2293,0.1645,0.0795,0.0542,0.0254,0.0,0.0,0.0,0.0,0.0,0.0209,-0.014,0.0,0.1416,0.1361,0.1798,0.1153,0.0289,0.0509,-0.0144,-0.1069,-0.115,-0.1641,-0.2259,-0.2541,-0.3145,0.0,-0.4555,-0.491,0.0,-0.5918,0.0,0.0,0.0,0.0,0.0,0.0,-0.7158,-0.7268,-0.7743,-0.7907,-0.8027,0.0,-0.8765,0.0,0.0,0.0,0.0,0.0,0.0,0.0,0.0,0.0,0.0,0.0,0.0,-1.2846,-1.3116,-1.3563,-1.3873,-1.4005,-1.4213,-1.4383,-1.4515,-1.46,-1.5026,-1.5927,-1.5998,-1.6494,-1.7335,-1.7776,-1.8173,-1.8431,-1.888,-1.9072,-1.9072,-1.9072,-1.9072,-1.9136,-1.9456,-1.9711,-1.9839,1.9174,1.9566,1.9508,1.8332,1.8079,1.8117,1.8212,1.7965,1.7584,1.6962,1.6817,1.6603,1.5967,1.525,1.4912,1.5281,1.4583,1.3993,1.3652,1.3449,0.0,0.0,1.1717,1.1301,1.0751,0.0,0.9067,0.8506,0.7173,0.6209,0.5549,0.4716,0.384,0.299,0.2446,0.1729,0.0865,0.0545,0.0256,0.0,0.0429,-0.0072,-0.0932,0.0143,0.0,0.0216,0.167,0.152,0.0791,0.1891,0.1534,0.0584,0.0584,0.0292,-0.0146,-0.0949,-0.1158,-0.1289,-0.2004,-0.2764,-0.3566,-0.4486,0.0,0.0,0.0,0.0,-0.5135,0.0,0.0,0.0,0.0,0.0,-0.6963,-0.7132,-0.7635,-0.8124,-0.8385,-0.8889,0.0,0.0,0.0,0.0,0.0,0.0,0.0,0.0,0.0,0.0,0.0,0.0,0.0,-1.3063,-1.3641,-1.3958,-1.3967,-1.4166,-1.427,-1.4279,-1.4506,-1.5003,-1.5724,-1.5937,-1.6364,-1.7066,-1.7711,-1.7969,-1.8098,-1.8816,-1.9072,-1.9072,-1.9072,-1.9136,-1.92,-1.952,-1.9839,-2.0106,1.9525,1.9775,1.9948,1.9628,1.845,1.772,0.0,0.0,0.0,1.6882,1.761,1.7738,1.6247,1.5962,1.5646,1.5114,1.4367,0.0,0.0,0.0,0.0,1.2194,1.1888,1.1569,1.1212,0.9742,0.9142,0.9614,0.731,0.6299,0.6378,0.4993,0.4019,0.3314,0.2545,0.1691,0.0808,0.0545,0.0321,0.0,0.0143,-0.022,0.0,0.0,0.0367,0.0074,0.0806,0.1252,0.1494,0.1498,0.1118,0.0592,0.0592,0.0147,-0.0511,-0.073,-0.1164,-0.1669,-0.1885,-0.2442,-0.2986,-0.3258,-0.3511,-0.3737,0.0,0.0,0.0,0.0,0.0,0.0,0.0,0.0,0.0,-0.6511,-0.7419,-0.8209,-0.8838,0.0,0.0,-0.9551,0.0,0.0,0.0,0.0,0.0,0.0,0.0,0.0,0.0,0.0,0.0,-1.2671,-1.2926,-1.3154,-1.3306,-1.3523,-1.3703,-1.3854,-1.4222,-1.4857,-1.5724,-1.5937,-1.6494,-1.74,-1.7529,-1.7916,-1.8442,-1.8635,-1.8892,-1.9072,-1.9072,-1.9264,-1.952,-1.9839,-1.9839,-1.9839,2.0313,2.0789,2.1031,2.0786,0.0,0.0,1.829,1.796,0.0,1.6701,1.762,0.0,1.6477,1.6252,1.6092,1.5804,1.5175,0.0,1.4508,0.0,0.0,1.2967,1.2651,1.2237,1.1671,1.0703,0.0,0.9779,0.7964,0.6896,0.6633,0.5129,0.4199,0.3705,0.2815,0.1889,0.0992,0.05,0.0198,0.0,0.0,0.0,0.0,0.0369,0.0448,0.0305,0.0526,0.0974,0.1501,0.1276,0.0969,0.059,0.059,0.0147,-0.0365,-0.0365,-0.0802,-0.1312,-0.1459,-0.203,-0.2596,-0.2813,-0.3013,-0.3117,-0.3032,-0.3032,-0.3158,0.0,0.0,0.0,0.0,0.0,0.0,-0.6489,-0.7532,-0.8379,-0.8999,0.0,0.0,0.0,0.0,0.0,0.0,0.0,0.0,0.0,0.0,0.0,0.0,0.0,0.0,0.0,-1.2952,-1.3203,-1.3433,-1.3527,-1.3699,-1.4112,-1.4269,-1.4841,-1.5761,-1.5977,-1.6518,-1.7271,-1.7464,-1.7787,-1.8366,-1.8507,-1.8828,-1.9072,-1.9072,-1.92,-1.9392,-1.9775,-1.9966,-2.0094,2.1101,2.1768,2.193,2.1674,1.9996,0.0,0.0,1.7647,0.0,1.6402,0.0,1.7491,1.6644,1.647,1.6425,1.6729,0.0,1.5833,1.5795,1.5246,1.4619,1.3913,1.3491,1.2922,1.2123,1.1966,1.1166,0.0,0.869,0.775,0.6715,0.5248,0.4385,0.4052,0.3207,0.2279,0.132,0.0456,0.0068,0.0069,0.0,0.0,0.0075,0.0373,0.0529,0.054,0.0539,0.0836,0.1194,0.1045,0.0814,0.0585,0.0512,0.0292,0.0,0.0,-0.0292,-0.0657,-0.1022,-0.1678,-0.2333,-0.2697,-0.2768,-0.2819,-0.2749,-0.2451,-0.2293,-0.2234,-0.2733,0.0,0.0,0.0,0.0,-0.6704,-0.7684,0.0,0.0,0.0,0.0,0.0,0.0,0.0,0.0,0.0,0.0,0.0,0.0,0.0,0.0,0.0,0.0,0.0,-1.3226,0.0,-1.3867,0.0,-1.3984,-1.449,-1.4549,-1.4951,-1.5711,-1.593,-1.6392,-1.6915,-1.7237,-1.7558,-1.7942,-1.8273,-1.868,-1.9024,-1.906,-1.9072,-1.9136,-1.9456,-1.9903,-2.0475,2.084,2.0544,2.0526,2.1469,0.0,1.7631,1.87,1.8295,1.7491,1.6356,1.7501,1.8011,1.6873,1.6994,1.694,1.6352,1.5793,0.0,0.0,0.0,0.0,1.3827,1.3553,1.3161,1.2602,1.1818,1.1166,0.0,0.8712,0.7731,0.7536,0.5801,0.4804,0.4465,0.3841,0.2961,0.1911,0.0861,0.0,0.0499,0.0147,0.0,0.0,0.0076,0.0076,0.0077,0.0076,0.061,0.1149,0.046,0.0378,0.0519,0.0222,0.0074,0.0,0.0,-0.0292,-0.0584,-0.0657,-0.1313,-0.1895,-0.1968,-0.217,-0.236,-0.2324,-0.2435,-0.2611,-0.2635,-0.2888,-0.3193,-0.3112,0.0,0.0,0.0,0.0,0.0,0.0,0.0,0.0,0.0,0.0,0.0,0.0,0.0,0.0,0.0,0.0,0.0,0.0,0.0,0.0,0.0,0.0,0.0,0.0,0.0,0.0,-1.4025,-1.46,-1.5003,-1.5166,-1.5639,-1.6076,-1.6431,-1.6504,-1.6879,-1.7428,-1.7502,-1.7992,-1.877,-1.8988,-1.9072,-1.9136,-1.92,-1.9456,-1.9839,2.2024,2.1711,2.1512,2.1781,0.0,0.0,0.0,1.797,0.0,1.6635,1.7444,1.7812,1.7009,1.7207,1.7226,1.674,1.6368,1.6035,1.5715,1.5123,1.4712,1.457,1.426,1.3843,1.3319,1.2568,1.1853,1.1132,0.0,0.8391,0.7604,0.6364,0.5393,0.4599,0.3733,0.2755,0.0,0.0,0.0,0.0574,0.0147,0.0,0.0,0.0,0.0,0.0,0.0,0.0305,0.053,0.0151,0.015,0.0221,0.0074,0.0,0.0,0.0,-0.0146,-0.0365,-0.0511,-0.1021,-0.1532,-0.175,-0.2023,-0.2282,-0.2182,-0.2292,-0.2466,-0.2431,-0.2692,-0.3003,-0.3306,-0.3854,0.0,0.0,0.0,0.0,0.0,0.0,0.0,0.0,0.0,0.0,0.0,0.0,0.0,0.0,0.0,0.0,0.0,0.0,0.0,0.0,0.0,0.0,0.0,0.0,0.0,-1.4607,-1.4888,-1.5225,-1.5531,-1.5759,-1.607,-1.6312,-1.6312,-1.656,-1.7044,-1.7426,-1.7937,-1.8486,-1.8611,-1.8758,-1.8855,-1.8722,-1.8884,-1.9271,2.2616,2.2341,2.2013,0.0,1.9965,0.0,1.8188,1.7566,1.7086,1.6963,1.7408,1.7589,1.736,1.7454,1.7473,1.7256,1.7007,1.6712,1.6446,1.5887,1.5514,1.5211,1.4908,1.4525,1.3968,1.3392,1.2576,0.0,0.0,0.9003,0.7701,0.6733,0.5746,0.0,0.0,0.0,0.0,0.0,0.1065,0.0798,0.0296,0.0151,0.0154,0.0,0.0,0.0,0.0,0.0,0.0,0.0,0.0,0.0,0.0,0.0,0.0,0.0,0.0,-0.0073,-0.0365,-0.0803,-0.1239,-0.1598,-0.1943,-0.2274,-0.2243,-0.2213,-0.2184,-0.2227,-0.2412,-0.2717,-0.3301,-0.3675,0.0,0.0,0.0,0.0,0.0,0.0,0.0,0.0,0.0,0.0,0.0,0.0,0.0,0.0,0.0,0.0,-1.2807,-1.2696,0.0,0.0,0.0,0.0,-1.4193,0.0,-1.4613,0.0,-1.5188,-1.5389,-1.581,-1.5871,-1.5978,-1.6161,-1.6161,-1.6346,-1.6714,-1.7311,-1.7757,-1.8058,-1.8163,-1.8358,-1.8577,-1.8372,-1.842,-1.875,0.0,0.0,0.0,0.0,0.0,0.0,0.0,1.7643,1.7143,1.7321,1.752,1.7796,1.7936,1.7895,1.782,1.7681,1.7303,1.6843,1.6271,1.5803,1.542,1.502,1.502,1.471,1.408,1.368,1.2978,0.0,0.0,0.8862,0.8251,0.676,0.5497,0.0,0.0,0.0,0.0,0.1971,0.166,0.1656,0.0821,0.0529,0.054,0.0154,0.0,0.0,0.0,0.0,0.0,0.0,0.0,0.0,0.0,0.0,0.0,0.0,0.0,0.0,-0.0073,-0.0584,-0.1164,-0.1151,-0.1704,-0.2241,-0.2211,-0.2181,-0.2225,-0.2223,-0.2176,-0.2265,-0.2646,-0.2703,-0.3106,0.0,0.0,0.0,0.0,0.0,-0.7363,-0.759,0.0,0.0,0.0,0.0,0.0,0.0,0.0,-1.2273,-1.2759,-1.2537,0.0,-1.3408,0.0,-1.3488,-1.4469,-1.4445,0.0,-1.484,-1.5306,-1.5423,-1.5207,-1.5515,-1.5645,-1.5666,-1.5666,-1.5845,-1.6224,-1.6737,-1.7202,-1.7502,-1.7763,-1.8054,-1.8324,-1.83,-1.8312,-1.8459,0.0,0.0,0.0,0.0,0.0,0.0,0.0,1.7711,1.7399,1.8154,1.7863,1.7631,1.7961,1.7971,1.7829,1.7577,1.7276,1.6771,1.5887,1.5692,1.5378,1.4814,1.4689,1.456,1.4259,1.3315,1.255,0.0,0.0,0.0,0.0,0.0,0.0,0.0,0.0,0.3355,0.2861,0.2294,0.197,0.1722,0.0894,0.0601,0.0534,0.0153,0.0,0.0,0.0,0.0,0.0,0.0,0.0,0.0,0.0,0.0,0.0,0.0,0.0,0.0,0.0,-0.0435,-0.0865,-0.0788,-0.1197,-0.1522,-0.1514,-0.17,-0.1818,-0.1818,-0.1975,-0.2193,-0.2515,-0.2518,-0.2815,0.0,0.0,0.0,0.0,0.0,0.0,0.0,0.0,-0.7948,0.0,0.0,0.0,0.0,0.0,0.0,-1.2759,-1.2565,0.0,-1.3459,0.0,-1.3709,-1.4469,-1.4799,-1.4976,-1.5025,-1.5574,-1.5671,-1.5413,-1.5542,-1.5601,-1.5601,-1.5601,-1.5661,-1.585,-1.6246,-1.6609,-1.6914,-1.7229,-1.748,-1.778,-1.7805,-1.7913,-1.8107,2.3578,0.0,2.1959,0.0,2.0158,1.9287,1.8924,1.8221,1.7898,1.8534,1.8138,1.791,1.8149,1.8239,1.804,1.7712,1.7421,1.6888,1.5895,1.574,1.5396,1.4789,1.4528,0.0,1.4137,1.2984,1.2196,1.175,1.0263,0.0,0.0,0.0,0.0,0.0,0.416,0.3573,0.2895,0.2619,0.2277,0.1932,0.1111,0.0745,0.0753,0.0226,0.0,0.0,0.0,0.0,0.0,0.0,0.0,0.0,0.0,0.0,0.0,0.0,0.0,0.0,0.0,-0.0288,-0.0571,-0.0567,-0.0837,-0.1098,-0.1094,-0.1356,-0.1616,-0.175,-0.1975,-0.2193,-0.2386,-0.2392,-0.2517,0.0,0.0,0.0,0.0,0.0,0.0,0.0,-0.7345,-0.7956,-0.8676,0.0,0.0,0.0,0.0,0.0,0.0,0.0,0.0,0.0,0.0,0.0,0.0,0.0,-1.495,-1.5199,-1.5655,-1.5763,-1.5601,-1.5601,-1.5601,-1.5601,-1.5601,-1.5601,-1.5601,-1.5839,-1.6127,-1.638,-1.6736,-1.7008,-1.7327,-1.7433,-1.7599,-1.7816,2.3314,2.2445,2.1452,2.0081,1.9725,1.9585,1.9153,1.9043,1.8765,1.8068,1.8409,1.8664,1.8664,1.8664,1.8579,1.8329,1.7883,1.7318,1.6542,1.6139,1.5615,0.0,0.0,1.413,1.365,1.2888,1.2199,1.1538,0.0,0.0,0.855,0.0,0.0,0.5077,0.4415,0.3669,0.297,0.2932,0.2717,0.2302,0.1541,0.1177,0.1115,0.0298,0.0,0.0,0.0,0.0,0.0,0.0,0.0,0.0,0.0,0.0,0.0,0.0,0.0,0.0,0.0,-0.0286,-0.0569,-0.0485,-0.0825,-0.1096,-0.1081,-0.1346,-0.1683,-0.2087,-0.2172,-0.2128,-0.2128,-0.2079,-0.2089,-0.2356,0.0,0.0,0.0,0.0,0.0,0.0,-0.7001,-0.7422,-0.727,0.0,0.0,0.0,0.0,0.0,0.0,0.0,0.0,-1.3111,-1.3069,0.0,-1.4469,-1.4164,-1.439,-1.5199,-1.5494,-1.5601,-1.5601,-1.5601,-1.5601,-1.5601,-1.5601,-1.5601,-1.5601,-1.5601,-1.5779,-1.6146,-1.6431,-1.6726,-1.7032,-1.7373,-1.7491,-1.755,2.4199,2.3139,2.2189,2.1536,2.0711,2.0068,1.9828,1.9379,1.8995,1.8868,1.874,1.8673,1.8673,1.8673,1.8589,0.0,1.8095,1.7412,0.0,1.6192,1.5624,1.441,1.4061,1.3714,1.3279,1.2379,1.1802,1.1463,0.0,0.0,0.0,0.6118,0.5506,0.5144,0.4729,0.4092,0.3374,0.3287,0.2924,0.2273,0.1534,0.1171,0.1101,0.0294,0.0,0.0,0.0,0.0,0.0,0.0,0.0,0.0,0.0,0.0,0.0,0.0,0.0,0.0,0.0,-0.0071,-0.0141,0.0138,0.0068,0.0,0.0,-0.0601,-0.1393,-0.1991,-0.2075,-0.2033,-0.2033,-0.2003,-0.2034,-0.2086,0.0,0.0,0.0,0.0,0.0,0.0,-0.6621,-0.7299,0.0,-0.8011,0.0,0.0,0.0,0.0,0.0,0.0,0.0,0.0,-1.2912,0.0,-1.4153,-1.4208,-1.4491,-1.5129,-1.5371,-1.5583,-1.5601,-1.5601,-1.5601,-1.5601,-1.5601,-1.5601,-1.5601,-1.5601,-1.5661,-1.5839,-1.6301,-1.6596,-1.6714,-1.7303,-1.7479,-1.7537,2.4811,2.4001,2.3253,2.2615,2.1795,2.1066,2.0304,1.971,1.9273,1.8907,1.8788,1.8645,1.856,1.855,0.0,1.8329,1.7863,1.7174,1.6359,1.6033,1.5387,1.4281,1.3915,1.3399,1.2804,0.0,0.0,1.1239,0.9764,0.8372,0.6976,0.6403,0.5925,0.5392,0.5029,0.4374,0.35,0.35,0.3063,0.226,0.1678,0.1459,0.1386,0.0729,0.0365,0.0219,0.0219,0.0146,0.0,0.0,0.0,0.0,0.0,0.0,0.0,0.0,0.0,0.0,0.0,0.0,0.0069,0.0411,0.0474,0.0404,0.0202,-0.0333,-0.1054,-0.1911,-0.2061,-0.2019,-0.2019,-0.1996,-0.1977,-0.1977,0.0,-0.293,-0.2838,0.0,0.0,0.0,0.0,0.0,0.0,-0.7702,0.0,0.0,0.0,0.0,0.0,0.0,0.0,-1.2405,-1.277,0.0,-1.3851,-1.3878,-1.4205,-1.4813,-1.5171,-1.5442,-1.5601,-1.5601,-1.5601,-1.5601,-1.5601,-1.5601,-1.5601,-1.5601,-1.5601,-1.5661,-1.6135,-1.6419,-1.6596,-1.7126,-1.7361,-1.7479,2.5209,2.4854,0.0,0.0,2.2859,0.0,2.0676,2.0165,1.9634,1.8641,1.8622,1.867,1.848,1.8432,1.8331,1.8261,0.0,0.0,0.0,1.5714,1.5033,1.4438,1.3975,0.0,1.2367,1.1974,1.1441,1.084,0.9974,0.9045,0.8068,0.7349,0.6551,0.5825,0.5392,0.4592,0.3573,0.3573,0.3063,0.2333,0.1968,0.1822,0.175,0.1386,0.0949,0.0584,0.0584,0.0365,0.0,0.0,0.0,0.0,0.0,0.0,0.0,0.0,0.0,0.0,0.0,0.0,0.0137,0.0473,0.0539,0.0404,-0.0269,-0.0399,-0.0789,-0.1841,-0.1992,-0.1952,-0.2016,-0.1994,-0.1977,-0.1977,-0.2529,-0.2923,-0.2833,0.0,0.0,0.0,0.0,0.0,0.0,-0.7254,-0.7204,0.0,0.0,0.0,0.0,0.0,0.0,-1.2028,-1.2548,-1.3088,-1.3639,-1.3305,-1.3522,-1.4258,-1.4813,-1.5283,-1.5601,-1.5601,-1.5601,-1.5601,-1.5601,-1.5601,-1.5601,-1.5601,-1.5601,-1.5661,-1.5968,-1.6253,-1.6537,-1.6903,-1.7197,-1.7479,0.0,0.0,2.3421,2.2784,2.2385,2.1825,2.0702,2.0398,2.0077,1.9705,1.9231,1.8959,1.9066,1.8465,1.8078,1.8062,1.7396,1.6807,1.6303,1.5828,1.5157,1.4438,1.3975,1.3414,1.2909,1.2306,1.1392,1.0117,0.9942,0.9184,0.8078,0.7353,0.6769,0.6261,0.5538,0.4738,0.3935,0.3935,0.3498,0.2698,0.2333,0.2041,0.175,0.1386,0.0949,0.0584,0.0584,0.0365,0.0,0.0,0.0,0.0,0.0,0.0,0.0,0.0,0.0215,0.0355,0.0069,0.0207,0.0479,0.0878,0.1144,0.1208,0.073,0.0262,-0.0323,-0.1086,-0.1445,-0.1676,-0.1924,-0.1981,-0.1977,-0.1977,-0.2323,-0.2637,-0.296,0.0,0.0,0.0,-0.6791,-0.7473,-0.7265,-0.7193,-0.7337,0.0,0.0,0.0,0.0,0.0,-1.0752,-1.1451,-1.1738,-1.2266,-1.2981,-1.2925,-1.3249,-1.4014,-1.46,-1.5007,-1.5235,-1.5472,-1.5601,-1.5601,-1.5601,-1.5601,-1.5601,-1.5601,-1.5601,-1.5661,-1.5968,-1.6253,-1.6537,-1.6903,-1.7197,-1.7479,2.5209,2.4572,2.3772,2.2809,2.2406,2.1842,2.079,2.0268,2.0036,2.0018,1.9292,1.8801,1.916,1.8478,1.7933,1.7829,1.7176,1.6549,1.6212,1.5659,1.5045,1.4438,1.3975,1.3505,1.312,1.2512,1.1716,1.0765,1.0486,0.9885,0.8874,0.815,0.7349,0.6624,0.5829,0.5101,0.4371,0.4153,0.3644,0.2917,0.2697,0.2333,0.2041,0.1751,0.1459,0.1094,0.0949,0.0582,0.0217,0.0072,0.0,0.0,0.0,0.0,0.0,0.0211,0.035,0.0417,0.0069,0.041,0.0883,0.1214,0.1607,0.1664,0.0924,0.0389,-0.0255,-0.1073,-0.1497,-0.1791,-0.1977,-0.1977,-0.1973,-0.1958,-0.259,-0.3183,-0.3364,-0.486,0.0,-0.6063,-0.6867,-0.7351,-0.7199,-0.721,-0.7404,-0.7883,0.0,0.0,-0.9029,-0.9356,-1.0008,-1.1145,-1.1457,-1.1946,-1.2616,-1.272,-1.3097,-1.3702,-1.4149,-1.4662,-1.5116,-1.5294,-1.5483,-1.5601,-1.5601,-1.5601,-1.5601,-1.5601,-1.5601,-1.5601,-1.5779,-1.6076,-1.6312,-1.649,-1.6903,-1.7256,2.5353,2.5088,2.4492,2.2889,2.2567,2.2164,2.0871,2.0077,1.9764,2.018,1.9072,1.8526,1.9084,1.8382,1.7927,1.7738,1.6771,1.6203,1.6203,1.5429,1.4814,1.4515,1.3975,1.3513,1.3197,1.2567,1.2108,1.165,1.1247,1.0606,0.9807,0.9013,0.8078,0.699,0.6188,0.5392,0.4738,0.4371,0.3789,0.3063,0.299,0.2766,0.2398,0.2327,0.2105,0.1739,0.1379,0.1009,0.0499,0.0214,0.0071,0.007,0.0,0.007,0.0209,0.0413,0.0611,0.0607,0.0273,0.0678,0.1275,0.1543,0.1859,0.1838,0.0851,0.0321,-0.0189,-0.1132,-0.1682,-0.1915,-0.1977,-0.1977,-0.1966,-0.1936,-0.2973,-0.378,-0.3768,0.0,-0.6557,-0.6438,-0.6991,-0.7319,-0.7199,-0.721,-0.7432,-0.7881,-0.7937,0.0,0.0,-0.8774,-0.943,-1.0798,-1.1181,-1.1618,-1.2273,-1.2654,-1.304,-1.3469,-1.3742,-1.4251,-1.4997,-1.5056,-1.5235,-1.5542,-1.5601,-1.5601,-1.5601,-1.5601,-1.5601,-1.5601,-1.5601,-1.5779,-1.6087,-1.6087,-1.6442,-1.6903,2.5647,2.5055,2.4172,2.2809,2.2567,2.2245,2.1357,2.0182,1.982,2.098,1.9204,1.8279,1.9444,1.8484,1.7766,1.7728,1.6771,1.6203,1.6203,1.5429,1.4968,1.4891,1.4122,1.366,1.359,1.2615,1.1804,1.1148,1.1057,1.0462,0.9374,0.8946,0.8078,0.699,0.6188,0.5538,0.5104,0.4738,0.4371,0.3862,0.3573,0.3188,0.2798,0.2441,0.2067,0.1694,0.1624,0.1128,0.0492,0.0422,0.0422,0.035,0.0069,0.0414,0.0894,0.061,0.0944,0.1347,0.1012,0.1203,0.1521,0.1587,0.1831,0.1935,0.1465,0.0886,0.0189,-0.0497,-0.1175,-0.1668,-0.1977,-0.1977,-0.1966,-0.1936,-0.2499,-0.3141,0.0,0.0,-0.5766,-0.6122,-0.6793,-0.7243,-0.721,-0.721,-0.7321,-0.766,-0.766,-0.7937,-0.854,-0.8318,-0.8595,-0.9636,-0.9919,-1.0641,-1.1728,-1.2432,-1.2927,-1.3184,-1.3684,-1.4074,-1.4351,-1.4878,-1.5116,-1.5175,-1.5472,-1.5601,-1.5601,-1.5601,-1.5601,-1.5601,-1.5601,-1.5779,-1.6087,-1.6087,-1.6312,-1.6596,2.575,2.5125,2.4263,2.2832,2.2567,2.22,2.0943,1.9909,1.9607,2.0469,1.8916,1.8115,1.9181,1.831,1.7681,1.7577,1.6717,1.6203,1.6203,1.5429,1.4927,1.483,1.4076,1.3469,1.2929,1.2319,1.1797,1.1444,1.0932,1.0317,0.959,0.8796,0.8,0.7276,0.6482,0.5901,0.5465,0.5101,0.4665,0.4078,0.3835,0.3451,0.2857,0.2626,0.2327,0.1965,0.1754,0.1466,0.111,0.0902,0.069,0.048,0.0545,0.068,0.0813,0.1002,0.1198,0.1265,0.1331,0.1449,0.1563,0.1563,0.1804,0.1908,0.1328,0.1004,0.0498,-0.0556,-0.0864,-0.1173,-0.1853,-0.1853,-0.1777,-0.1854,-0.2878,0.0,0.0,-0.5245,-0.6274,-0.6497,-0.6919,-0.721,-0.721,-0.721,-0.7321,-0.7604,-0.7604,-0.7715,-0.7992,-0.7881,-0.7992,-0.8429,-0.9478,-1.0414,-1.1291,-1.1881,-1.2357,-1.2831,-1.3165,-1.3626,-1.4232,-1.4397,-1.471,-1.5105,-1.5167,-1.5306,-1.5601,-1.5413,-1.5413,-1.5601,-1.5601,-1.572,-1.5839,-1.5839,-1.6135,-1.6537,2.5865,2.5344,2.4571,2.2936,2.2567,2.2075,2.0623,1.9916,1.9614,2.0095,1.8747,1.8058,1.8889,1.8154,1.7596,1.7435,1.6739,1.6262,1.6142,1.5438,1.4999,1.4716,1.3961,1.317,1.234,1.1952,1.1816,1.1782,1.1017,1.0311,0.9735,0.8719,0.7923,0.7421,0.67,0.6192,0.5901,0.5392,0.4875,0.4348,0.4092,0.3563,0.2972,0.2801,0.2507,0.2155,0.1876,0.1726,0.1642,0.1299,0.1019,0.0808,0.101,0.101,0.1007,0.1456,0.1377,0.1175,0.1638,0.1622,0.154,0.1668,0.184,0.1821,0.1257,0.1058,0.0679,-0.0494,-0.0617,-0.0802,-0.1721,-0.1659,-0.1644,-0.2071,0.0,0.0,0.0,-0.5685,-0.6728,-0.6756,-0.694,-0.7099,-0.721,-0.721,-0.7265,-0.7493,-0.7493,-0.7549,-0.7604,-0.7493,-0.7438,-0.7493,-0.9147,-1.0249,-1.0798,-1.1287,-1.1784,-1.2311,-1.2597,-1.3136,-1.3838,-1.3848,-1.4187,-1.4844,-1.4796,-1.5083,-1.5483,-1.5294,-1.5353,-1.5601,-1.5601,-1.5601,-1.5601,-1.5601,-1.5887,-1.6301,2.6159,2.5727,2.4895,2.2936,2.2567,2.2235,2.1022,2.0321,2.0095,2.0487,1.908,1.82,1.8946,1.8019,1.7445,1.7426,1.7035,1.6496,1.594,1.5546,1.5085,1.4708,1.3739,1.2985,1.2384,1.199,1.1769,1.1633,1.1194,1.0389,0.9302,0.8874,0.8078,0.699,0.6559,0.6413,0.6341,0.5541,0.5141,0.5084,0.4292,0.3735,0.3237,0.2824,0.2528,0.2228,0.2161,0.1957,0.1619,0.1551,0.1549,0.1481,0.1212,0.1548,0.2014,0.1721,0.1552,0.1524,0.1931,0.1789,0.158,0.1895,0.2001,0.1918,0.1547,0.1236,0.0803,0.0062,-0.0309,-0.0676,-0.1333,-0.1451,-0.1742,-0.2657,0.0,0.0,-0.4532,-0.5435,-0.6143,-0.633,-0.6599,-0.6882,-0.7154,-0.721,-0.721,-0.721,-0.721,-0.7326,-0.7604,-0.7049,-0.6937,-0.721,-0.8699,-0.9588,-0.9871,-1.0914,-1.147,-1.1495,-1.2183,-1.2561,-1.2715,-1.321,-1.3654,-1.4034,-1.4549,-1.4907,-1.5175,-1.5472,-1.5601,-1.5601,-1.5601,-1.5601,-1.5601,-1.5601,-1.5661,-1.5779,2.6223,2.5716,2.4919,2.3281,2.2809,2.2099,2.058,2.0148,1.9844,1.9398,1.8744,1.8445,1.8688,1.816,1.7645,1.7426,1.7035,1.6572,1.5922,1.5529,1.4952,1.418,1.3489,1.2846,1.2422,1.1894,1.1674,1.1619,1.075,1.0101,0.9663,0.8507,0.7783,0.7349,0.6918,0.6627,0.6337,0.5777,0.5385,0.514,0.4496,0.4023,0.3636,0.3471,0.3044,0.2492,0.2492,0.229,0.1952,0.1952,0.1818,0.1616,0.175,0.1818,0.1809,0.1899,0.172,0.1558,0.1944,0.1751,0.1556,0.1681,0.1861,0.1915,0.1606,0.142,0.105,0.0185,0.0062,-0.0185,-0.1287,-0.1286,-0.1522,-0.2695,0.0,-0.3731,-0.4495,-0.5394,-0.6048,-0.6289,-0.6715,-0.7043,-0.721,-0.6988,-0.6877,-0.6877,-0.6877,-0.6882,-0.6776,-0.6715,-0.6882,-0.721,-0.7931,-0.8484,-0.8982,-0.9931,-1.0627,-1.1069,-1.1659,-1.217,-1.2561,-1.2898,-1.3165,-1.3423,-1.3732,-1.4122,-1.4624,-1.4708,-1.4937,-1.5294,-1.5542,-1.5483,-1.5294,-1.5542,-1.5601,-1.5661,2.6236,2.571,2.496,2.3293,2.274,2.1895,2.0216,2.0032,1.9776,1.8922,1.8643,1.8567,1.8567,1.8111,1.7721,1.7426,1.7056,1.6576,1.5913,1.5342,1.4629,1.3924,1.3306,1.2779,1.2561,1.1883,1.1619,1.1619,1.0599,1.0023,0.9879,0.8579,0.7856,0.7566,0.7276,0.699,0.6551,0.5962,0.5557,0.5244,0.4646,0.4182,0.3886,0.385,0.3365,0.2694,0.2694,0.2492,0.2223,0.2223,0.2019,0.1816,0.2076,0.1994,0.1775,0.1997,0.1826,0.1544,0.1915,0.173,0.1543,0.1606,0.1853,0.1915,0.173,0.1606,0.1296,0.0494,0.0432,0.0185,-0.092,-0.1042,-0.1404,-0.2718,-0.3123,-0.3621,-0.4528,-0.5299,-0.5821,-0.6005,-0.6548,-0.6937,-0.6937,-0.6715,-0.6604,-0.6715,-0.6715,-0.6604,-0.6442,-0.6715,-0.6937,-0.7043,-0.7326,-0.766,-0.8097,-0.8982,-0.9727,-1.0448,-1.0948,-1.1563,-1.2229,-1.2406,-1.2588,-1.2783,-1.3105,-1.3548,-1.4034,-1.4371,-1.465,-1.4997,-1.5294,-1.5294,-1.5116,-1.5353,-1.5542,-1.5661,2.6318,2.5969,2.5288,2.297,2.235,2.1693,2.0216,2.0139,1.997,1.927,1.8871,1.8643,1.8567,1.7883,1.7426,1.7426,1.7227,1.673,1.598,1.4809,1.418,1.418,1.3274,1.2824,1.2824,1.2043,1.1619,1.1619,1.0894,1.0311,0.9879,0.909,0.8295,0.7638,0.7566,0.7349,0.691,0.6101,0.5669,0.5524,0.4695,0.4156,0.3835,0.3835,0.3365,0.2694,0.2694,0.2492,0.2223,0.2223,0.2223,0.2217,0.2119,0.2067,0.2019,0.2019,0.1749,0.1606,0.1915,0.173,0.1606,0.1915,0.1977,0.1977,0.1977,0.173,0.142,0.105,0.0741,0.0307,-0.0303,-0.0664,-0.1327,-0.2652,-0.3094,-0.3648,-0.4588,-0.5161,-0.5475,-0.5382,-0.5935,-0.6274,-0.6274,-0.6274,-0.6386,-0.6659,-0.6715,-0.6715,-0.6715,-0.7043,-0.7043,-0.6715,-0.7043,-0.721,-0.721,-0.8042,-0.889,-0.9603,-1.0111,-1.0763,-1.1684,-1.1684,-1.1857,-1.2135,-1.2774,-1.3183,-1.3498,-1.4597,-1.4878,-1.465,-1.4997,-1.5116,-1.5116,-1.5116,-1.5294,-1.5661,2.6198,2.5816,2.5157,2.335,2.259,2.1772,2.0597,2.0283,1.997,1.927,1.939,1.9249,1.8643,1.8415,1.7976,1.7218,1.7142,1.6684,1.5591,1.4839,1.4272,1.3985,1.3428,1.3182,1.3182,1.2402,1.2051,1.2051,1.1031,1.0455,1.0311,0.9235,0.844,0.7933,0.7711,0.7386,0.6888,0.6304,0.5873,0.545,0.4901,0.4456,0.4174,0.4174,0.3835,0.3432,0.3163,0.2827,0.2492,0.229,0.2223,0.2217,0.2119,0.2067,0.2019,0.2019,0.1936,0.1853,0.1977,0.1915,0.1853,0.1977,0.1977,0.1977,0.1977,0.1544,0.1111,0.105,0.0556,0.0,-0.0368,-0.0547,-0.1146,-0.2652,-0.2795,-0.3106,-0.446,-0.4954,-0.5191,-0.5382,-0.5935,-0.6274,-0.6274,-0.6102,-0.5991,-0.6047,-0.627,-0.6604,-0.7043,-0.7154,-0.7154,-0.7043,-0.7154,-0.721,-0.721,-0.8139,-0.8817,-0.9185,-1.0156,-1.0705,-1.0993,-1.1512,-1.1597,-1.1424,-1.2294,-1.2718,-1.2894,-1.3779,-1.4232,-1.4351,-1.4878,-1.4818,-1.453,-1.5186,-1.5245,-1.5007,2.6126,2.5745,2.5057,2.3487,2.2576,2.1738,2.0743,2.0285,1.9864,1.926,1.9325,1.9174,1.8643,1.8339,1.7871,1.7123,1.6805,1.6214,1.5309,1.4757,1.4332,1.3904,1.3682,1.3468,1.3325,1.276,1.2402,1.2402,1.1247,1.0671,1.0671,0.9518,0.8729,0.8295,0.7963,0.7478,0.7061,0.6442,0.6015,0.569,0.5069,0.4705,0.4507,0.4375,0.4104,0.3768,0.3499,0.3096,0.2692,0.2409,0.2254,0.2098,0.2079,0.2041,0.2003,0.2003,0.199,0.1977,0.1853,0.1791,0.1791,0.1791,0.1915,0.1977,0.1977,0.1606,0.1171,0.1042,0.0551,0.0122,-0.0243,-0.0421,-0.0956,-0.2269,-0.2417,-0.2789,-0.4083,-0.4569,-0.487,-0.5043,-0.5596,-0.5935,-0.594,-0.5768,-0.5768,-0.5991,-0.6381,-0.6826,-0.7154,-0.721,-0.721,-0.721,-0.7198,-0.7225,-0.7225,-0.8082,-0.8652,-0.902,-0.978,-1.0512,-1.1039,-1.1271,-1.1462,-1.1539,-1.22,-1.2548,-1.2748,-1.3551,-1.3933,-1.4052,-1.453,-1.459,-1.4411,-1.5126,-1.5304,-1.5304,2.5976,2.5618,2.5019,2.3451,2.2437,2.1557,2.0767,2.0222,1.9768,1.939,1.8946,1.8719,1.8643,1.794,1.7388,1.717,1.6406,1.574,1.5061,1.4759,1.4403,1.3975,1.3975,1.3753,1.3325,1.3039,1.2824,1.2824,1.1678,1.1096,1.0953,0.9879,0.9157,0.8652,0.8255,0.7775,0.7332,0.6521,0.6172,0.602,0.5201,0.4839,0.4772,0.444,0.4104,0.3835,0.3763,0.3291,0.2751,0.2578,0.2325,0.2019,0.2019,0.1999,0.1977,0.1977,0.1977,0.1915,0.1606,0.1543,0.1543,0.1543,0.173,0.1977,0.1977,0.1666,0.1351,0.1031,0.0664,0.036,0.0059,-0.0236,-0.0764,-0.1764,-0.2089,-0.2582,-0.3556,-0.413,-0.448,-0.448,-0.4983,-0.5373,-0.5382,-0.5437,-0.5661,-0.6274,-0.6826,-0.7154,-0.721,-0.721,-0.721,-0.721,-0.7263,-0.7317,-0.7317,-0.7891,-0.8431,-0.8981,-0.9234,-1.0069,-1.1382,-1.1087,-1.1336,-1.198,-1.2355,-1.2678,-1.2931,-1.3787,-1.3992,-1.3753,-1.4072,-1.4371,-1.459,-1.4958,-1.5493,-1.6087,2.5937,2.5371,2.4731,2.319,2.2243,2.1656,2.1309,2.0494,1.9995,2.0221,1.9844,1.9325,1.8643,1.8331,1.7917,1.7394,1.6841,1.6216,1.5541,1.5399,1.5044,1.4403,1.4403,1.4189,1.3761,1.3396,1.3182,1.3182,1.2323,1.1606,1.0953,1.0455,0.9663,0.8724,0.8464,0.8016,0.7305,0.6979,0.6545,0.5871,0.5453,0.5111,0.4772,0.444,0.4241,0.4099,0.3523,0.3245,0.2975,0.241,0.2113,0.2019,0.2019,0.1811,0.1606,0.1606,0.1606,0.1606,0.1543,0.1668,0.1915,0.1915,0.173,0.1606,0.1606,0.1163,0.0669,0.0613,0.0362,0.0059,0.0,-0.0059,-0.0462,-0.1619,-0.1881,-0.2312,-0.3439,-0.3877,-0.4204,-0.448,-0.4815,-0.5098,-0.5382,-0.5601,-0.588,-0.6274,-0.6604,-0.6937,-0.721,-0.721,-0.721,-0.721,-0.7237,-0.731,-0.7533,-0.7865,-0.8265,-0.8782,-0.9134,-0.9686,-1.0317,-1.0791,-1.0985,-1.1059,-1.2296,-1.2736,-1.2637,-1.3489,-1.3753,-1.3763,-1.4227,-1.4198,-1.4012,-1.4962,-1.5332,-1.5472,2.5757,2.5231,2.4644,2.3107,2.2287,2.1711,2.1471,2.0537,2.007,2.0447,1.9768,1.9132,1.8803,1.8305,1.7758,1.7106,1.6861,1.6333,1.5545,1.5557,1.5257,1.4546,1.4474,1.4332,1.3904,1.3682,1.3611,1.3611,1.2824,1.218,1.1534,1.0815,1.0066,0.9149,0.8666,0.8064,0.7479,0.7038,0.656,0.6116,0.558,0.5245,0.5044,0.4507,0.4289,0.4126,0.3437,0.3203,0.3033,0.2112,0.2022,0.2184,0.1874,0.1739,0.173,0.1544,0.1482,0.142,0.1111,0.1173,0.1296,0.1296,0.105,0.0926,0.142,0.1104,0.0671,0.055,0.0362,0.0178,0.0,0.0,-0.0401,-0.1594,-0.1805,-0.2244,-0.3589,-0.3924,-0.4148,-0.4648,-0.4819,-0.5098,-0.5545,-0.588,-0.6158,-0.6492,-0.6771,-0.6988,-0.721,-0.721,-0.721,-0.721,-0.7209,-0.7298,-0.7472,-0.7641,-0.7939,-0.8378,-0.8797,-0.9327,-0.9907,-1.0214,-1.0612,-1.107,-1.2132,-1.2693,-1.288,-1.3467,-1.375,-1.3844,-1.4026,-1.4266,-1.4526,-1.5217,-1.5764,-1.6205,2.5551,2.5092,2.4569,2.3115,2.2295,2.1808,2.1643,2.0731,2.0135,2.0466,1.9489,1.8803,1.8799,1.8114,1.7384,1.6725,1.6646,1.6269,1.5413,1.549,1.5309,1.4645,1.4645,1.4441,1.4118,1.4118,1.4047,1.3904,1.3253,1.2753,1.2252,1.1149,1.0364,0.9765,0.8842,0.8237,0.7737,0.6964,0.6652,0.6518,0.5714,0.5379,0.5312,0.4562,0.4262,0.4081,0.341,0.3025,0.2703,0.176,0.1808,0.2221,0.1667,0.1668,0.1791,0.1482,0.1358,0.1235,0.0679,0.0556,0.0555,0.0615,0.0307,0.0307,0.1169,0.1046,0.0736,0.0485,0.0421,0.0356,0.0058,0.0,-0.0399,-0.1631,-0.1795,-0.23,-0.3757,-0.398,-0.4204,-0.4763,-0.4931,-0.521,-0.5768,-0.6102,-0.6386,-0.6659,-0.6988,-0.721,-0.721,-0.721,-0.721,-0.721,-0.7252,-0.7307,-0.7363,-0.7462,-0.7685,-0.8031,-0.8343,-0.8902,-0.9597,-0.9564,-1.0108,-1.1074,-1.1867,-1.2475,-1.3024,-1.3504,-1.3797,-1.3948,-1.3835,-1.4353,-1.5102,-1.5442,-1.623,-1.7127,2.5433,2.4926,2.4425,2.3295,2.249,2.2089,2.2205,2.1146,2.0444,2.0677,1.9914,1.916,1.8623,1.7816,1.7117,1.649,1.6284,1.6031,1.5602,1.5562,1.545,1.5208,1.5217,1.5087,1.483,1.4839,1.4546,1.3904,1.3833,1.3396,1.2681,1.1754,1.0908,1.0183,0.917,0.8512,0.8083,0.7569,0.7187,0.6853,0.5781,0.5379,0.5305,0.4513,0.4224,0.4136,0.3395,0.2513,0.1673,0.1238,0.1298,0.1605,0.1543,0.1358,0.1111,0.1111,0.0864,0.0617,0.0494,0.0741,0.0924,0.0911,0.0666,0.0484,0.0605,0.0363,0.0121,0.0061,0.006,0.0058,0.0,0.0,-0.0393,-0.1627,-0.1795,-0.2244,-0.3477,-0.3868,-0.4148,-0.4536,-0.5043,-0.5433,-0.5768,-0.6102,-0.6386,-0.6659,-0.6988,-0.721,-0.721,-0.721,-0.721,-0.721,-0.7226,-0.7349,-0.7577,-0.7594,-0.7712,-0.7991,-0.7969,-0.8262,-0.886,-0.9185,-0.9431,-0.9674,-1.1442,-1.2113,-1.2062,-1.3204,-1.3703,-1.3769,-1.4099,-1.4218,-1.4317,-1.5391,-1.6089,-1.6569,2.5818,2.5046,2.4284,2.3014,2.2366,2.1954,2.1707,2.0973,2.0583,2.0706,1.9796,1.9064,1.8693,1.7955,1.7105,1.6324,1.6148,1.5905,1.5385,1.5489,1.5465,1.5137,1.5137,1.4976,1.4658,1.4754,1.4552,1.3883,1.4161,1.3784,1.2902,1.1903,1.1008,1.0304,0.9297,0.8533,0.8127,0.7474,0.7054,0.6652,0.5781,0.5289,0.4983,0.4226,0.3849,0.3722,0.3013,0.2483,0.1975,0.1482,0.1482,0.1727,0.1358,0.1111,0.0988,0.0803,0.0617,0.0494,0.0494,0.0617,0.0738,0.0727,0.0603,0.0422,0.0241,0.0121,0.0,0.0,0.0,0.0,0.0,0.0,-0.0344,-0.135,-0.1683,-0.2244,-0.3418,-0.3813,-0.4204,-0.4648,-0.5098,-0.5605,-0.6051,-0.6219,-0.6497,-0.6932,-0.7099,-0.721,-0.721,-0.721,-0.721,-0.721,-0.7326,-0.7493,-0.7604,-0.7604,-0.7694,-0.7877,-0.7721,-0.7898,-0.8307,-0.8558,-0.8781,-0.9092,-1.0543,-1.139,-1.1881,-1.2784,-1.3458,-1.3873,-1.3939,-1.4231,-1.4688,-1.5759,-1.6339,-1.6571]}]]